[[{"header":{"parameterUnit":"m.s-1","parameterCategory":1,"la1":30.6,"la2":29.2853,"lo1":-89.7004,"lo2":-87.6739,"dy":0.0162,"dx":0.0183,"nx":112,"ny":82,"refTime":"2023-10-07T12:00:00:Z","depth":0,"parameterNumber":2,"parameterNumberName":"U-component_of_WINDS"},"data":[0.0,0.0,0.0,0.0,0.0,0.0,0.0,0.0,0.0,0.0,0.0,0.0,0.0,0.0,0.0,0.0,0.0,0.0,0.0,0.0,0.0,0.0,0.0,0.0,0.0,0.0,0.0,0.0,0.0,0.0,0.0,0.0,0.0,0.0,0.0,0.0,0.0,0.0,0.0,0.0,0.0,0.0,0.0,0.0,0.0,0.0,0.0,0.0,0.0,0.0,0.0,0.0,0.0,0.0,0.0,0.0,0.0,0.0,0.0,0.0,0.0,0.0,0.0,0.0,0.0,0.0,0.0,0.0,0.0,0.0,0.0,0.0,0.0,0.0,0.0,0.0,0.0,0.0,0.0,0.0,0.0,0.0,0.0,0.0,0.0,0.0,0.0,0.0,0.0,0.0,2.2583,2.4504,2.824,3.0325,2.9649,2.8438,2.745,2.6832,0.0,0.0,0.0,0.0,0.0,0.0,0.0,0.0,0.0,0.0,0.0,0.0,0.0,0.0,0.0,0.0,0.0,0.0,0.0,0.0,0.0,0.0,0.0,0.0,0.0,0.0,0.0,0.0,0.0,0.0,0.0,0.0,0.0,0.0,0.0,0.0,0.0,0.0,0.0,0.0,0.0,0.0,0.0,0.0,0.0,0.0,0.0,0.0,0.0,0.0,0.0,0.0,0.0,0.0,0.0,0.0,0.0,0.0,0.0,0.0,0.0,0.0,0.0,0.0,0.0,0.0,0.0,0.0,0.0,0.0,0.0,0.0,0.0,0.0,0.0,0.0,0.0,0.0,0.0,0.0,0.0,0.0,0.0,0.0,0.0,0.0,0.0,0.0,0.0,0.0,0.0,0.0,0.0,0.0,0.0,0.0,0.0,0.0,0.0,0.0,0.0,0.0,0.0,0.0,2.449,2.721,2.9353,3.054,3.0433,2.7686,2.6477,2.7621,0.0,0.0,0.0,0.0,0.0,0.0,0.0,0.0,0.0,0.0,0.0,0.0,0.0,0.0,0.0,0.0,0.0,0.0,0.0,0.0,0.0,0.0,0.0,0.0,0.0,0.0,0.0,0.0,0.0,0.0,0.0,0.0,0.0,0.0,0.0,0.0,0.0,0.0,0.0,0.0,0.0,0.0,0.0,0.0,0.0,0.0,0.0,0.0,0.0,0.0,0.0,0.0,0.0,0.0,0.0,0.0,0.0,0.0,0.0,0.0,0.0,0.0,0.0,0.0,0.0,0.0,0.0,0.0,0.0,0.0,0.0,0.0,0.0,0.0,0.0,0.0,0.0,0.0,0.0,0.0,0.0,0.0,0.0,0.0,0.0,0.0,0.0,0.0,0.0,0.0,0.0,0.0,0.0,0.0,0.0,0.0,0.0,0.0,0.0,0.0,0.0,0.0,0.0,2.4309,2.5685,2.8501,2.987,3.0601,3.0589,2.7531,2.6255,2.7794,2.5409,0.0,0.0,0.0,0.0,0.0,0.0,0.0,0.0,0.0,0.0,0.0,0.0,0.0,0.0,0.0,0.0,0.0,0.0,0.0,0.0,0.0,0.0,0.0,0.0,0.0,0.0,0.0,0.0,0.0,0.0,0.0,0.0,0.0,0.0,0.0,0.0,0.0,0.0,0.0,0.0,0.0,0.0,0.0,0.0,0.0,0.0,0.0,0.0,0.0,0.0,0.0,0.0,0.0,0.0,0.0,0.0,0.0,0.0,0.0,0.0,0.0,0.0,0.0,0.0,0.0,0.0,0.0,0.0,0.0,0.0,0.0,0.0,0.0,0.0,0.0,0.0,0.0,0.0,0.0,0.0,0.0,0.0,0.0,0.0,0.0,0.0,0.0,0.0,0.0,0.0,0.0,0.0,0.0,0.0,0.0,0.0,0.0,0.0,0.0,0.0,0.0,0.0,2.5995,2.665,2.9366,3.0036,3.0284,3.0278,2.7024,2.5813,2.7775,2.4505,0.0,0.0,0.0,0.0,0.0,0.0,0.0,0.0,0.0,0.0,0.0,0.0,0.0,0.0,0.0,0.0,0.0,0.0,0.0,0.0,0.0,0.0,0.0,0.0,0.0,0.0,0.0,0.0,0.0,0.0,0.0,0.0,0.0,0.0,0.0,0.0,0.0,0.0,0.0,0.0,0.0,0.0,0.0,0.0,0.0,0.0,0.0,0.0,0.0,0.0,0.0,0.0,0.0,0.0,0.0,0.0,0.0,0.0,0.0,0.0,0.0,0.0,0.0,0.0,0.0,0.0,0.0,0.0,0.0,0.0,0.0,0.0,0.0,0.0,0.0,0.0,0.0,0.0,0.0,0.0,0.0,0.0,0.0,0.0,0.0,0.0,0.0,0.0,0.0,0.0,0.0,0.0,0.0,0.0,0.0,0.0,0.0,0.0,0.0,0.0,0.0,0.0,2.6816,2.7505,3.014,2.9799,2.9374,2.9305,2.5538,2.4533,2.7698,2.3928,0.0,0.0,0.0,0.0,0.0,0.0,0.0,0.0,0.0,0.0,0.0,0.0,0.0,0.0,0.0,0.0,0.0,0.0,0.0,0.0,0.0,0.0,0.0,0.0,0.0,0.0,0.0,0.0,0.0,0.0,0.0,0.0,0.0,0.0,0.0,0.0,0.0,0.0,0.0,0.0,0.0,0.0,0.0,0.0,0.0,0.0,0.0,0.0,0.0,0.0,0.0,0.0,0.0,0.0,0.0,0.0,0.0,0.0,0.0,0.0,0.0,0.0,0.0,0.0,0.0,0.0,0.0,0.0,0.0,0.0,0.0,0.0,0.0,0.0,0.0,0.0,0.0,0.0,0.0,0.0,0.0,0.0,0.0,0.0,0.0,0.0,0.0,0.0,0.0,0.0,0.0,0.0,0.0,0.0,0.0,0.0,0.0,0.0,0.0,0.0,0.0,0.0,2.745,2.8198,0.0,2.9775,2.9259,2.9216,2.5893,2.4908,2.7491,0.0,0.0,0.0,0.0,0.0,0.0,0.0,0.0,0.0,0.0,0.0,0.0,0.0,0.0,0.0,0.0,0.0,0.0,0.0,0.0,0.0,0.0,0.0,0.0,0.0,0.0,0.0,0.0,0.0,0.0,0.0,0.0,0.0,0.0,0.0,0.0,0.0,0.0,0.0,0.0,0.0,0.0,0.0,0.0,0.0,0.0,0.0,0.0,0.0,0.0,0.0,0.0,0.0,0.0,0.0,0.0,0.0,0.0,0.0,0.0,0.0,0.0,0.0,0.0,0.0,0.0,0.0,0.0,0.0,0.0,0.0,0.0,0.0,0.0,0.0,0.0,0.0,0.0,0.0,0.0,0.0,0.0,0.0,0.0,0.0,0.0,0.0,0.0,0.0,0.0,0.0,0.0,0.0,0.0,0.0,0.0,0.0,0.0,0.0,0.0,0.0,0.0,2.7357,2.7726,2.8499,0.0,2.9548,2.8786,2.8437,2.5374,2.4553,2.7089,0.0,0.0,0.0,0.0,0.0,0.0,0.0,0.0,0.0,0.0,0.0,0.0,0.0,0.0,0.0,0.0,0.0,0.0,0.0,0.0,0.0,0.0,0.0,0.0,0.0,0.0,0.0,0.0,0.0,0.0,0.0,0.0,0.0,0.0,0.0,0.0,0.0,0.0,0.0,0.0,0.0,0.0,0.0,0.0,0.0,0.0,0.0,0.0,0.0,0.0,0.0,0.0,0.0,0.0,0.0,0.0,0.0,0.0,0.0,0.0,0.0,0.0,0.0,0.0,0.0,0.0,0.0,0.0,0.0,0.0,0.0,0.0,0.0,0.0,0.0,0.0,0.0,0.0,0.0,0.0,0.0,0.0,0.0,0.0,0.0,0.0,0.0,0.0,0.0,0.0,0.0,0.0,0.0,0.0,0.0,0.0,0.0,0.0,0.0,0.0,0.0,0.0,2.7363,2.7599,2.8332,3.0194,2.9017,2.7721,2.6797,2.3634,2.313,0.0,0.0,0.0,0.0,0.0,0.0,0.0,0.0,0.0,0.0,0.0,0.0,0.0,0.0,0.0,0.0,0.0,0.0,0.0,0.0,0.0,0.0,0.0,0.0,0.0,0.0,0.0,0.0,0.0,0.0,0.0,0.0,0.0,0.0,0.0,0.0,0.0,0.0,0.0,0.0,0.0,0.0,0.0,0.0,0.0,0.0,0.0,0.0,0.0,0.0,0.0,0.0,0.0,0.0,0.0,0.0,0.0,0.0,0.0,0.0,0.0,0.0,0.0,0.0,0.0,0.0,0.0,0.0,0.0,0.0,0.0,0.0,0.0,0.0,0.0,0.0,0.0,0.0,0.0,0.0,0.0,0.0,0.0,0.0,0.0,0.0,0.0,0.0,0.0,0.0,0.0,0.0,0.0,0.0,0.0,0.0,0.0,0.0,0.0,0.0,0.0,0.0,0.0,2.7562,2.7682,2.8332,3.0194,2.9017,2.7981,2.7639,2.4541,2.3967,2.7123,0.0,0.0,0.0,0.0,0.0,0.0,0.0,0.0,0.0,0.0,0.0,0.0,0.0,0.0,0.0,0.0,0.0,0.0,0.0,0.0,0.0,0.0,0.0,0.0,0.0,0.0,0.0,0.0,0.0,0.0,0.0,0.0,0.0,0.0,0.0,0.0,0.0,0.0,0.0,0.0,0.0,0.0,0.0,0.0,0.0,0.0,0.0,0.0,0.0,0.0,0.0,0.0,0.0,0.0,0.0,0.0,0.0,0.0,0.0,0.0,0.0,0.0,0.0,0.0,0.0,0.0,0.0,0.0,0.0,0.0,0.0,0.0,0.0,0.0,0.0,0.0,0.0,0.0,0.0,0.0,0.0,0.0,0.0,0.0,0.0,0.0,0.0,0.0,0.0,0.0,0.0,0.0,0.0,0.0,0.0,0.0,0.0,0.0,0.0,0.0,0.0,0.0,2.808,2.7848,2.8235,3.0194,2.9017,2.7788,2.7073,2.453,2.38,2.5637,0.0,0.0,0.0,0.0,0.0,0.0,0.0,0.0,0.0,0.0,0.0,0.0,0.0,0.0,0.0,0.0,0.0,0.0,0.0,0.0,0.0,0.0,0.0,0.0,0.0,0.0,0.0,0.0,0.0,0.0,0.0,0.0,0.0,0.0,0.0,0.0,0.0,0.0,0.0,0.0,0.0,0.0,0.0,0.0,0.0,0.0,0.0,0.0,0.0,0.0,0.0,0.0,0.0,0.0,0.0,0.0,0.0,0.0,0.0,0.0,0.0,0.0,0.0,0.0,0.0,0.0,0.0,0.0,0.0,0.0,0.0,0.0,0.0,0.0,0.0,0.0,0.0,0.0,0.0,0.0,0.0,0.0,0.0,0.0,0.0,0.0,0.0,0.0,0.0,0.0,0.0,0.0,0.0,0.0,0.0,0.0,0.0,0.0,0.0,0.0,0.0,0.0,2.8752,2.8126,2.817,3.0086,2.8979,2.744,2.5758,2.4004,2.3067,2.3211,0.0,0.0,0.0,0.0,0.0,0.0,0.0,0.0,0.0,0.0,0.0,0.0,0.0,0.0,0.0,0.0,0.0,0.0,0.0,0.0,0.0,0.0,0.0,0.0,0.0,0.0,0.0,0.0,0.0,0.0,0.0,0.0,0.0,0.0,0.0,0.0,0.0,0.0,0.0,0.0,0.0,0.0,0.0,0.0,0.0,0.0,0.0,0.0,0.0,0.0,0.0,0.0,0.0,0.0,0.0,0.0,0.0,0.0,0.0,0.0,2.3087,0.0,0.0,0.0,0.0,0.0,0.0,0.0,0.0,0.0,0.0,0.0,0.0,0.0,0.0,0.0,0.0,0.0,0.0,0.0,0.0,0.0,0.0,0.0,0.0,0.0,0.0,0.0,0.0,0.0,0.0,0.0,0.0,0.0,0.0,0.0,0.0,0.0,0.0,0.0,0.0,0.0,2.8917,2.8747,2.8714,2.9321,2.8614,2.7671,2.6605,2.4355,2.3558,2.4892,2.3942,0.0,0.0,0.0,0.0,0.0,0.0,0.0,0.0,0.0,0.0,0.0,0.0,0.0,0.0,0.0,0.0,0.0,0.0,0.0,0.0,0.0,0.0,0.0,0.0,0.0,0.0,0.0,0.0,0.0,0.0,0.0,0.0,0.0,0.0,0.0,0.0,0.0,0.0,0.0,0.0,0.0,0.0,0.0,0.0,0.0,0.0,0.0,0.0,0.0,0.0,0.0,0.0,0.0,0.0,0.0,0.0,0.0,0.0,0.0,0.0,2.4733,0.0,0.0,0.0,0.0,0.0,0.0,0.0,0.0,0.0,0.0,0.0,0.0,0.0,0.0,0.0,0.0,0.0,0.0,0.0,0.0,0.0,0.0,0.0,0.0,0.0,0.0,0.0,0.0,0.0,0.0,0.0,0.0,0.0,0.0,0.0,0.0,0.0,0.0,0.0,0.0,2.954,2.9174,2.904,2.9667,2.8714,2.7711,2.6864,2.4824,2.3597,2.3663,2.3887,0.0,0.0,0.0,0.0,0.0,0.0,0.0,0.0,0.0,0.0,0.0,0.0,0.0,0.0,0.0,0.0,0.0,0.0,0.0,0.0,0.0,0.0,0.0,0.0,0.0,0.0,0.0,0.0,0.0,0.0,0.0,0.0,0.0,0.0,0.0,0.0,0.0,0.0,0.0,0.0,0.0,0.0,0.0,0.0,0.0,0.0,0.0,0.0,0.0,0.0,0.0,0.0,0.0,2.8384,2.8959,3.023,2.9755,2.9195,2.8471,2.6882,2.5674,2.4919,2.5946,0.0,0.0,0.0,0.0,0.0,0.0,0.0,0.0,0.0,0.0,0.0,0.0,0.0,0.0,0.0,0.0,0.0,0.0,0.0,0.0,0.0,0.0,0.0,0.0,3.0351,2.9629,2.8906,0.0,0.0,0.0,0.0,0.0,0.0,0.0,0.0,0.0,0.0,0.0,2.9946,2.95,2.9353,3.0042,2.8975,2.7837,2.6889,2.5328,2.3755,2.2246,2.3725,2.4543,0.0,0.0,0.0,0.0,0.0,0.0,0.0,0.0,0.0,0.0,0.0,0.0,0.0,0.0,0.0,0.0,0.0,0.0,0.0,0.0,0.0,0.0,0.0,0.0,0.0,0.0,0.0,0.0,0.0,0.0,0.0,0.0,2.025,2.1577,0.0,0.0,0.0,0.0,0.0,0.0,0.0,0.0,0.0,0.0,0.0,0.0,0.0,2.7466,2.8368,2.9954,3.0623,3.0388,3.1875,3.2117,3.1214,3.1322,3.1289,3.1149,3.0169,0.0,2.7312,2.6,0.0,0.0,0.0,0.0,0.0,0.0,0.0,0.0,0.0,0.0,0.0,0.0,0.0,0.0,0.0,0.0,0.0,0.0,0.0,0.0,0.0,0.0,3.0613,3.0831,3.0801,3.0703,0.0,3.0644,3.0508,2.9746,2.9628,0.0,0.0,0.0,0.0,0.0,0.0,0.0,2.9096,2.9704,2.9896,2.9115,2.9034,2.8429,2.6921,2.5837,2.4869,2.4005,2.2726,2.2947,2.5063,2.5476,0.0,0.0,0.0,0.0,0.0,0.0,0.0,0.0,0.0,0.0,0.0,0.0,0.0,0.0,0.0,0.0,0.0,0.0,0.0,0.0,0.0,0.0,0.0,0.0,0.0,0.0,0.0,0.0,0.0,2.0802,2.3038,2.2354,2.4655,2.5939,0.0,0.0,0.0,0.0,0.0,0.0,0.0,0.0,0.0,2.9265,2.9927,3.0625,3.1297,3.2452,3.3235,3.3689,3.4124,3.4546,3.487,3.462,3.4505,3.4447,3.3628,3.2574,3.1264,2.9079,2.8501,2.9,0.0,0.0,0.0,0.0,3.0196,3.0559,3.0283,2.9879,2.9687,3.0775,0.0,0.0,0.0,0.0,0.0,0.0,0.0,0.0,0.0,0.0,3.2225,3.2283,3.2305,3.2305,3.2305,3.2305,3.1914,0.0,3.0644,3.0776,3.0355,0.0,0.0,0.0,0.0,3.022,2.9756,3.0112,3.022,2.9756,2.9382,2.8714,2.7618,2.6642,2.5561,2.4389,2.3871,2.3928,2.4601,2.6005,2.7294,0.0,0.0,0.0,0.0,0.0,0.0,0.0,0.0,0.0,0.0,0.0,0.0,0.0,0.0,0.0,0.0,0.0,0.0,0.0,0.0,0.0,0.0,0.0,0.0,0.0,0.0,0.0,0.0,2.2939,2.4217,2.2932,2.5402,2.6898,0.0,0.0,0.0,0.0,0.0,0.0,3.0784,3.0545,3.0962,3.2284,3.3128,3.3679,3.3927,3.4735,3.5585,3.648,3.6331,3.6826,3.7894,3.7531,3.7252,3.6988,3.6397,3.5652,3.4634,3.1872,3.0125,2.928,3.0333,3.0859,3.1121,3.1775,3.216,3.2391,3.2776,3.2506,3.2045,3.2275,3.191,3.1333,3.1121,0.0,0.0,0.0,0.0,3.2687,3.3175,3.3691,3.4121,3.4336,3.4238,3.4121,3.4355,3.4394,3.3769,0.0,3.168,3.1875,3.1328,0.0,0.0,0.0,0.0,3.0943,3.0676,3.0681,3.0713,3.0637,2.9925,2.9079,2.8176,2.7391,2.6283,2.4707,2.4861,2.4812,2.4409,2.6236,2.74,2.7651,0.0,0.0,0.0,0.0,0.0,0.0,0.0,0.0,0.0,0.0,0.0,0.0,0.0,0.0,0.0,0.0,0.0,0.0,0.0,0.0,0.0,0.0,0.0,0.0,0.0,0.0,0.0,0.0,0.0,2.2659,2.5929,0.0,0.0,0.0,0.0,3.1571,3.2148,3.3028,3.4373,3.4185,3.4256,3.4804,3.5669,3.6115,3.6133,3.6948,3.7504,3.783,3.8869,3.915,3.875,3.9035,3.8712,3.7928,3.789,3.7382,3.6323,3.2993,3.205,3.2583,3.1904,3.2097,3.2776,3.2814,3.3353,3.3949,3.316,3.2872,3.2987,3.3814,3.4026,3.3853,3.3026,3.2776,0.0,0.0,3.3005,3.4199,3.348,3.4574,3.6074,3.6914,3.6465,3.6094,3.6934,3.7109,3.6113,0.0,3.2168,3.2187,3.2148,0.0,3.1837,3.1826,3.2378,3.2417,3.1393,3.1481,3.154,3.1278,3.0752,2.9809,2.8234,2.7994,2.7225,2.5562,2.462,2.4485,2.5207,2.5428,2.5918,2.6745,2.8599,0.0,0.0,0.0,0.0,0.0,0.0,0.0,0.0,0.0,0.0,0.0,0.0,0.0,0.0,0.0,0.0,0.0,0.0,0.0,0.0,0.0,0.0,0.0,0.0,0.0,0.0,0.0,0.0,2.6666,2.9065,0.0,3.0371,3.1032,3.2271,3.4194,3.4291,3.542,3.8048,3.7717,3.7998,3.9202,3.9344,3.9498,3.9731,4.001,4.0265,4.0534,4.0654,4.0884,4.1174,4.0412,4.0219,4.0392,3.9304,3.867,3.8243,3.6479,3.496,3.3653,3.2795,3.2981,3.3795,3.4372,3.5103,3.5834,3.6103,3.5815,3.5315,3.5103,3.5064,3.5026,3.468,3.4584,3.4526,3.4315,3.4739,3.5221,3.5034,3.548,3.6074,3.6387,3.623,3.623,3.7109,3.7305,3.7109,3.6445,3.541,3.4297,3.3164,3.2845,3.2729,3.2744,3.2827,3.275,3.239,3.1969,3.1655,3.1571,3.0912,3.0072,2.8977,2.8333,2.7518,2.641,2.5418,2.5005,2.5284,2.587,2.6351,2.6766,2.7966,2.8916,0.0,0.0,0.0,0.0,0.0,0.0,0.0,0.0,0.0,0.0,0.0,0.0,0.0,0.0,0.0,0.0,0.0,0.0,0.0,0.0,0.0,0.0,0.0,0.0,0.0,0.0,2.8858,3.0029,3.1761,3.3116,3.3788,3.3993,3.4976,3.7194,3.7351,3.848,4.1032,4.0791,4.0963,4.1791,4.1632,4.148,4.1425,4.1425,4.1604,4.1843,4.1659,4.1916,4.2505,4.1739,4.1681,4.2156,4.0739,4.0142,4.0046,3.89,3.744,3.5825,3.496,3.4974,3.5584,3.6469,3.7123,3.7661,3.8238,3.7892,3.7123,3.6584,3.6449,3.6469,3.6416,3.6166,3.593,3.6001,3.6091,3.6098,3.593,3.6172,3.6445,3.6445,3.6211,3.6328,3.748,3.7734,3.791,3.8496,3.7676,3.6504,3.5351,3.478,3.457,3.4885,3.4268,3.3891,3.416,3.2968,3.2102,3.2102,3.116,3.0211,2.9376,2.8782,2.7991,2.6882,2.613,2.561,2.5303,2.6149,2.6679,2.6754,2.796,2.9057,3.0039,0.0,0.0,0.0,0.0,0.0,0.0,0.0,0.0,0.0,0.0,0.0,0.0,0.0,0.0,0.0,0.0,0.0,0.0,0.0,0.0,0.0,0.0,0.0,2.5304,2.8013,3.0581,3.24,3.3819,3.5329,3.7051,3.7931,3.9057,4.0617,4.145,4.2311,4.3308,4.335,4.3038,4.2396,4.2368,4.1988,4.1209,4.1209,4.1387,4.1693,4.2001,4.2324,4.2693,4.2979,4.3111,4.3085,4.2194,4.1805,4.1671,4.0019,3.935,3.9292,3.8373,3.8012,3.8142,3.8988,3.9315,3.9335,3.9335,3.8869,3.8286,3.8286,3.8272,3.8277,3.8296,3.7589,3.6853,3.6954,3.7041,3.6919,3.6172,3.664,3.7344,3.7344,3.6699,3.6543,3.8262,3.8633,3.8652,3.8672,3.8672,3.8652,3.8613,3.7714,3.7294,3.8136,3.668,0.0,3.6565,3.4487,3.2949,3.2949,3.1583,3.0326,2.9454,2.9427,2.8708,2.6998,2.6688,2.6236,2.5399,2.6226,2.6706,2.6745,2.8567,2.9941,3.0859,0.0,0.0,0.0,0.0,0.0,0.0,0.0,0.0,0.0,0.0,0.0,0.0,0.0,0.0,0.0,0.0,0.0,0.0,0.0,0.0,0.0,0.0,2.7203,2.823,3.0537,3.2876,3.4864,3.6851,3.8552,3.9814,4.0527,4.1651,4.3436,4.3605,4.3904,4.4566,4.4372,4.4171,4.3981,4.3669,4.3587,4.3642,4.3642,4.3688,4.377,4.3463,4.371,4.4378,4.3515,4.3419,4.3895,4.2431,4.1813,4.1736,4.062,4.0527,4.0912,3.8815,3.8392,3.8969,3.92,3.9662,4.0162,4.0162,4.0138,4.0081,4.0023,4.005,4.0081,4.002,3.9738,3.9335,3.8796,3.8753,3.8685,3.7871,3.7931,3.8242,3.8242,3.8066,3.8184,3.9297,3.9531,3.9726,4.0351,4.0488,4.0078,3.8828,3.7714,3.7089,3.7321,3.6309,0.0,3.5815,3.468,3.3833,3.3833,3.3024,3.2125,3.1255,3.0678,2.9865,2.8756,2.736,2.6774,2.7178,2.6832,2.6967,2.7698,2.8899,2.9648,0.0,0.0,0.0,0.0,0.0,0.0,0.0,0.0,0.0,0.0,0.0,0.0,0.0,0.0,0.0,0.0,0.0,0.0,0.0,0.0,0.0,0.0,2.8244,3.0386,3.234,3.3705,3.5405,3.7852,3.9557,4.1039,4.2334,4.3144,4.4148,4.5526,4.5468,4.5381,4.5404,4.5032,4.4678,4.4359,4.4139,4.4199,4.4589,4.4438,4.4502,4.4818,4.4474,4.4684,4.5278,4.4493,4.4397,4.4761,4.3431,4.2662,4.2277,4.1393,4.1123,0.0,0.0,0.0,0.0,0.0,4.0412,4.0489,4.0489,4.087,4.1281,4.0881,4.1024,4.1265,4.0853,4.0389,3.9892,3.9431,3.9138,3.8871,3.8416,3.8404,3.8535,3.8594,3.8594,3.8848,3.9707,3.9902,4.0156,4.1035,4.1191,0.0,3.9375,3.8241,3.768,3.8035,3.6612,3.5622,3.5968,3.4949,3.4064,3.368,3.307,3.229,3.1395,3.0919,0.0,0.0,0.0,2.7871,2.8371,2.7909,0.0,0.0,0.0,3.0029,3.0156,0.0,0.0,0.0,3.0723,3.062,0.0,0.0,0.0,0.0,0.0,0.0,0.0,0.0,0.0,0.0,0.0,0.0,0.0,0.0,0.0,0.0,3.1654,3.3667,3.6844,3.7304,3.8235,4.0817,4.1944,4.305,4.4504,4.5564,4.6397,4.7005,4.699,4.6623,4.5829,0.0,0.0,0.0,0.0,4.4279,4.4707,4.4322,4.4455,4.5163,4.5163,4.5316,4.5586,4.5586,4.5586,4.5547,4.4682,4.3893,4.3162,4.2297,4.1546,4.0969,4.147,4.22,4.2854,4.197,4.1162,4.0489,4.0489,0.0,0.0,4.1053,4.1326,4.1818,4.1026,4.0158,3.9431,3.9431,3.8931,3.8425,3.8548,3.8631,3.8711,3.8848,3.8887,3.9101,3.9883,4.0059,4.0273,4.1055,4.1191,4.0917,4.0034,3.9009,3.8524,3.9219,3.7126,3.5757,3.6469,3.5276,3.4007,3.3141,0.0,0.0,3.0721,3.0708,3.0354,2.9413,2.9275,2.9198,2.9102,2.9179,2.966,3.0583,3.0607,3.0708,3.0898,3.0898,3.0898,3.0898,3.0762,3.0673,0.0,0.0,0.0,0.0,0.0,0.0,0.0,0.0,0.0,0.0,0.0,0.0,0.0,0.0,0.0,3.2213,3.4239,3.6364,3.9335,4.0824,4.1659,4.1874,4.3694,4.5086,4.5506,4.6843,4.7773,4.801,4.763,4.6935,4.5848,4.5715,4.5284,4.4504,4.4495,4.4787,4.5398,4.5074,4.5105,4.549,0.0,0.0,4.5586,4.5586,4.5586,4.5547,4.4682,4.4201,4.3989,4.3181,4.3124,4.3374,4.1489,4.1277,4.195,4.1066,4.0642,4.0489,4.0489,4.0735,4.1022,4.084,4.0918,4.1012,4.0853,4.0562,0.0,4.0258,4.0219,4.0211,4.0226,4.0363,4.0508,4.0527,4.0625,4.0742,4.0918,4.0957,4.0996,4.1172,4.1191,4.0884,3.9908,3.8935,3.8127,3.7578,3.6348,3.5565,3.5718,3.5449,3.4911,3.4045,3.3994,3.3335,3.1694,3.1605,3.124,3.0314,3.0198,2.9833,2.9121,2.9775,3.0294,3.0583,3.0607,3.0708,3.0898,3.0898,3.0898,3.0898,3.0762,3.0681,0.0,0.0,0.0,0.0,0.0,0.0,0.0,0.0,0.0,0.0,0.0,2.5164,0.0,0.0,3.155,3.4957,3.6563,3.8213,4.0581,4.209,4.31,4.3321,4.459,4.5519,4.5665,4.7232,4.8202,4.8203,4.7799,4.7233,4.6475,4.566,4.4823,4.3995,4.4361,4.4707,4.4938,4.5054,4.5266,4.5586,4.5586,4.5586,4.5586,4.5586,4.5586,4.5566,4.5143,4.4701,4.4239,4.3431,4.3566,4.4124,4.245,4.2316,4.2951,4.2104,4.1527,4.1143,4.1143,4.1254,4.1407,4.1401,4.1683,4.1841,4.1007,4.0947,4.1066,4.0623,4.0562,4.062,4.0677,4.08,4.0929,4.0973,4.1094,4.1191,4.1191,4.1191,4.1191,4.1191,4.1191,4.0873,3.987,3.9277,3.8493,3.7153,3.6117,3.5493,3.5493,3.5493,3.518,3.4295,3.3981,3.3287,3.192,3.143,3.0979,3.0487,3.0417,3.0198,2.9775,3.0179,3.0467,3.0602,3.0607,3.0708,3.0898,3.0898,3.0898,3.0898,3.082,3.0758,0.0,0.0,0.0,0.0,0.0,0.0,0.0,0.0,2.0954,2.403,2.5893,2.8104,3.1644,3.2929,3.4471,3.7629,3.8573,3.9561,4.1435,4.2505,4.3342,4.4008,4.4922,4.5552,4.5706,4.7261,4.8221,4.8106,4.7728,4.7296,4.6892,4.5582,4.4372,4.3328,4.4197,4.457,4.4297,4.4842,4.5282,4.5586,4.5586,4.5509,4.5336,4.5509,4.5509,4.5355,4.5528,4.5201,4.4489,4.3855,4.397,4.4489,4.3835,4.397,4.4412,4.3278,4.2412,4.1777,4.1604,4.1639,4.1744,4.1744,4.2182,4.2464,4.1101,4.1085,4.1393,4.07,4.0489,4.0508,4.0639,4.0716,4.081,4.0922,4.1053,4.1172,4.1191,4.1191,4.1191,4.1191,4.1185,4.0847,3.9844,3.9605,3.9013,3.7382,3.6329,3.5738,3.5738,3.5603,3.518,3.4295,3.3757,3.3014,3.1932,3.1176,3.066,3.0417,3.0398,3.0398,3.0398,3.0398,3.0467,3.0602,3.0607,3.0708,3.0898,3.0898,3.0898,3.0898,3.0898,3.0799,-0.5875,-0.1811,0.0,0.9477,1.2358,1.4482,0.0,0.0,2.3951,2.6711,2.9252,3.1709,3.4093,3.5538,3.7262,4.0066,4.006,4.0375,4.2424,4.2758,4.2653,4.2341,4.4599,4.6211,4.623,4.7357,4.8125,4.8105,4.7467,4.6747,4.5995,4.576,4.4949,4.3347,4.4417,4.4801,4.4297,4.4842,4.5282,4.5586,4.5586,4.5182,4.447,4.524,4.5182,4.4489,4.5259,4.5528,4.5451,4.5355,4.5355,4.5451,4.5355,4.5374,4.5163,4.2816,4.1893,4.17,4.0912,4.0723,4.0857,4.0862,4.092,4.0947,4.0754,4.0677,4.0623,4.0527,4.0489,4.0489,4.0508,4.062,4.0723,4.0796,4.0929,4.1055,4.1172,4.1191,4.1191,4.1191,4.1108,4.072,3.9772,3.9514,3.908,3.8123,3.718,3.6584,3.6584,3.5949,3.518,3.4295,3.4301,3.3713,3.2104,3.1792,3.1318,3.0544,3.0417,3.0398,3.0398,3.0398,3.0467,3.0602,3.0607,3.0708,3.0898,3.0898,3.0898,3.0898,3.0898,3.0825,-0.0115,0.0,0.0,0.0,1.5155,1.7796,2.1046,2.4238,2.7312,3.0048,3.2095,3.4182,3.6801,3.7742,3.873,0.0,4.0463,4.0543,4.2188,4.1622,4.1019,4.0944,4.2267,4.3615,4.4789,4.5956,4.6762,4.7026,4.6581,4.6145,4.5833,4.5143,4.4409,4.3615,4.4369,4.4566,4.402,4.4741,4.518,4.5322,4.4976,4.4913,4.5047,4.4913,4.4913,4.5066,4.5432,4.5586,4.5586,4.5586,4.5297,4.4836,4.4836,4.4547,4.4066,4.347,4.297,4.2508,4.2143,4.1393,4.0665,4.1181,4.1335,4.1239,4.0754,4.0893,4.1143,4.0642,4.0489,4.0489,4.0489,4.06,4.0723,4.0765,4.0902,4.1035,4.1172,4.1191,4.1191,4.1191,4.114,4.0945,4.0394,4.026,4.0042,3.9565,3.8334,3.7276,3.6776,3.6411,3.5705,3.4403,3.4403,3.4003,3.2809,3.2221,3.1741,3.1284,3.0737,3.0448,3.0398,3.0398,3.0467,3.0602,3.0607,3.0708,3.0898,3.0898,3.0898,3.0898,3.0898,3.081,0.6357,0.0,0.0,1.498,1.7575,2.0795,2.4047,2.6888,2.9622,3.2384,3.3618,3.4941,3.7635,3.7953,3.8539,4.0606,4.032,4.0392,4.1931,4.0888,4.0001,4.0,4.0233,4.112,4.2908,4.4018,4.4995,4.59,4.5426,4.5229,4.5474,4.472,4.4139,4.3795,4.4393,4.4431,4.3817,4.4658,4.5096,4.5096,4.4805,4.4855,4.522,4.4836,4.4989,4.5605,4.5855,4.5817,4.5586,4.5586,4.5086,4.4297,4.4297,4.3932,4.3508,4.4085,4.3797,4.3049,4.2729,4.1843,4.0896,4.1107,4.126,4.1198,4.0457,4.0689,4.1052,4.0421,4.0401,4.0553,4.043,4.0639,4.0847,4.0796,4.1041,4.1261,4.1171,4.1348,4.1465,4.123,4.1172,4.1085,4.0886,4.0812,4.0716,4.0581,3.9488,3.8373,3.7526,3.7219,3.6531,3.5166,3.5104,3.4736,3.3646,3.3023,3.2543,3.2213,3.1369,3.0864,3.0814,3.0583,3.0506,3.0621,3.0625,3.0716,3.0898,3.0898,3.0898,3.0898,3.0898,3.0786,0.0,0.0,1.3672,1.6427,1.9295,2.2261,2.5437,2.7809,3.0176,3.311,3.3185,3.3426,3.5508,3.5363,3.6097,3.9638,3.9627,3.9844,4.2002,4.1251,4.0199,3.9512,3.9258,3.9649,0.0,4.1728,4.3019,4.4979,4.4042,4.3737,4.458,4.4915,4.4674,4.3836,4.4636,4.4655,4.3817,4.4658,4.5096,4.5096,4.5419,4.5124,4.4374,4.5182,4.5566,4.5643,4.649,4.6374,4.5586,4.5586,4.5086,4.4297,4.4297,4.4297,4.4259,4.4297,4.3797,4.2917,4.1762,4.1531,4.1539,4.0125,3.9897,4.008,3.9731,3.9641,3.966,3.9622,4.0184,4.0707,4.0232,4.0692,4.1189,4.0787,4.1404,4.1877,4.1168,4.1719,4.2129,4.1348,4.1094,4.1007,4.1001,4.0831,4.0696,4.0696,4.0543,4.0123,3.9315,3.8469,3.7676,3.6901,3.6818,3.6173,3.46,3.4443,3.406,3.3202,3.2329,3.185,3.185,3.1037,3.0621,3.0698,3.0691,3.075,3.0898,3.0898,3.0898,3.0898,3.0898,3.0786,1.4106,0.0,1.8482,2.1002,2.3749,2.6465,2.8962,3.087,3.205,3.1759,3.2245,3.2654,3.2542,3.3072,3.4374,3.6896,3.7959,3.8969,4.0634,4.1292,4.0873,3.8841,3.939,0.0,0.0,0.0,0.0,4.3791,4.3729,4.3914,4.4568,4.4919,4.5067,4.4997,4.4836,4.4721,4.4677,4.4721,4.4872,4.5096,4.5438,4.5451,4.5163,4.547,4.6201,4.7201,4.6394,4.6201,4.6413,4.5836,4.5086,4.4297,4.4297,4.348,4.2374,4.2967,4.2868,4.2414,4.2216,4.1698,4.0962,3.9932,3.9668,3.9754,3.9622,3.9599,3.9712,4.0255,4.0594,4.0877,4.1279,4.1345,4.1418,4.1918,4.2035,4.2167,4.2626,4.2969,4.3125,4.2891,4.2363,4.189,4.1752,4.1188,4.0715,4.0592,4.0065,3.9604,3.9335,3.8546,3.7719,3.6988,3.6901,3.6459,3.5388,3.4807,3.4367,3.4077,3.3233,3.2504,3.1911,3.1612,3.1486,3.1561,3.1549,3.1883,3.2559,3.2012,3.1758,3.1758,3.1758,3.1643,1.6895,1.9422,2.2165,2.4779,2.7216,2.9384,3.0888,3.167,3.1575,2.9733,2.9594,2.9524,2.8601,2.9265,3.0865,3.3656,3.4892,3.6535,3.9407,4.0222,4.0388,3.9946,4.0369,4.063,0.0,0.0,0.0,4.3058,4.3843,4.4486,4.5002,4.5182,4.5649,4.6471,4.5646,4.5466,4.5974,4.5466,4.5228,4.5263,4.5495,4.5586,4.5605,4.5913,4.6471,4.7163,4.6394,4.6201,4.6394,4.5817,4.5013,4.4096,4.3789,4.2814,4.1651,4.2224,4.2399,4.2295,4.194,4.1581,4.1035,3.9727,3.9333,3.9389,3.9301,3.9481,3.981,4.0333,4.0886,4.1417,4.1777,4.1845,4.198,4.2508,4.267,4.2855,4.3342,4.3769,4.3867,4.3301,4.2772,4.2246,4.1789,4.1177,4.0703,4.0534,4.0046,3.9719,3.9719,3.9238,3.8488,3.7397,3.7291,3.6829,3.5718,3.5185,3.4886,3.4898,3.4142,3.3455,3.2888,3.2592,3.246,3.2497,3.2489,3.281,3.3398,3.2871,3.2637,3.2637,3.2637,3.2539,2.0874,2.2911,2.4714,2.7661,2.9651,3.1012,3.1123,3.0348,2.9001,2.71,2.557,2.4426,0.0,0.0,2.5973,3.0051,3.0891,3.2881,3.8286,3.8372,3.911,0.0,0.0,0.0,0.0,0.0,0.0,4.2917,0.0,4.5274,4.5757,4.5721,4.6413,4.8048,4.6966,4.6759,4.7621,4.6762,4.6087,4.5586,4.5586,4.5605,4.5682,4.649,4.6432,4.5759,4.6509,4.6394,4.5663,4.5605,4.4882,4.3721,4.298,4.2465,4.2084,4.2121,4.2385,4.2489,4.0905,4.1143,4.175,3.9483,3.8976,3.9166,3.8902,3.935,3.9955,4.001,4.1111,4.222,4.1802,4.2244,4.2753,4.2614,4.3312,4.3857,4.3415,4.4128,4.4373,4.2792,4.2458,4.2152,4.1212,4.085,4.0658,4.0508,4.0489,4.0489,4.0489,4.0489,3.9873,3.8257,3.8065,3.7392,3.5718,3.5641,3.5641,3.5603,3.5007,3.4628,3.4609,3.3867,3.3457,3.3457,3.3457,3.3476,3.3515,3.3476,3.3457,3.3457,3.3456,3.3389,2.234,2.5385,2.8132,3.0353,3.2061,3.2763,3.1145,2.9842,2.8049,2.4558,2.3578,2.3017,0.0,0.0,0.0,2.7683,3.0423,0.0,3.6491,3.9723,0.0,4.1921,0.0,4.3901,4.3379,4.4665,0.0,0.0,4.4176,4.4619,4.5738,4.6294,4.7048,4.8067,4.7561,4.7499,4.7972,4.7165,4.6358,4.5586,4.5586,4.5932,4.6547,4.6124,4.649,4.7413,4.6374,4.6163,4.6491,4.559,4.4704,4.3876,4.4033,4.3133,4.18,4.2399,4.2158,4.1383,4.04,4.1015,4.197,4.0165,4.0037,4.0578,4.0519,4.0634,4.0928,4.1515,4.1974,4.2411,4.2879,4.2902,4.2936,4.3503,4.3734,4.4019,4.4647,4.5186,4.5425,4.5071,4.392,4.2733,4.1889,4.1066,4.0543,4.0508,4.0489,4.0489,4.0489,4.0489,4.0162,3.9281,3.9065,3.833,3.6747,3.6502,3.6199,3.5641,3.5446,3.5105,3.455,3.4335,3.4218,3.4218,3.4267,3.4562,3.512,3.4601,3.4326,3.4218,3.4262,3.4193,2.4501,2.7661,3.0263,3.2339,3.3564,3.3651,3.1485,2.9159,2.6491,2.316,2.2214,0.0,0.0,0.0,0.0,0.0,0.0,0.0,3.3903,3.7512,4.0295,0.0,4.3833,0.0,4.4724,4.5972,4.6168,0.0,4.535,4.6064,4.6852,4.7057,4.7798,4.9202,4.8515,4.822,4.8409,4.7761,4.7009,4.6163,4.5778,4.5855,4.6317,4.5817,4.6105,4.6951,0.0,4.5801,4.6032,4.501,4.4315,4.3901,4.345,4.2716,4.1971,4.2415,4.2184,4.157,4.1111,4.1772,4.2488,4.0524,4.0451,4.1111,4.1111,4.1368,4.1735,4.2176,4.2543,4.2928,4.3369,4.3299,4.3267,4.3862,4.3942,4.4083,4.4848,4.5304,4.5555,4.5396,4.3912,4.2524,4.2085,4.1162,4.0489,4.0489,4.0489,4.0489,4.0489,4.0489,4.0239,3.9531,3.9373,3.8792,3.7541,3.6969,3.6526,3.6122,3.5776,3.5412,3.5001,3.5001,3.502,3.502,3.5053,3.5295,3.5703,3.5314,3.5094,3.5035,3.5068,3.4999,2.6269,2.9256,3.1415,3.354,3.407,3.3597,3.1559,2.8091,2.466,2.2299,0.0,2.025,1.8732,1.9812,2.131,2.2604,0.0,2.6207,3.1204,3.3721,3.6783,4.1439,4.3534,4.491,4.5839,4.6452,4.6286,4.4966,4.6731,4.7956,4.8136,4.784,4.8528,5.0393,4.9436,4.8743,4.8467,4.8124,4.7528,4.6721,4.5951,4.5586,4.5586,4.5586,4.5586,4.5586,4.555,4.5362,4.5039,4.4252,4.3819,4.3569,4.2348,4.1977,4.2176,4.2378,4.2396,4.2304,4.2304,4.2763,4.2983,4.0891,4.0763,4.1423,4.1423,4.1919,4.2451,4.2451,4.2947,4.3497,4.3497,4.3497,4.3563,4.3849,4.3986,4.4125,4.4578,4.5071,4.5264,4.4786,4.3304,4.2126,4.2091,4.1204,4.0489,4.0489,4.0489,4.0489,4.0489,4.0489,4.0239,3.9546,3.9469,3.9104,3.8257,3.7488,3.7007,3.6892,3.6276,3.593,3.593,3.5853,3.5834,3.5834,3.5738,3.5666,3.5667,3.5685,3.5697,3.5659,3.5685,3.5661,2.4512,2.8175,3.126,3.2449,3.2566,3.1806,2.9566,2.6112,0.0,0.0,2.0527,2.0202,2.0325,2.0961,0.0,2.3572,0.0,0.0,0.0,0.0,3.4936,0.0,0.0,0.0,0.0,0.0,0.0,0.0,0.0,4.6583,4.7286,4.8112,4.8781,4.9217,4.9254,4.8466,4.6759,4.6973,4.6682,4.5817,4.5663,4.5586,4.5586,4.5586,4.5586,4.5586,4.5302,0.0,4.5033,4.4285,4.3212,4.2098,4.2862,4.2408,4.1479,4.28,4.2873,4.2304,4.2304,4.2396,4.2433,4.2011,4.2433,4.3075,4.3075,4.3167,4.3277,4.3277,4.3387,4.3497,4.3497,4.3497,4.3513,4.3563,4.3804,4.4184,4.4946,4.5647,4.5818,4.4806,4.3673,4.2787,4.247,4.1336,4.0489,4.0489,4.0489,4.0489,4.0489,4.0489,4.0504,4.0466,4.0369,3.9985,3.9215,3.8984,3.8546,3.7815,3.7642,3.7584,3.7584,3.6911,3.6526,3.6526,3.593,3.5592,3.554,3.5649,3.563,3.5528,3.5592,3.5584,2.5169,2.8605,3.1036,3.1196,3.1079,3.0284,2.7995,0.0,0.0,0.0,2.0584,2.0466,2.0743,0.0,0.0,0.0,0.0,0.0,0.0,0.0,0.0,0.0,0.0,0.0,0.0,0.0,0.0,0.0,0.0,4.6231,4.7032,4.7914,4.8362,4.8185,4.8527,4.8124,4.6946,4.6915,4.6701,4.6278,4.5817,4.5586,4.5586,4.5586,4.5513,4.5322,4.518,4.4877,4.4471,4.3708,4.3058,4.2599,4.2809,4.2653,4.2433,4.3222,4.3259,4.291,4.291,4.291,4.291,4.291,4.3185,4.3497,4.3497,4.3497,4.3497,4.3497,4.3497,4.3589,4.4011,4.4121,4.4283,4.4924,4.4859,4.468,4.4594,4.4852,4.5006,4.4655,4.3637,4.2738,4.2522,4.1395,4.0489,4.0489,4.0489,4.0489,4.0489,4.0489,4.0508,4.06,4.0543,4.0369,4.0004,3.9561,3.9123,3.87,3.8257,3.8007,3.8007,3.7161,3.6911,3.7373,3.618,3.5968,3.6796,3.6411,3.643,3.6796,3.6834,3.6834,2.5212,2.8196,3.0226,2.9833,2.9421,2.8546,2.6603,2.3811,0.0,0.0,2.0696,2.0845,2.0979,0.0,0.0,0.0,0.0,0.0,0.0,0.0,0.0,0.0,0.0,0.0,0.0,0.0,0.0,0.0,0.0,4.5941,4.6967,4.7624,4.7757,4.7247,4.7644,4.7568,4.6999,4.6743,4.6624,4.6605,4.5932,4.5586,4.5586,4.5586,4.5419,4.5096,4.5011,4.4612,4.396,4.3237,4.3074,4.3185,4.2745,4.2837,4.3259,4.3424,4.3497,4.3497,4.3497,4.3497,4.3497,4.3497,4.3497,4.3497,4.3497,4.3497,4.3497,4.3497,4.3497,4.3681,4.4488,4.4709,4.498,4.6206,4.6134,4.5575,4.4724,4.4538,4.4573,4.4701,4.3663,4.2768,4.2768,4.1682,4.0777,4.0777,4.0623,4.0566,4.0739,4.0777,4.0854,4.1027,4.0719,4.0489,4.0489,3.9912,3.9546,3.9546,3.8911,3.8546,3.8546,3.7719,3.7584,3.8277,3.6796,3.668,3.8007,3.7315,3.7334,3.8007,3.8007,3.8007,2.1724,2.4794,2.8012,2.8405,2.7242,2.59,2.5474,0.0,0.0,1.994,2.0307,2.0979,2.152,2.1649,2.2108,2.3231,2.2497,2.2522,0.0,0.0,0.0,0.0,0.0,0.0,0.0,0.0,0.0,0.0,0.0,4.5006,4.6891,4.7419,4.7258,4.6431,4.68,4.6455,4.5325,4.5573,4.572,4.572,4.5624,4.5586,4.5586,4.5586,4.5419,4.5074,4.4776,4.4401,0.0,4.3586,4.3018,4.2488,4.313,4.2983,4.2506,4.3222,4.3497,4.3497,4.3497,4.3497,4.3497,4.3497,4.3497,4.3497,4.3497,4.3497,4.3497,4.3497,4.3497,4.3681,4.4488,4.4709,4.498,4.6206,4.701,4.7239,4.6438,4.6201,4.5959,4.5277,4.4341,4.3683,4.3683,4.2564,4.1681,4.1681,4.1008,4.0777,4.1585,4.1681,4.1989,4.2777,4.1431,4.0489,4.0489,4.0431,4.0392,4.0392,4.0296,4.0258,4.0258,3.9488,3.9104,3.9181,3.8257,3.7853,3.8007,3.7911,3.7911,3.8007,3.8007,3.8007,2.2428,2.4913,2.6996,2.6301,2.5002,2.3847,2.3269,0.0,1.9606,1.9709,1.9978,2.0396,2.1015,2.1161,2.1423,2.2281,2.1987,2.2076,0.0,0.0,0.0,0.0,0.0,0.0,0.0,0.0,0.0,0.0,0.0,4.2681,4.369,4.5223,4.5687,4.4829,4.5151,4.4997,4.4334,4.4652,4.4976,4.5302,4.5495,4.5874,4.6374,4.563,4.5385,4.5458,4.4607,4.4016,0.0,4.3548,4.3296,4.3039,4.3369,4.3296,4.3057,4.3369,4.3497,4.3497,4.3497,4.3497,4.3497,4.3497,4.3497,4.3497,4.3497,4.3828,4.4121,4.3626,4.4195,4.5073,4.5626,4.6856,4.7909,4.7634,4.783,4.777,4.6738,4.6065,4.5568,4.5252,4.4429,4.3798,4.3798,4.312,4.2585,4.2585,4.2297,4.2181,4.2547,4.2585,4.272,4.3066,4.247,4.2066,4.2066,4.2066,4.1835,4.1316,4.1277,4.1046,4.0508,3.9719,3.9527,4.0008,3.8681,3.8507,3.9488,3.9008,3.9027,3.9488,3.9488,3.9488,2.237,2.4145,2.5145,2.4065,2.3069,2.2048,0.0,0.0,1.9044,1.915,1.9475,1.9991,2.0594,2.0904,2.1355,2.2132,2.2132,2.2179,2.2636,0.0,0.0,0.0,0.0,0.0,0.0,0.0,0.0,0.0,0.0,4.1038,4.1438,4.3107,4.387,4.3476,4.3675,4.3732,4.3578,4.3732,4.4116,4.4715,4.4959,4.5496,4.6183,4.5447,4.5176,4.5228,4.436,4.3804,0.0,4.3497,4.3497,4.3497,4.3497,4.3497,4.3497,4.3497,4.3644,4.3846,4.3846,4.4011,4.4158,4.392,4.3846,4.3809,4.3552,4.3901,4.4287,4.3956,4.5002,4.6323,4.662,4.8273,4.9675,4.871,4.8578,4.8409,4.7559,4.6421,4.5624,4.5846,4.4959,4.4221,4.4324,4.3827,4.3451,4.3451,4.3258,4.3181,4.3412,4.3451,4.3547,4.3816,4.3835,4.3643,4.3143,4.3104,4.2835,4.222,4.2181,4.1912,4.1277,4.0719,4.0566,4.0873,3.9738,3.97,4.0873,4.0046,4.0065,4.0873,4.0623,4.0489,2.0516,2.125,2.1935,2.2004,2.146,2.0643,0.0,1.9543,1.9371,1.7907,1.8768,1.9965,2.0489,2.1212,2.2132,2.3363,2.3054,2.2879,2.3402,0.0,0.0,0.0,0.0,0.0,0.0,0.0,0.0,0.0,0.0,0.0,4.1079,4.1456,4.1938,4.26,4.262,4.2795,4.3104,4.2776,4.302,4.3817,4.3878,4.4167,4.4624,4.4943,4.4688,4.4016,4.4016,4.3804,0.0,4.3497,4.3497,4.3497,4.3497,4.3497,4.3497,4.3497,4.3993,4.469,4.469,4.5223,4.5736,4.4947,4.469,4.4544,4.3736,4.3497,4.3663,4.447,4.5865,4.7113,4.7095,4.8282,4.9416,4.8978,4.9184,4.9485,4.9485,4.7859,4.6588,4.7333,4.618,4.5182,4.5531,4.4855,4.4297,4.4297,4.3605,4.3393,4.4182,4.4297,4.4624,4.547,4.5566,4.4893,4.3239,4.3104,4.3104,4.3085,4.3085,4.3085,4.3066,4.3066,4.2662,4.1797,4.1777,4.1777,4.1777,4.0912,4.0931,4.1777,4.0893,4.0489,2.0681,2.1408,2.1945,2.1685,2.0804,1.9972,1.9817,1.9018,1.8286,1.8328,1.8715,1.8976,1.8806,2.001,2.1075,2.1139,2.203,2.2615,0.0,0.0,0.0,0.0,0.0,0.0,0.0,0.0,0.0,0.0,3.8384,3.8894,3.9428,3.9547,4.0151,4.134,4.1601,4.1761,4.1858,4.1989,4.224,4.265,4.3447,4.4106,4.4594,4.4428,4.4551,4.4848,4.4031,4.3726,4.3818,4.3597,4.3664,4.3836,4.3597,4.3497,4.3552,4.4121,4.4121,4.403,4.5149,4.5333,4.5131,4.5424,4.5516,4.5461,4.5223,4.4764,4.4599,4.5975,4.6891,4.7652,4.819,4.9138,4.9898,4.9746,4.9827,4.9924,4.9924,4.8927,4.8105,4.8324,4.7272,4.6359,4.6472,4.5759,4.5182,4.5182,4.547,4.5566,4.522,4.5701,4.5951,4.5624,4.5586,4.5374,4.4855,4.4797,4.4547,4.3951,4.3912,4.3662,4.3124,4.3104,4.297,4.2701,4.2701,4.2701,4.2701,4.1816,4.1219,4.0893,4.0623,4.0489,0.0,2.091,2.1255,2.1259,2.0527,0.0,0.0,1.9112,1.8501,1.8661,1.8782,1.8697,1.8333,1.9461,2.0509,2.0699,2.1808,2.2643,0.0,0.0,0.0,0.0,0.0,0.0,0.0,0.0,0.0,0.0,3.736,3.7843,3.8382,3.8578,3.9153,4.0134,4.0469,4.0765,4.1016,4.1089,4.1303,4.1612,4.2659,4.3353,4.3755,4.3927,4.4253,4.4578,4.3818,4.3631,0.0,4.3597,4.3612,4.3804,4.3563,4.3497,4.3589,4.4415,4.458,4.458,4.5902,4.603,4.57,4.6195,4.6159,4.5902,4.5902,4.5773,4.5755,4.6452,4.726,4.8027,4.8527,4.9265,4.9827,4.9673,4.9879,5.0092,5.0092,4.9425,4.8762,4.857,4.7914,4.7259,4.6951,4.6701,4.6528,4.6528,4.7009,4.7163,4.6605,4.6759,4.6817,4.6567,4.597,4.5855,4.649,4.5951,4.5509,4.5297,4.497,4.4566,4.4066,4.4047,4.3893,4.3566,4.3547,4.3547,4.3547,4.3008,4.2143,4.0989,4.0989,4.0816,0.0,1.9973,0.0,0.0,0.0,0.0,1.9875,1.9761,0.0,1.8821,1.88,1.8896,1.8907,1.9476,2.0326,2.1701,2.2359,0.0,0.0,0.0,0.0,0.0,0.0,0.0,0.0,0.0,0.0,0.0,3.6882,3.7342,3.7787,3.8314,3.8718,3.9024,3.9327,3.9802,4.0422,4.0195,4.026,4.0696,4.1569,4.2034,4.2158,4.328,4.3675,0.0,4.3406,4.3458,4.3548,4.3513,4.3513,4.3548,4.3513,4.3497,4.3589,4.4415,4.5168,4.5938,4.6819,4.7076,4.704,4.7095,4.6599,4.5993,4.5993,4.6526,4.6966,4.6195,4.7095,4.8306,4.8306,4.8915,4.9416,4.9011,4.9561,5.0159,5.0159,4.9506,4.8793,4.8356,4.824,4.7971,4.7221,4.7663,4.8105,4.8105,4.8144,4.8182,4.8105,4.7509,4.7336,4.8029,4.6701,4.6432,4.8048,4.6663,4.6028,4.6855,4.6144,4.5663,4.5586,4.5586,4.522,4.4412,4.4393,4.4355,4.4297,4.4297,4.347,4.1893,4.1835,4.1393,1.8993,0.0,2.071,2.1323,2.1057,2.064,0.0,1.9697,1.8927,1.8715,0.0,0.0,1.8796,1.9476,2.0326,2.1701,2.2359,0.0,0.0,0.0,0.0,0.0,0.0,0.0,0.0,0.0,0.0,3.6333,3.6539,3.6679,3.6978,3.7345,3.7754,3.8159,3.8498,3.904,3.98,3.9735,3.9647,3.9511,4.0325,4.0643,4.0487,4.1374,4.2073,4.258,4.258,4.3092,4.3849,4.3597,4.3646,4.3849,4.3597,4.3497,4.3589,4.4415,4.4837,4.5204,4.6617,4.6709,4.6287,4.6911,4.6985,4.6838,4.6838,4.6966,4.7076,4.6874,4.7535,4.8306,4.8306,4.8915,4.9475,4.9386,4.9974,5.0565,5.0565,5.0411,5.0219,5.0125,4.9548,4.9029,4.8856,4.8413,4.8105,4.8105,4.8663,4.8856,4.8202,4.8529,4.8625,4.8144,4.7759,4.7932,4.899,4.7567,4.6682,4.6894,4.6721,4.6297,4.5624,4.5586,4.549,4.5297,4.5278,4.497,4.4297,4.4297,4.3778,4.2777,4.2104,4.2047,1.8728,2.0133,2.1384,2.2001,2.1657,2.1197,2.1197,0.0,0.0,0.0,0.0,0.0,0.0,0.0,0.0,0.0,2.2359,0.0,0.0,0.0,0.0,0.0,0.0,0.0,0.0,0.0,0.0,3.6028,3.5939,3.6029,3.631,3.6773,3.7254,3.7692,3.8258,3.8887,3.9599,3.9599,3.9414,3.9099,3.9909,4.0205,4.0122,4.0954,4.1754,4.253,4.253,4.3095,4.3986,4.3646,4.3823,4.4233,4.3849,4.3836,4.4085,4.4698,4.5167,4.5651,4.6746,4.6819,4.6416,4.6122,4.6269,4.6636,4.7003,4.7113,4.7113,4.7113,4.77,4.8326,4.8513,4.9029,4.9551,4.9746,5.0249,5.0702,5.0702,5.0702,5.0567,5.0183,5.0048,4.9875,4.9471,4.9336,4.9298,4.9298,4.9683,4.9817,4.9356,4.9356,4.9375,4.9298,4.8586,4.8606,4.9894,4.8798,4.8048,4.8048,4.7336,4.6701,4.622,4.5797,4.5586,4.5586,4.5586,4.5355,4.4893,4.4893,4.447,4.3643,4.3162,4.3008,1.8536,2.011,2.1598,2.2245,2.1999,2.154,2.1444,0.0,0.0,0.0,0.0,0.0,0.0,0.0,0.0,0.0,0.0,0.0,0.0,0.0,0.0,0.0,0.0,0.0,0.0,3.5345,3.5525,3.5453,3.5287,3.5325,3.5542,3.6146,3.6739,3.7294,3.8022,3.8755,3.9457,3.9457,3.9308,3.9054,3.9779,4.0114,4.0133,4.0915,4.1716,4.243,0.0,0.0,4.38,4.359,4.3899,4.4474,4.4117,4.4204,4.4549,4.4901,4.5531,4.6285,4.6616,4.6819,4.6691,4.5239,4.5312,4.6049,4.693,4.7224,4.7297,4.7353,4.7812,4.8383,4.8813,4.9202,4.9589,4.9999,5.0399,5.0702,5.0702,5.0702,5.0471,4.974,5.0183,5.0471,4.9721,5.0202,5.0702,5.0702,5.0702,5.0702,5.0702,5.0048,4.9875,5.0606,4.9375,4.9086,5.0567,5.001,4.9606,4.9606,4.8144,4.7221,4.7086,4.6374,4.597,4.597,4.597,4.5913,4.5797,4.5797,4.5355,4.4489,4.4355,4.4008,1.7528,1.885,2.033,2.1021,2.106,2.0811,2.0353,0.0,0.0,0.0,0.0,0.0,0.0,0.0,0.0,0.0,0.0,0.0,0.0,0.0,0.0,0.0,0.0,0.0,0.0,3.4316,3.5094,3.4701,3.474,3.4552,3.397,3.4624,3.5462,3.6439,3.6817,3.7608,3.8833,3.8833,3.8803,3.8762,3.9129,3.9285,3.9285,3.9727,4.0183,4.0728,0.0,4.2247,4.3029,4.3369,4.3726,4.4106,4.4028,4.4028,4.4106,4.4177,4.4705,4.5369,4.5125,4.5516,4.5993,4.5338,4.5482,4.6103,4.7284,4.7848,4.818,4.8542,4.8476,4.8383,4.8813,4.9202,4.9589,4.9999,5.0399,5.0702,5.0702,5.0702,5.0644,5.0529,5.0606,5.0644,5.051,5.0606,5.0702,5.0702,5.0702,5.0702,5.0702,5.0567,5.0548,5.0683,5.0452,5.0414,5.0664,5.0567,5.0491,5.0491,4.9567,4.8682,4.7952,4.7798,4.7721,4.7721,4.7721,4.7375,4.6701,4.6701,4.6259,4.5374,4.4643,4.4624,1.7827,1.8536,1.9293,1.9031,1.9876,2.065,2.0117,0.0,0.0,0.0,0.0,0.0,0.0,0.0,0.0,0.0,0.0,0.0,0.0,0.0,0.0,0.0,0.0,0.0,3.2857,3.3911,3.4525,3.4281,3.4169,3.4056,3.3987,3.4342,3.4866,3.5577,3.6152,3.6772,3.7404,3.7826,3.835,3.8923,3.9036,3.9289,3.9645,3.9797,4.014,4.0633,0.0,4.2448,4.3117,4.3829,4.429,4.4594,4.4594,4.4594,4.4674,4.5369,4.5892,4.6223,4.6066,4.6064,4.6067,4.5393,4.519,4.5438,4.6873,4.7467,4.7807,4.8927,4.893,4.8779,4.9386,4.9692,4.9924,5.0336,5.0565,5.0702,5.0702,5.0702,5.0702,5.0702,5.0702,5.0702,5.0702,5.0702,5.0702,5.0702,5.0702,5.0702,5.0702,5.0702,5.0702,5.0702,5.0702,5.0702,5.0702,5.0702,5.0491,5.0029,4.9625,4.9009,4.8144,4.8105,4.7894,4.7471,4.7451,4.7048,4.6201,4.6201,4.599,4.5586,4.5182,4.522,1.7985,1.8276,1.8481,1.7542,0.0,2.0257,1.9682,0.0,0.0,0.0,0.0,0.0,0.0,0.0,0.0,0.0,0.0,0.0,0.0,0.0,0.0,0.0,0.0,3.165,3.3009,3.3653,3.3946,3.3848,3.3723,3.3749,3.4024,3.4196,3.4484,3.4972,3.5661,3.6083,3.6303,3.6959,3.7822,3.8801,3.9085,3.9529,4.0101,4.0158,4.0365,4.0711,4.196,4.2737,4.3194,4.4197,4.48,4.5096,4.5096,4.5211,4.549,4.6403,4.7018,4.7294,4.6728,4.6482,4.6307,4.5562,4.5227,4.5348,4.6944,4.7483,4.789,4.9258,4.9416,4.9307,4.9949,5.0092,5.0183,5.0604,5.0702,5.0702,5.0702,5.0702,5.0702,5.0702,5.0702,5.0702,5.0702,5.0702,5.0702,5.0702,5.0702,5.0702,5.0702,5.0702,5.0702,5.0702,5.0702,5.0702,5.0702,5.0702,5.0414,4.974,4.9702,4.9413,4.874,4.8702,4.8413,4.7798,4.7586,4.7067,4.6182,4.599,4.5797,4.5586,4.5797,4.5797,1.7208,1.772,1.7949,1.7449,1.8248,0.0,1.8427,2.0034,0.0,2.163,0.0,0.0,0.0,0.0,0.0,0.0,0.0,0.0,0.0,0.0,0.0,0.0,3.2807,3.2959,3.2408,3.3149,3.3476,3.3127,3.3517,3.3642,3.3304,3.3642,3.4202,3.4972,3.5045,3.5495,3.6285,3.6618,3.7166,3.8007,3.9057,3.9754,4.0101,4.0356,4.0341,4.0233,4.1815,4.2579,4.2749,4.407,4.48,4.5096,4.5096,4.5554,4.6199,4.5968,4.6891,4.7908,4.5648,4.5574,4.6402,4.5914,4.6025,4.6656,4.8213,4.8958,4.941,4.9911,5.0043,5.0043,5.0092,5.0092,5.0183,5.0604,5.0702,5.0702,5.0702,5.0702,5.0702,5.0702,5.0702,5.0702,5.0702,5.0702,5.0702,5.0702,5.0702,5.0702,5.0702,5.0702,5.0702,5.0702,5.0702,5.0702,5.0702,5.0702,5.0664,5.0606,5.0606,5.0567,5.051,5.051,5.0491,5.0433,4.9625,4.8798,4.7913,4.7182,4.6394,4.5605,4.6432,4.6374,1.7698,1.81,1.8433,1.7947,1.872,0.0,0.0,2.051,2.2124,2.1787,2.2496,0.0,0.0,0.0,0.0,0.0,0.0,0.0,0.0,0.0,0.0,3.155,3.1666,3.1411,3.0619,3.182,3.2326,3.1675,3.2526,3.3002,3.2849,3.3451,3.3935,3.4247,3.4266,3.4412,3.4743,3.5358,3.598,3.6671,3.8315,3.9528,4.0356,4.0457,4.0356,4.0158,4.1474,4.2278,4.2697,4.3902,4.4683,4.5096,4.5096,4.5592,4.6351,4.6725,4.7439,4.8117,4.7173,4.7352,4.7723,4.6499,4.6388,4.6942,4.8041,4.8479,4.8872,5.0134,5.0483,5.0483,5.0483,5.0483,5.0504,5.0663,5.0702,5.0702,5.0702,5.0702,5.0702,5.0702,5.0702,5.0702,5.0702,5.0702,5.0702,5.0702,5.0702,5.0702,5.0702,5.0702,5.0702,5.0702,5.0702,5.0702,5.0702,5.0702,5.0702,5.0702,5.0702,5.0702,5.0702,5.0702,5.0452,4.9894,4.9567,4.8971,4.8105,4.7298,4.674,4.6413,4.6759,4.6721,1.7632,1.8043,1.8455,1.812,0.0,0.0,1.9686,2.0833,2.1941,2.1708,2.2636,0.0,0.0,0.0,0.0,0.0,0.0,0.0,0.0,0.0,3.0242,3.0475,3.0398,3.011,2.954,3.0787,3.1405,3.0836,3.1691,3.2339,3.2596,3.3128,3.3421,3.3421,3.3678,3.3678,3.3421,3.43,3.5268,3.6321,3.7737,3.9026,4.0123,4.0373,4.0389,4.0289,4.1347,4.2155,4.2833,4.388,4.4689,4.5243,4.5243,4.5759,4.6579,4.7251,4.7786,4.8156,4.7899,4.7889,4.7823,4.6656,4.6485,4.6877,4.7818,4.8298,4.8759,4.9952,5.0491,5.0702,5.0702,5.0702,5.0702,5.0702,5.0702,5.0702,5.0702,5.0702,5.0702,5.0702,5.0702,5.0702,5.0702,5.0702,5.0702,5.0702,5.0702,5.0702,5.0702,5.0702,5.0702,5.0702,5.0702,5.0702,5.0702,5.0702,5.0702,5.0702,5.0702,5.0702,5.0702,5.0702,5.0414,4.9817,4.9529,4.9106,4.8509,4.7432,4.7028,4.7278,4.7278,4.7278,1.6732,1.729,1.7748,0.0,0.0,0.0,2.0876,2.0724,2.0919,2.1524,0.0,0.0,0.0,0.0,0.0,0.0,0.0,0.0,0.0,0.0,2.9803,2.9096,2.9282,2.9471,2.9471,3.029,3.0782,3.0764,3.1162,3.1733,3.254,3.2596,3.2596,3.2614,3.3366,3.3421,3.2632,3.366,3.5207,3.7173,3.7452,3.8202,3.9335,4.0142,4.0489,4.0546,4.1412,4.2297,4.3162,4.397,4.4816,4.5586,4.5586,4.6124,4.6934,4.7341,4.7752,4.7972,4.7258,4.6702,4.632,4.6301,4.6301,4.6517,4.7722,4.8702,4.9394,4.9394,5.0029,5.0702,5.0702,5.0702,5.0702,5.0702,5.0702,5.0702,5.0702,5.0702,5.0702,5.0702,5.0702,5.0702,5.0702,5.0702,5.0702,5.0702,5.0702,5.0702,5.0702,5.0702,5.0702,5.0702,5.0702,5.0702,5.0702,5.0702,5.0702,5.0702,5.0702,5.0702,5.0702,5.0702,5.0702,5.0702,4.9856,4.9413,4.9413,4.774,4.7336,4.8105,4.8105,4.8105,1.7772,1.8113,0.0,0.0,0.0,0.0,0.0,2.2076,0.0,0.0,0.0,0.0,0.0,0.0,0.0,2.5598,2.668,2.776,2.8674,2.8609,2.8506,2.8579,2.8969,2.8991,2.8416,2.9593,3.0129,2.9582,3.0155,3.0668,3.0907,3.1458,3.2027,3.2596,3.2834,3.3109,3.344,3.3766,3.4309,3.5109,3.6604,3.8308,4.0142,4.0392,4.0489,4.0508,4.0758,4.172,4.3201,4.4624,4.5009,4.4739,4.5355,4.5374,4.5222,4.659,4.7146,4.7222,4.701,4.7221,4.7357,4.6187,4.6206,4.6801,4.7164,4.7836,4.8606,4.9221,5.0029,5.0702,5.0702,5.0702,5.0702,5.0702,5.0702,5.0702,5.0702,5.0702,5.0702,5.0702,5.0702,5.0702,5.0702,5.0702,5.0702,5.0702,5.0702,5.0702,5.0702,5.0702,5.0702,5.0702,5.0702,5.0702,5.0702,5.0702,5.0702,5.0702,5.0702,5.0702,5.0702,5.0702,5.0702,5.0702,5.0452,5.0298,5.0298,4.8586,4.8182,4.899,4.8394,4.8432,1.7578,1.8132,0.0,0.0,0.0,0.0,0.0,0.0,0.0,0.0,0.0,0.0,0.0,0.0,0.0,2.5654,2.6649,2.764,2.8422,2.8237,2.8081,2.8171,2.857,2.8647,2.8156,2.9069,2.9531,2.903,2.9457,2.9861,3.0173,3.065,3.1292,3.21,3.243,3.2834,3.333,3.3736,3.4266,3.4892,3.6209,3.7773,3.9527,4.02,4.0489,4.0508,4.0873,4.1816,4.3201,4.4528,4.497,4.4874,4.5393,4.5278,4.4989,4.6374,4.6682,4.6432,4.6778,4.699,4.6932,4.5932,4.5951,4.6374,4.6374,4.7182,4.8144,4.8355,4.951,5.0606,5.026,5.0433,5.0702,5.0702,5.0702,5.0702,5.0702,5.0702,5.0702,5.0702,5.0702,5.0702,5.0702,5.0702,5.0702,5.0702,5.0702,5.0721,5.076,5.0779,5.0818,5.0856,5.0875,5.0875,5.0875,5.0818,5.0779,5.0779,5.0721,5.0702,5.0702,5.0702,5.0702,5.0702,5.0702,5.0702,5.0702,4.9298,4.8894,4.9394,4.8856,4.8894,1.6758,0.0,0.0,0.0,0.0,0.0,0.0,0.0,0.0,0.0,0.0,0.0,0.0,0.0,2.5429,2.6086,2.7044,2.7845,2.8246,2.831,2.8209,2.7929,2.821,2.8394,2.8394,2.8773,2.8994,2.8994,2.8994,2.9305,3.0063,3.0099,3.0467,3.1256,3.2063,3.254,3.2614,3.366,3.4735,3.575,3.6121,3.6845,3.7901,3.9527,4.0315,4.0431,4.1393,4.2258,4.3047,4.3932,4.4682,4.5259,4.5413,4.5432,4.547,4.6336,4.6201,4.5701,4.6509,4.6259,4.5586,4.5586,4.5586,4.5586,4.5586,4.6721,4.7836,4.7105,4.8682,5.0394,4.9606,5.0048,5.0702,5.0702,5.0702,5.0702,5.0702,5.0702,5.0702,5.0702,5.0702,5.0702,5.0702,5.0702,5.0702,5.0702,5.0702,5.0741,5.0895,5.0914,5.0952,5.1086,5.1086,5.1086,5.1086,5.099,5.0914,5.0914,5.0818,5.0741,5.0741,5.0702,5.0702,5.0702,5.0702,5.0702,5.0702,4.9817,4.9433,4.951,4.9433,4.9433,1.7559,1.8114,0.0,0.0,0.0,0.0,0.0,0.0,0.0,0.0,0.0,0.0,0.0,0.0,2.5269,2.5413,2.6283,2.7096,2.7483,2.7546,2.7631,2.7858,2.821,2.8394,2.8394,2.8773,2.8994,2.8994,2.8994,2.9067,2.9255,2.925,2.9641,3.043,3.1237,3.1953,3.2596,3.366,3.4316,3.4577,3.5742,3.6436,3.6697,3.7967,3.8911,3.9642,4.1143,4.1912,4.22,4.3682,4.3643,4.2758,4.4066,4.4182,4.3739,4.4566,4.5163,4.5624,4.5797,4.5759,4.5586,4.5586,4.5586,4.5586,4.5586,4.6336,4.7124,4.6951,4.824,4.9644,4.9452,5.0048,5.0702,5.0702,5.0702,5.0702,5.0702,5.0702,5.0702,5.0702,5.0702,5.0702,5.0702,5.0702,5.0702,5.0702,5.0702,5.0741,5.0895,5.0914,5.0947,5.1088,5.1093,5.1093,5.1093,5.1074,5.1067,5.1049,5.1029,5.101,5.101,5.0818,5.0702,5.0702,5.0702,5.0702,5.0702,4.9817,4.974,5.0394,4.9721,4.976,1.7678,0.0,0.0,0.0,0.0,0.0,0.0,0.0,0.0,0.0,0.0,0.0,0.0,0.0,2.5221,2.5221,2.6052,2.6841,2.7224,2.7143,2.7162,2.7504,2.7886,2.81,2.81,2.8764,2.9181,2.9181,2.9181,2.9181,2.9181,2.9067,2.9384,3.0173,3.0613,3.1201,3.2027,3.3212,3.3808,3.3827,3.5243,3.5921,3.5956,3.7367,3.8469,3.9354,4.0219,4.1066,4.1873,4.2739,4.2835,4.2508,4.3374,4.3701,4.372,4.4143,4.4855,4.5586,4.5586,4.5586,4.5586,4.5586,4.5586,4.5586,4.5586,4.6201,4.6913,4.6913,4.7817,4.8875,4.9298,4.9433,4.9663,5.0491,5.0702,5.0702,5.0702,5.0702,5.0702,5.0702,5.0741,5.0779,5.0702,5.0702,5.0702,5.0702,5.0702,5.076,5.0972,5.1015,5.1049,5.1238,5.1235,5.1235,5.1235,5.1177,5.1141,5.1142,5.1108,5.1087,5.1087,5.0971,5.0858,5.0798,5.0818,5.076,5.0702,5.024,5.0029,5.0067,5.0029,5.0029,1.763,0.0,0.0,0.0,0.0,0.0,0.0,0.0,0.0,0.0,0.0,0.0,0.0,2.4552,2.5221,2.5335,2.6087,2.6825,2.7147,2.7035,2.697,2.7097,2.7505,2.7787,2.7787,2.8616,2.9245,2.9394,2.9412,2.9412,2.9412,2.9156,2.9329,2.9971,3.0136,3.0522,3.1182,3.251,3.3261,3.3412,3.4833,3.5493,3.5565,3.6949,3.8123,3.9084,3.9219,4.0162,4.1585,4.1739,4.2143,4.2681,4.2989,4.3508,4.4105,4.4239,4.4855,4.5586,4.5586,4.5586,4.5586,4.5586,4.5586,4.5586,4.5586,4.6105,4.6682,4.6682,4.7259,4.8105,4.8971,4.8663,4.8548,5.0317,5.0625,5.0529,5.0664,5.0721,5.0721,5.0702,5.0683,5.0702,5.076,5.0625,5.0548,5.0702,5.0702,5.0818,5.1068,5.1101,5.1179,5.1386,5.1406,5.1406,5.1406,5.1308,5.123,5.123,5.1177,5.1159,5.1152,5.1152,5.1088,5.095,5.0914,5.0837,5.0702,5.0702,5.0317,4.9644,5.0356,5.0298,0.0,0.0,0.0,0.0,0.0,0.0,0.0,0.0,0.0,0.0,0.0,0.0,0.0,2.4776,2.5335,2.5815,2.6367,2.6725,2.6774,2.7322,2.749,2.6845,2.7381,2.7787,2.7787,2.81,2.8574,2.9357,2.9412,2.9412,2.9412,2.9156,2.9049,2.914,2.9843,3.0246,3.0356,3.1684,3.2713,3.3412,3.4833,3.5493,3.5526,3.5738,3.6699,3.8219,3.8969,3.9815,4.0719,4.1489,4.1412,4.0989,4.2508,4.3162,4.3335,4.4047,4.4855,4.5586,4.5586,4.5586,4.5586,4.5586,4.5586,4.5586,4.5586,4.5682,4.5759,4.5759,4.6394,4.7278,4.8201,4.8278,4.8567,5.0413,5.0298,4.9913,5.0548,5.0779,5.0856,5.0721,5.0202,5.0029,5.0914,5.0317,4.999,5.076,5.076,5.0818,5.1068,5.1101,5.1179,5.1386,5.1406,5.1406,5.1406,5.1387,5.1367,5.1367,5.1366,5.1355,5.1356,5.1366,5.1295,5.1164,5.0985,5.0837,5.0702,5.0702,5.0625,5.0529,5.0644,5.0625,1.8821,0.0,0.0,0.0,0.0,0.0,0.0,0.0,0.0,0.0,0.0,0.0,0.0,2.3932,2.4471,2.5793,2.6067,2.6316,2.6935,2.6766,2.649,2.6336,2.6404,2.6468,2.6468,2.714,2.775,2.8144,2.8576,2.8839,2.8839,2.8926,2.8994,2.8994,2.9347,2.9549,2.9549,3.0842,3.231,3.3872,3.4976,3.5493,3.5493,3.5493,3.6411,3.8027,3.8411,3.9315,4.0527,4.0912,4.0854,4.0566,4.1335,4.2239,4.3143,4.3508,4.4451,4.5586,4.5586,4.5586,4.5586,4.5586,4.5586,4.5586,4.5586,4.5586,4.5701,4.6182,4.624,4.6471,4.7854,4.7874,4.7854,4.9144,4.9258,4.9309,5.0042,5.0557,5.0914,5.0933,5.0281,5.0022,5.0996,5.0299,4.9901,5.0779,5.0856,5.0895,5.1087,5.1134,5.1225,5.1385,5.1406,5.1406,5.1406,5.1406,5.1406,5.1406,5.1406,5.1403,5.141,5.1406,5.1338,5.1199,5.1083,5.0952,5.0818,5.0741,5.0702,5.0702,5.0702,5.0702,0.0,0.0,0.0,0.0,0.0,0.0,0.0,0.0,0.0,0.0,0.0,0.0,2.307,2.3239,2.3891,2.5746,2.5897,2.6148,2.7274,2.6574,2.5979,2.6062,2.5677,2.5423,2.5463,2.635,2.6978,2.7185,2.801,2.8496,2.8496,2.8869,2.9089,2.9089,2.904,2.9021,2.9089,3.0415,3.1908,3.3583,3.4661,3.518,3.518,3.5411,3.6295,3.768,3.768,3.8623,4.02,4.02,4.0315,4.0508,4.0739,4.1758,4.3104,4.3104,4.4162,4.5566,4.5336,4.5413,4.5586,4.5586,4.5586,4.5586,4.5586,4.5586,4.574,4.6394,4.6124,4.599,4.7489,4.7353,4.7064,4.8143,4.8545,4.8916,4.9679,5.043,5.0991,5.1106,5.0442,5.016,5.1089,5.0355,4.9949,5.0817,5.0933,5.0952,5.1078,5.1163,5.1252,5.1382,5.1406,5.1406,5.1406,5.1406,5.1406,5.1406,5.1406,5.1406,5.1406,5.1406,5.1348,5.125,5.1147,5.1026,5.0914,5.076,5.0702,5.0702,5.0702,5.0702,0.0,0.0,0.0,0.0,0.0,0.0,0.0,0.0,0.0,0.0,0.0,0.0,2.2618,2.3244,2.4214,2.5911,2.6182,2.6556,2.7706,2.7424,2.6922,2.6355,2.5766,2.5463,2.5671,2.5909,2.639,2.7148,2.8183,2.8779,2.8779,2.9156,2.9392,2.9392,2.9134,2.9134,2.9372,3.0648,3.1456,3.1852,3.3487,3.4257,3.4295,3.5122,3.5968,3.6776,3.6776,3.7757,3.9354,3.9354,3.9796,4.0566,4.1412,4.2297,4.3104,4.3104,4.4162,4.547,4.4643,4.4913,4.5586,4.5586,4.5586,4.5586,4.5586,4.5586,4.5605,4.5643,4.5738,4.6007,4.7005,4.6602,4.6429,4.8235,4.8677,4.8947,4.9797,5.0568,5.1106,5.1183,5.0529,5.0279,5.122,5.0503,5.0079,5.097,5.0991,5.0962,5.107,5.1157,5.1252,5.1382,5.1406,5.1406,5.1406,5.1406,5.1406,5.1406,5.1406,5.1406,5.1406,5.1406,5.1406,5.1387,5.1193,5.1017,5.0914,5.076,5.0702,5.0702,5.0702,5.0702,0.0,0.0,0.0,0.0,0.0,0.0,0.0,0.0,0.0,0.0,0.0,0.0,2.2609,2.2693,2.3283,2.5138,2.5185,2.5544,2.7235,2.6537,2.6066,2.6631,2.5688,2.4991,2.4942,2.5117,2.5292,2.545,2.6415,2.7222,2.7748,2.8277,2.8815,2.9394,2.931,2.9435,2.978,3.0776,3.1432,3.1718,3.2833,3.366,3.4199,3.4526,3.5122,3.593,3.593,3.7219,3.9335,3.9854,4.0239,4.0527,4.0835,4.1508,4.2335,4.2893,4.3816,4.4797,4.5047,4.5336,4.5586,4.5586,4.5586,4.5605,4.5699,4.5738,4.5738,4.5776,4.5834,4.594,4.6287,4.6602,4.7197,4.8503,4.9257,4.9765,5.0065,5.0267,5.0548,5.1106,5.0629,5.0405,5.1249,5.0503,5.011,5.1028,5.1087,5.1048,5.1164,5.1247,5.1352,5.1386,5.1406,5.1406,5.1406,5.1406,5.1406,5.1406,5.1406,5.1406,5.1406,5.1406,5.1406,5.1406,5.1245,5.114,5.1087,5.0837,5.0741,5.0837,5.0741,5.0702,0.0,0.0,0.0,0.0,0.0,0.0,0.0,0.0,0.0,0.0,0.0,0.0,2.2557,2.2367,2.2747,2.4646,2.4686,2.5082,2.6747,2.6033,2.5633,2.6486,2.5528,2.4775,2.4682,2.5045,2.5244,2.5111,2.6313,0.0,2.7813,2.8346,2.8876,2.9394,2.9474,2.9661,2.9999,3.0663,3.1084,3.1275,3.2102,3.2795,3.3372,3.393,3.4526,3.5084,3.5661,3.7026,3.8911,3.9431,3.9988,4.0489,4.0489,4.1027,4.1835,4.2124,4.2931,4.397,4.4547,4.4932,4.5201,4.549,4.5586,4.5605,4.5719,4.5757,4.5815,4.5853,4.593,4.5979,4.5958,4.6709,4.7711,4.8674,4.9342,4.9923,5.0486,5.053,5.0636,5.116,5.0907,5.0762,5.1308,5.0756,5.046,5.1105,5.114,5.1114,5.1183,5.1312,5.1406,5.1406,5.1406,5.1406,5.1406,5.1406,5.1406,5.1406,5.1406,5.1406,5.1406,5.1406,5.1406,5.1406,5.1269,5.1228,5.126,5.0964,5.0868,5.0914,5.0818,5.0741,0.0,0.0,0.0,0.0,0.0,0.0,0.0,0.0,0.0,0.0,0.0,0.0,2.2315,2.2329,2.2674,2.4518,2.4852,2.5288,2.6426,2.606,2.5757,2.5988,2.5299,2.4869,2.4998,2.5761,2.6257,2.6257,2.7972,2.9014,2.9033,2.9467,2.9607,2.9433,2.9607,2.9796,3.0013,3.0267,3.0398,3.0398,3.1256,3.1698,3.1795,3.341,3.418,3.4334,3.5968,3.7161,3.7969,3.7988,3.8969,4.045,4.045,4.0989,4.1662,4.0835,4.1604,4.3066,4.3085,4.3605,4.4412,4.5278,4.5566,4.5566,4.5605,4.5699,4.5796,4.5811,4.5945,4.6116,4.6116,4.685,4.7812,4.8691,4.8926,4.9375,5.1016,5.1387,5.1387,5.1367,5.1367,5.1367,5.1367,5.121,5.1125,5.1201,5.115,5.1139,5.12,5.132,5.1406,5.1406,5.1406,5.1406,5.1406,5.1406,5.1406,5.1406,5.1406,5.1406,5.1406,5.1406,5.1406,5.1406,5.1269,5.1265,5.1414,5.1199,5.1043,5.0914,5.0895,5.0837,1.877,0.0,0.0,0.0,0.0,0.0,0.0,0.0,0.0,0.0,0.0,0.0,2.1236,2.138,2.1689,2.2647,2.3823,2.4931,2.582,2.5512,2.5427,2.6062,2.5545,2.5118,2.501,2.5126,2.5196,0.0,2.6238,2.7101,2.7675,2.8988,2.9678,2.9626,2.9813,3.0032,3.0299,3.0367,3.0398,3.0398,3.0629,3.1391,3.2583,3.3045,3.3949,3.518,3.5641,3.6315,3.7123,3.7738,3.8642,3.9623,3.9623,4.0123,4.0912,4.1296,4.1758,4.2258,4.2874,4.3278,4.3662,4.4526,4.4797,4.4953,4.5738,4.593,4.5908,4.6111,4.6197,4.6236,4.6236,4.692,4.7812,4.8691,4.9375,4.9961,5.043,5.0996,5.123,5.0644,5.0527,5.0527,5.0527,5.0894,5.12,5.1333,5.1238,5.1203,5.1323,5.1377,5.1406,5.1406,5.1406,5.1406,5.1406,5.1406,5.1406,5.1406,5.1406,5.1406,5.1406,5.1406,5.1406,5.1406,5.1367,5.1351,5.1399,5.1189,5.1072,5.1037,5.0849,5.0741,0.0,0.0,0.0,0.0,0.0,0.0,1.6927,1.5616,0.0,0.0,0.0,0.0,1.777,1.861,1.9448,2.0348,2.2503,2.4251,2.4706,2.4912,2.517,2.5653,2.5469,2.5253,2.5141,2.5385,2.5565,2.5565,2.6631,2.7571,2.8204,2.908,2.9626,2.9696,2.9813,3.0032,3.0398,3.0398,3.0398,3.0398,3.0398,3.091,3.1872,3.2237,3.3141,3.4449,3.4795,3.543,3.6238,3.6757,3.7873,3.9335,3.9662,4.0085,4.0566,4.1123,4.1316,4.1393,4.2313,4.2678,4.2854,4.3682,4.4238,4.4694,4.5329,4.5738,4.6012,4.6173,4.6257,4.6387,4.6758,4.7226,4.7812,4.8691,4.9297,4.9668,4.9668,4.9746,4.9883,5.0156,5.0469,5.0703,5.0703,5.0976,5.1255,5.1376,5.1296,5.1257,5.1381,5.1406,5.1406,5.1406,5.1406,5.1406,5.1406,5.1406,5.1406,5.1406,5.1406,5.1406,5.1406,5.1406,5.1406,5.1406,5.1406,5.1398,5.14,5.1283,5.1178,5.1087,5.0889,5.0741,0.0,0.0,0.0,0.0,0.0,0.0,1.2838,1.1917,1.2091,0.0,0.0,0.0,1.4059,1.5722,1.7234,1.8471,2.1337,2.346,2.352,2.441,2.5034,2.5034,2.5203,2.5303,2.5303,2.5985,2.6427,2.6447,2.7995,2.9104,2.9542,2.9514,2.9551,2.9696,2.9748,2.9977,3.0398,3.0398,3.0398,3.0398,3.0398,3.0436,3.0571,3.1352,3.2199,3.3083,3.3853,3.4699,3.5526,3.5603,3.7026,3.9219,3.9931,4.0335,4.0508,4.0658,4.062,4.0658,4.154,4.1886,4.2008,4.2835,4.3782,4.4597,4.4697,4.5374,4.6102,4.6124,4.6205,4.6484,4.7246,4.7461,4.7676,4.8555,4.8769,4.8769,4.8769,4.8223,4.8203,4.9746,5.0625,5.1152,5.125,5.123,5.1269,5.1387,5.1308,5.1276,5.1382,5.1406,5.1406,5.1406,5.1406,5.1406,5.1406,5.1406,5.1406,5.1406,5.1406,5.1406,5.1406,5.1406,5.1406,5.1406,5.1406,5.1406,5.1406,5.1387,5.1297,5.1099,5.0952,5.0856,0.0,0.0,0.0,0.0,0.0,0.0,1.7329,1.7002,1.6915,0.0,0.0,0.0,0.0,1.8555,1.97,2.0168,2.1757,2.312,2.3667,2.4602,2.5234,2.5234,2.5274,2.5303,2.5303,2.5305,2.539,2.5553,2.696,2.807,2.8619,2.9434,2.9829,2.9713,3.0071,3.0299,3.0398,3.0398,3.0398,3.0398,3.0398,3.0775,3.1448,3.1621,3.2526,3.3949,3.4122,3.4699,3.5565,3.6199,3.718,3.8277,3.843,3.9315,4.0508,4.0658,4.0677,4.0696,4.0947,4.1101,4.1331,4.2194,4.3083,4.395,4.4708,4.547,4.6117,4.6228,4.6282,4.6348,4.6504,4.6543,4.6777,4.7656,4.7851,4.7851,4.7851,4.8262,4.875,4.9082,4.9277,4.9609,5.0312,5.0957,5.1367,5.1406,5.1377,5.1369,5.1406,5.1406,5.1406,5.1406,5.1406,5.1406,5.1406,5.1406,5.1406,5.1406,5.1406,5.1406,5.1406,5.1406,5.1406,5.1406,5.1406,5.1406,5.1406,5.1289,5.1227,5.1176,5.0986,5.0895,0.0,0.0,0.0,1.8871,0.0,0.0,0.0,1.8025,1.687,1.5863,1.5869,1.6115,1.6267,0.0,1.9247,1.9601,2.1286,2.2732,2.3226,2.412,2.4851,2.5245,2.4947,2.487,2.5264,2.4849,2.4935,2.588,2.6522,2.7352,2.8537,2.8973,2.939,2.9826,3.008,3.0267,3.0398,3.0398,3.0417,3.0448,3.0448,3.0679,3.1102,3.1102,3.2006,3.3545,3.3545,3.4295,3.5584,3.6444,3.731,3.8137,3.8488,3.9469,4.0658,4.0735,4.0756,4.0765,4.0866,4.0931,4.1078,4.1501,4.2263,4.3161,4.4085,4.5209,4.622,4.6284,4.6308,4.6406,4.6836,4.6621,4.6523,4.7383,4.7266,4.6953,4.6953,4.7285,4.7851,4.873,4.8906,4.9297,5.0586,5.1133,5.1406,5.1406,5.1406,5.1406,5.1406,5.1406,5.1406,5.1406,5.1406,5.1406,5.1406,5.1406,5.1406,5.1406,5.1406,5.1406,5.1406,5.1406,5.1406,5.1406,5.1406,5.1406,5.1406,5.1328,5.1269,5.1191,5.1064,5.0955,0.0,0.0,0.0,0.0,0.0,1.9476,0.0,0.0,0.0,0.0,0.0,0.0,0.0,0.0,0.0,0.0,0.0,0.0,0.0,2.3417,0.0,2.4966,2.4351,2.4235,2.5207,2.4716,2.4889,2.6255,2.6297,2.6937,2.8469,2.8529,2.8985,2.9961,3.0061,3.0182,3.0398,3.0398,3.0448,3.0506,3.0505,3.0507,3.0527,3.051,3.1391,3.2961,3.2942,3.393,3.5603,3.6348,3.7209,3.8094,3.8992,3.9962,4.0793,4.0831,4.0842,4.0855,4.0984,4.1037,4.1042,4.1042,4.1779,4.2832,4.3887,4.5176,4.6308,4.6308,4.6308,4.6465,4.7168,4.6836,4.6484,4.7187,4.6816,4.6308,4.6308,4.6308,4.6816,4.8555,4.8906,4.9433,5.1113,5.1406,5.1406,5.1406,5.1406,5.1406,5.1406,5.1406,5.1406,5.1406,5.1406,5.1406,5.1406,5.1406,5.1406,5.1406,5.1406,5.1406,5.1406,5.1406,5.1406,5.1406,5.1406,5.1406,5.1406,5.1406,5.1348,5.123,5.1135,5.105,0.0,0.0,0.0,0.0,2.0184,0.0,0.0,0.0,1.917,1.9721,0.0,0.0,0.0,0.0,0.0,0.0,0.0,0.0,2.2775,2.2889,2.3283,2.4129,2.3475,2.3562,2.5149,2.5207,2.5245,2.5418,2.6139,2.688,2.7616,2.8523,2.9321,2.9994,3.0222,3.0367,3.0398,3.0467,3.0487,3.0506,3.0571,3.0594,3.0587,3.0519,3.1472,3.3164,3.3102,3.4077,3.5699,3.5795,3.6425,3.7462,3.8986,4.0059,4.0812,4.0927,4.0977,4.1003,4.1124,4.117,4.1183,4.1183,4.2243,4.3867,4.5508,4.6133,4.6308,4.6308,4.6308,4.6328,4.6426,4.6367,4.6328,4.6426,4.6367,4.6308,4.6308,4.6308,4.6816,4.8555,4.8906,4.9433,5.1113,5.1406,5.1406,5.1406,5.1406,5.1406,5.1406,5.1406,5.1406,5.1406,5.1406,5.1406,5.1406,5.1406,5.1406,5.1406,5.1406,5.1406,5.1406,5.1406,5.1406,5.1406,5.1406,5.1406,5.1406,5.1406,5.1387,5.1367,5.1193,5.1127,0.0,0.0,0.0,0.0,0.0,0.0,2.0833,0.0,2.1322,0.0,0.0,0.0,0.0,0.0,0.0,0.0,2.2641,0.0,0.0,0.0,2.185,0.0,0.0,0.0,2.3832,2.4312,2.4601,2.4601,2.5832,2.6935,2.7692,2.8606,2.9452,3.0203,3.0343,3.0417,3.0467,3.0487,3.0544,3.0621,3.0645,3.0658,3.0662,3.0622,3.1557,3.3207,3.3171,3.4128,3.5747,3.6344,3.7088,3.8009,3.9274,3.9981,4.033,4.0816,4.1064,4.1123,4.1185,4.1191,4.1289,4.1738,4.2715,4.3926,4.5176,4.5898,4.6308,4.6308,4.6308,4.6308,4.6308,4.6308,4.6308,4.6308,4.6308,4.6308,4.6308,4.6308,4.6816,4.8555,4.8906,4.9433,5.1113,5.1406,5.1406,5.1406,5.1406,5.1406,5.1406,5.1406,5.1406,5.1406,5.1406,5.1406,5.1406,5.1406,5.1406,5.1406,5.1406,5.1406,5.1406,5.1406,5.1406,5.1406,5.1406,5.1406,5.1406,5.1406,5.1406,5.1406,5.1232,5.1181,2.0312,0.0,0.0,0.0,0.0,0.0,0.0,0.0,0.0,0.0,0.0,0.0,0.0,0.0,0.0,0.0,0.0,2.2225,0.0,0.0,0.0,0.0,0.0,0.0,0.0,2.3456,2.411,2.411,2.5428,2.6736,2.7832,2.8448,2.9275,3.0359,3.0398,3.0417,3.0506,3.0527,3.0584,3.0698,3.0743,3.0753,3.0742,3.0723,3.1627,3.3244,3.3247,3.4205,3.5841,3.6567,3.7367,3.8196,3.9174,3.9686,3.9998,4.0777,4.1124,4.1191,4.1191,4.1348,4.166,4.248,4.3359,4.4219,4.5098,4.5801,4.6308,4.6308,4.6308,4.6308,4.6308,4.6308,4.6308,4.6308,4.6308,4.6308,4.6308,4.6308,4.6738,4.8242,4.873,4.9355,5.082,5.125,5.1406,5.1406,5.1406,5.1406,5.1406,5.1406,5.1406,5.1406,5.1406,5.1406,5.1406,5.1406,5.1406,5.1406,5.1406,5.1406,5.1406,5.1406,5.1406,5.1406,5.1406,5.1406,5.1406,5.1406,5.1406,5.1406,5.1269,5.1216,0.0,0.0,0.0,2.2699,0.0,0.0,0.0,0.0,2.2098,0.0,0.0,0.0,0.0,0.0,0.0,0.0,0.0,0.0,0.0,0.0,0.0,0.0,0.0,0.0,0.0,2.309,2.411,2.411,2.487,2.6101,2.7813,2.7909,2.8698,3.034,3.0398,3.0417,3.0506,3.056,3.0618,3.071,3.0825,3.0898,3.0898,3.0762,3.1699,3.3396,3.332,3.4314,3.5996,3.6035,3.6546,3.7405,3.83,3.916,4.0019,4.0878,4.1191,4.1191,4.1191,4.1719,4.25,4.3379,4.4258,4.5117,4.5996,4.6289,4.6308,4.6308,4.6308,4.6308,4.6308,4.6308,4.6308,4.6308,4.6308,4.6308,4.6308,4.6308,4.6562,4.7461,4.832,4.9199,5.0078,5.0879,5.1406,5.1406,5.1406,5.1406,5.1406,5.1406,5.1406,5.1406,5.1406,5.1406,5.1406,5.1406,5.1406,5.1406,5.1406,5.1406,5.1406,5.1406,5.1406,5.1406,5.1406,5.1406,5.1406,5.1406,5.1406,5.1406,5.1269,5.1269,0.0,0.0,2.3919,2.373,0.0,0.0,0.0,0.0,0.0,0.0,0.0,0.0,0.0,0.0,0.0,0.0,0.0,0.0,0.0,0.0,0.0,0.0,0.0,0.0,0.0,0.0,2.3244,2.3244,2.5043,2.6428,2.7005,2.8082,2.8948,2.9525,3.0102,3.0448,3.0564,3.0587,3.0686,3.0825,3.0873,3.0898,3.0918,3.1445,3.2324,3.3437,3.4,3.4903,3.5996,3.5996,3.6847,3.819,3.8472,3.9492,4.0801,4.1094,4.1191,4.1191,4.1191,4.1738,4.2539,4.3418,4.4297,4.5156,4.6035,4.6308,4.6308,4.6308,4.6308,4.6308,4.6308,4.6308,4.6308,4.6308,4.6308,4.6308,4.6308,4.6308,4.6562,4.7422,4.8236,4.9039,4.9925,5.0731,5.1308,5.1387,5.1406,5.1406,5.1406,5.1406,5.1406,5.1406,5.1406,5.1406,5.1406,5.1406,5.1406,5.1406,5.1406,5.1406,5.1406,5.1406,5.1406,5.1406,5.1406,5.1406,5.1406,5.1406,5.1406,5.1406,5.1348,5.1367,2.5691,2.5678,0.0,2.4726,2.4199,0.0,2.4101,0.0,2.4548,0.0,0.0,0.0,0.0,0.0,0.0,0.0,0.0,0.0,0.0,2.092,0.0,0.0,0.0,0.0,0.0,0.0,2.2793,2.2793,2.487,2.6274,2.6582,2.7909,2.8794,2.9083,2.9967,3.0487,3.0602,3.0626,3.0725,3.0898,3.0898,3.0898,3.0937,3.1797,3.2637,3.3457,3.4316,3.5371,3.6465,3.6465,3.748,3.9062,3.9062,3.9941,4.1191,4.1191,4.1387,4.168,4.1973,4.2637,4.3418,4.3984,4.4746,4.5566,4.6133,4.6308,4.6367,4.668,4.6543,4.6367,4.668,4.6523,4.6308,4.6308,4.6308,4.6308,4.6308,4.6264,4.6489,4.7359,4.8118,4.8919,4.9798,5.0622,5.1191,5.1307,5.1367,5.1406,5.1406,5.1406,5.1406,5.1406,5.1406,5.1406,5.1406,5.1406,5.1406,5.1406,5.1406,5.1406,5.1406,5.1406,5.1406,5.1406,5.1406,5.1406,5.1406,5.1406,5.1406,5.1406,5.1406,5.1406]},{"header":{"parameterUnit":"m.s-1","parameterCategory":1,"la1":30.6,"la2":29.2853,"lo1":-89.7004,"lo2":-87.6739,"dy":0.0162,"dx":0.0183,"nx":112,"ny":82,"refTime":"2023-10-07T12:00:00:Z","depth":0,"parameterNumber":3,"parameterNumberName":"V-component_of_WINDS"},"data":[0.0,0.0,0.0,0.0,0.0,0.0,0.0,0.0,0.0,0.0,0.0,0.0,0.0,0.0,0.0,0.0,0.0,0.0,0.0,0.0,0.0,0.0,0.0,0.0,0.0,0.0,0.0,0.0,0.0,0.0,0.0,0.0,0.0,0.0,0.0,0.0,0.0,0.0,0.0,0.0,0.0,0.0,0.0,0.0,0.0,0.0,0.0,0.0,0.0,0.0,0.0,0.0,0.0,0.0,0.0,0.0,0.0,0.0,0.0,0.0,0.0,0.0,0.0,0.0,0.0,0.0,0.0,0.0,0.0,0.0,0.0,0.0,0.0,0.0,0.0,0.0,0.0,0.0,0.0,0.0,0.0,0.0,0.0,0.0,0.0,0.0,0.0,0.0,0.0,0.0,-0.4084,-0.4211,-0.3342,-0.1258,0.2399,0.3807,0.4594,0.4731,0.0,0.0,0.0,0.0,0.0,0.0,0.0,0.0,0.0,0.0,0.0,0.0,0.0,0.0,0.0,0.0,0.0,0.0,0.0,0.0,0.0,0.0,0.0,0.0,0.0,0.0,0.0,0.0,0.0,0.0,0.0,0.0,0.0,0.0,0.0,0.0,0.0,0.0,0.0,0.0,0.0,0.0,0.0,0.0,0.0,0.0,0.0,0.0,0.0,0.0,0.0,0.0,0.0,0.0,0.0,0.0,0.0,0.0,0.0,0.0,0.0,0.0,0.0,0.0,0.0,0.0,0.0,0.0,0.0,0.0,0.0,0.0,0.0,0.0,0.0,0.0,0.0,0.0,0.0,0.0,0.0,0.0,0.0,0.0,0.0,0.0,0.0,0.0,0.0,0.0,0.0,0.0,0.0,0.0,0.0,0.0,0.0,0.0,0.0,0.0,0.0,0.0,0.0,0.0,-0.4927,-0.4492,-0.3409,-0.1267,0.2395,0.3829,0.4609,0.487,0.0,0.0,0.0,0.0,0.0,0.0,0.0,0.0,0.0,0.0,0.0,0.0,0.0,0.0,0.0,0.0,0.0,0.0,0.0,0.0,0.0,0.0,0.0,0.0,0.0,0.0,0.0,0.0,0.0,0.0,0.0,0.0,0.0,0.0,0.0,0.0,0.0,0.0,0.0,0.0,0.0,0.0,0.0,0.0,0.0,0.0,0.0,0.0,0.0,0.0,0.0,0.0,0.0,0.0,0.0,0.0,0.0,0.0,0.0,0.0,0.0,0.0,0.0,0.0,0.0,0.0,0.0,0.0,0.0,0.0,0.0,0.0,0.0,0.0,0.0,0.0,0.0,0.0,0.0,0.0,0.0,0.0,0.0,0.0,0.0,0.0,0.0,0.0,0.0,0.0,0.0,0.0,0.0,0.0,0.0,0.0,0.0,0.0,0.0,0.0,0.0,0.0,0.0,-0.5222,-0.4818,-0.4706,-0.3535,-0.1202,0.2407,0.3808,0.4629,0.4901,0.448,0.0,0.0,0.0,0.0,0.0,0.0,0.0,0.0,0.0,0.0,0.0,0.0,0.0,0.0,0.0,0.0,0.0,0.0,0.0,0.0,0.0,0.0,0.0,0.0,0.0,0.0,0.0,0.0,0.0,0.0,0.0,0.0,0.0,0.0,0.0,0.0,0.0,0.0,0.0,0.0,0.0,0.0,0.0,0.0,0.0,0.0,0.0,0.0,0.0,0.0,0.0,0.0,0.0,0.0,0.0,0.0,0.0,0.0,0.0,0.0,0.0,0.0,0.0,0.0,0.0,0.0,0.0,0.0,0.0,0.0,0.0,0.0,0.0,0.0,0.0,0.0,0.0,0.0,0.0,0.0,0.0,0.0,0.0,0.0,0.0,0.0,0.0,0.0,0.0,0.0,0.0,0.0,0.0,0.0,0.0,0.0,0.0,0.0,0.0,0.0,0.0,0.0,-0.5171,-0.4639,-0.498,-0.3621,-0.1322,0.2117,0.3618,0.4551,0.4897,0.4321,0.0,0.0,0.0,0.0,0.0,0.0,0.0,0.0,0.0,0.0,0.0,0.0,0.0,0.0,0.0,0.0,0.0,0.0,0.0,0.0,0.0,0.0,0.0,0.0,0.0,0.0,0.0,0.0,0.0,0.0,0.0,0.0,0.0,0.0,0.0,0.0,0.0,0.0,0.0,0.0,0.0,0.0,0.0,0.0,0.0,0.0,0.0,0.0,0.0,0.0,0.0,0.0,0.0,0.0,0.0,0.0,0.0,0.0,0.0,0.0,0.0,0.0,0.0,0.0,0.0,0.0,0.0,0.0,0.0,0.0,0.0,0.0,0.0,0.0,0.0,0.0,0.0,0.0,0.0,0.0,0.0,0.0,0.0,0.0,0.0,0.0,0.0,0.0,0.0,0.0,0.0,0.0,0.0,0.0,0.0,0.0,0.0,0.0,0.0,0.0,0.0,0.0,-0.5639,-0.485,-0.5315,-0.3791,-0.1539,0.1344,0.3079,0.4271,0.4884,0.4219,0.0,0.0,0.0,0.0,0.0,0.0,0.0,0.0,0.0,0.0,0.0,0.0,0.0,0.0,0.0,0.0,0.0,0.0,0.0,0.0,0.0,0.0,0.0,0.0,0.0,0.0,0.0,0.0,0.0,0.0,0.0,0.0,0.0,0.0,0.0,0.0,0.0,0.0,0.0,0.0,0.0,0.0,0.0,0.0,0.0,0.0,0.0,0.0,0.0,0.0,0.0,0.0,0.0,0.0,0.0,0.0,0.0,0.0,0.0,0.0,0.0,0.0,0.0,0.0,0.0,0.0,0.0,0.0,0.0,0.0,0.0,0.0,0.0,0.0,0.0,0.0,0.0,0.0,0.0,0.0,0.0,0.0,0.0,0.0,0.0,0.0,0.0,0.0,0.0,0.0,0.0,0.0,0.0,0.0,0.0,0.0,0.0,0.0,0.0,0.0,0.0,0.0,-0.546,-0.4972,0.0,-0.4782,-0.2817,0.1148,0.3065,0.4504,0.5656,0.0,0.0,0.0,0.0,0.0,0.0,0.0,0.0,0.0,0.0,0.0,0.0,0.0,0.0,0.0,0.0,0.0,0.0,0.0,0.0,0.0,0.0,0.0,0.0,0.0,0.0,0.0,0.0,0.0,0.0,0.0,0.0,0.0,0.0,0.0,0.0,0.0,0.0,0.0,0.0,0.0,0.0,0.0,0.0,0.0,0.0,0.0,0.0,0.0,0.0,0.0,0.0,0.0,0.0,0.0,0.0,0.0,0.0,0.0,0.0,0.0,0.0,0.0,0.0,0.0,0.0,0.0,0.0,0.0,0.0,0.0,0.0,0.0,0.0,0.0,0.0,0.0,0.0,0.0,0.0,0.0,0.0,0.0,0.0,0.0,0.0,0.0,0.0,0.0,0.0,0.0,0.0,0.0,0.0,0.0,0.0,0.0,0.0,0.0,0.0,0.0,0.0,-0.6002,-0.5578,-0.5282,0.0,-0.541,-0.3854,0.0,0.2611,0.4495,0.5573,0.0,0.0,0.0,0.0,0.0,0.0,0.0,0.0,0.0,0.0,0.0,0.0,0.0,0.0,0.0,0.0,0.0,0.0,0.0,0.0,0.0,0.0,0.0,0.0,0.0,0.0,0.0,0.0,0.0,0.0,0.0,0.0,0.0,0.0,0.0,0.0,0.0,0.0,0.0,0.0,0.0,0.0,0.0,0.0,0.0,0.0,0.0,0.0,0.0,0.0,0.0,0.0,0.0,0.0,0.0,0.0,0.0,0.0,0.0,0.0,0.0,0.0,0.0,0.0,0.0,0.0,0.0,0.0,0.0,0.0,0.0,0.0,0.0,0.0,0.0,0.0,0.0,0.0,0.0,0.0,0.0,0.0,0.0,0.0,0.0,0.0,0.0,0.0,0.0,0.0,0.0,0.0,0.0,0.0,0.0,0.0,0.0,0.0,0.0,0.0,0.0,0.0,-0.6066,-0.5992,-0.5829,-0.546,-0.5378,-0.4515,-0.2286,0.1653,0.4131,0.0,0.0,0.0,0.0,0.0,0.0,0.0,0.0,0.0,0.0,0.0,0.0,0.0,0.0,0.0,0.0,0.0,0.0,0.0,0.0,0.0,0.0,0.0,0.0,0.0,0.0,0.0,0.0,0.0,0.0,0.0,0.0,0.0,0.0,0.0,0.0,0.0,0.0,0.0,0.0,0.0,0.0,0.0,0.0,0.0,0.0,0.0,0.0,0.0,0.0,0.0,0.0,0.0,0.0,0.0,0.0,0.0,0.0,0.0,0.0,0.0,0.0,0.0,0.0,0.0,0.0,0.0,0.0,0.0,0.0,0.0,0.0,0.0,0.0,0.0,0.0,0.0,0.0,0.0,0.0,0.0,0.0,0.0,0.0,0.0,0.0,0.0,0.0,0.0,0.0,0.0,0.0,0.0,0.0,0.0,0.0,0.0,0.0,0.0,0.0,0.0,0.0,0.0,-0.5295,-0.5695,-0.5829,-0.546,-0.5378,-0.4494,-0.2297,0.0696,0.3049,0.4417,0.0,0.0,0.0,0.0,0.0,0.0,0.0,0.0,0.0,0.0,0.0,0.0,0.0,0.0,0.0,0.0,0.0,0.0,0.0,0.0,0.0,0.0,0.0,0.0,0.0,0.0,0.0,0.0,0.0,0.0,0.0,0.0,0.0,0.0,0.0,0.0,0.0,0.0,0.0,0.0,0.0,0.0,0.0,0.0,0.0,0.0,0.0,0.0,0.0,0.0,0.0,0.0,0.0,0.0,0.0,0.0,0.0,0.0,0.0,0.0,0.0,0.0,0.0,0.0,0.0,0.0,0.0,0.0,0.0,0.0,0.0,0.0,0.0,0.0,0.0,0.0,0.0,0.0,0.0,0.0,0.0,0.0,0.0,0.0,0.0,0.0,0.0,0.0,0.0,0.0,0.0,0.0,0.0,0.0,0.0,0.0,0.0,0.0,0.0,0.0,0.0,0.0,-0.5078,-0.5856,-0.6195,-0.546,-0.5378,-0.4588,-0.2488,0.0214,0.2449,0.4061,0.0,0.0,0.0,0.0,0.0,0.0,0.0,0.0,0.0,0.0,0.0,0.0,0.0,0.0,0.0,0.0,0.0,0.0,0.0,0.0,0.0,0.0,0.0,0.0,0.0,0.0,0.0,0.0,0.0,0.0,0.0,0.0,0.0,0.0,0.0,0.0,0.0,0.0,0.0,0.0,0.0,0.0,0.0,0.0,0.0,0.0,0.0,0.0,0.0,0.0,0.0,0.0,0.0,0.0,0.0,0.0,0.0,0.0,0.0,0.0,0.0,0.0,0.0,0.0,0.0,0.0,0.0,0.0,0.0,0.0,0.0,0.0,0.0,0.0,0.0,0.0,0.0,0.0,0.0,0.0,0.0,0.0,0.0,0.0,0.0,0.0,0.0,0.0,0.0,0.0,0.0,0.0,0.0,0.0,0.0,0.0,0.0,0.0,0.0,0.0,0.0,0.0,-0.5199,-0.6235,-0.6568,-0.5508,-0.5371,-0.4653,-0.2878,0.0052,0.2323,0.3521,0.0,0.0,0.0,0.0,0.0,0.0,0.0,0.0,0.0,0.0,0.0,0.0,0.0,0.0,0.0,0.0,0.0,0.0,0.0,0.0,0.0,0.0,0.0,0.0,0.0,0.0,0.0,0.0,0.0,0.0,0.0,0.0,0.0,0.0,0.0,0.0,0.0,0.0,0.0,0.0,0.0,0.0,0.0,0.0,0.0,0.0,0.0,0.0,0.0,0.0,0.0,0.0,0.0,0.0,0.0,0.0,0.0,0.0,0.0,0.0,-0.3553,0.0,0.0,0.0,0.0,0.0,0.0,0.0,0.0,0.0,0.0,0.0,0.0,0.0,0.0,0.0,0.0,0.0,0.0,0.0,0.0,0.0,0.0,0.0,0.0,0.0,0.0,0.0,0.0,0.0,0.0,0.0,0.0,0.0,0.0,0.0,0.0,0.0,0.0,0.0,0.0,0.0,-0.5164,-0.5849,-0.6103,-0.5236,-0.5303,-0.4693,-0.2855,0.0053,0.232,0.3498,0.3899,0.0,0.0,0.0,0.0,0.0,0.0,0.0,0.0,0.0,0.0,0.0,0.0,0.0,0.0,0.0,0.0,0.0,0.0,0.0,0.0,0.0,0.0,0.0,0.0,0.0,0.0,0.0,0.0,0.0,0.0,0.0,0.0,0.0,0.0,0.0,0.0,0.0,0.0,0.0,0.0,0.0,0.0,0.0,0.0,0.0,0.0,0.0,0.0,0.0,0.0,0.0,0.0,0.0,0.0,0.0,0.0,0.0,0.0,0.0,0.0,-0.4028,0.0,0.0,0.0,0.0,0.0,0.0,0.0,0.0,0.0,0.0,0.0,0.0,0.0,0.0,0.0,0.0,0.0,0.0,0.0,0.0,0.0,0.0,0.0,0.0,0.0,0.0,0.0,0.0,0.0,0.0,0.0,0.0,0.0,0.0,0.0,0.0,0.0,0.0,0.0,0.0,-0.5342,-0.5803,-0.5974,-0.5298,-0.5192,-0.4451,-0.2823,-0.0108,0.2116,0.3536,0.3997,0.0,0.0,0.0,0.0,0.0,0.0,0.0,0.0,0.0,0.0,0.0,0.0,0.0,0.0,0.0,0.0,0.0,0.0,0.0,0.0,0.0,0.0,0.0,0.0,0.0,0.0,0.0,0.0,0.0,0.0,0.0,0.0,0.0,0.0,0.0,0.0,0.0,0.0,0.0,0.0,0.0,0.0,0.0,0.0,0.0,0.0,0.0,0.0,0.0,0.0,0.0,0.0,0.0,-0.9773,-0.7759,-0.4653,-0.4779,-0.482,-0.4764,-0.4318,-0.3952,-0.3724,-0.4692,0.0,0.0,0.0,0.0,0.0,0.0,0.0,0.0,0.0,0.0,0.0,0.0,0.0,0.0,0.0,0.0,0.0,0.0,0.0,0.0,0.0,0.0,0.0,0.0,0.0,0.0,0.0,0.0,0.0,0.0,0.0,0.0,0.0,0.0,0.0,0.0,0.0,0.0,-0.5618,-0.5868,-0.5905,-0.5636,-0.5174,-0.4409,-0.3123,-0.0442,0.187,0.3623,0.413,0.4328,0.0,0.0,0.0,0.0,0.0,0.0,0.0,0.0,0.0,0.0,0.0,0.0,0.0,0.0,0.0,0.0,0.0,0.0,0.0,0.0,0.0,0.0,0.0,0.0,0.0,0.0,0.0,0.0,0.0,0.0,0.0,0.0,-0.4212,-0.4048,0.0,0.0,0.0,0.0,0.0,0.0,0.0,0.0,0.0,0.0,0.0,0.0,0.0,-0.9257,-1.0115,-1.0314,-1.047,-1.0612,-1.1444,-0.9513,-0.5294,-0.5805,-0.6082,-0.5984,-0.4913,0.0,-0.396,-0.3886,0.0,0.0,0.0,0.0,0.0,0.0,0.0,0.0,0.0,0.0,0.0,0.0,0.0,0.0,0.0,0.0,0.0,0.0,0.0,0.0,0.0,0.0,-0.3894,-0.074,0.0,0.0,0.0,0.0,0.0,0.0,-0.0194,0.0,0.0,0.0,0.0,0.0,0.0,0.0,-0.6185,-0.5841,-0.5676,-0.6189,-0.5709,-0.5013,-0.4324,-0.1072,0.1903,0.4233,0.4058,0.4046,0.4419,0.4549,0.0,0.0,0.0,0.0,0.0,0.0,0.0,0.0,0.0,0.0,0.0,0.0,0.0,0.0,0.0,0.0,0.0,0.0,0.0,0.0,0.0,0.0,0.0,0.0,0.0,0.0,0.0,0.0,0.0,-0.7315,-0.5691,-0.3441,-0.3355,-0.2841,0.0,0.0,0.0,0.0,0.0,0.0,0.0,0.0,0.0,-0.9792,-1.0451,-1.0995,-1.1546,-1.1571,-1.1933,-1.2512,-1.0433,-0.8294,-0.6384,-0.6338,-0.6317,-0.6307,-0.5778,-0.5451,-0.5232,-0.4801,-0.4706,-0.4918,0.0,0.0,0.0,0.0,-0.587,-0.5526,-0.5408,-0.5336,-0.5301,-0.5426,0.0,0.0,0.0,0.0,0.0,0.0,0.0,0.0,0.0,0.0,-0.1971,-0.0352,0.0,0.0,0.0,0.0,0.0,0.0,0.0,-0.0537,-0.2123,0.0,0.0,0.0,0.0,-0.5533,-0.5784,-0.5581,-0.5533,-0.5784,-0.5446,-0.5192,-0.4994,-0.1746,0.1507,0.43,0.4317,0.4219,0.4338,0.4585,0.4813,0.0,0.0,0.0,0.0,0.0,0.0,0.0,0.0,0.0,0.0,0.0,0.0,0.0,0.0,0.0,0.0,0.0,0.0,0.0,0.0,0.0,0.0,0.0,0.0,0.0,0.0,0.0,0.0,-0.8748,-0.6207,-0.2663,-0.2894,-0.2472,0.0,0.0,0.0,0.0,0.0,0.0,-0.9265,-1.0517,-1.104,-1.0802,-1.2058,-1.276,-1.2769,-1.1538,-1.1391,-1.2295,-0.8806,-0.7075,-0.7109,-0.6702,-0.6485,-0.6522,-0.65,-0.6447,-0.6263,-0.562,-0.5176,-0.49,-0.5348,-0.5511,-0.5488,-0.5603,-0.5671,-0.5711,-0.5779,-0.5732,-0.565,-0.5691,-0.5627,-0.5525,-0.5488,0.0,0.0,0.0,0.0,-0.4448,-0.5032,-0.2578,0.0,0.0,0.0,0.0,0.0,0.0,0.0,0.0,0.0,0.0,0.0,0.0,0.0,0.0,0.0,-0.5595,-0.5755,-0.5617,-0.5554,-0.5747,-0.5411,-0.5258,-0.5413,-0.2216,0.1148,0.4301,0.444,0.4375,0.4304,0.4626,0.477,0.4813,0.0,0.0,0.0,0.0,0.0,0.0,0.0,0.0,0.0,0.0,0.0,0.0,0.0,0.0,0.0,0.0,0.0,0.0,0.0,0.0,0.0,0.0,0.0,0.0,0.0,0.0,0.0,0.0,0.0,-0.1585,-0.0679,0.0,0.0,0.0,0.0,-0.5638,-0.676,-0.8006,-0.921,-1.1521,-1.2384,-1.1392,-1.3071,-1.4044,-1.4052,-0.9555,-0.7375,-0.7439,-0.7204,-0.7079,-0.7095,-0.7059,-0.7088,-0.703,-0.7022,-0.676,-0.6241,-0.5669,-0.5507,-0.5745,-0.5769,-0.5804,-0.5779,-0.5786,-0.5881,-0.5986,-0.5847,-0.5796,-0.5817,-0.5962,-0.6,-0.5969,-0.5823,-0.5779,0.0,0.0,-0.4126,-0.3067,-0.4259,-0.2266,0.0,0.0,0.0,0.0,0.0,0.0,0.0,0.0,0.0,0.0,0.0,0.0,-0.3698,-0.554,-0.5782,-0.6008,-0.6744,-0.6119,-0.5917,-0.672,-0.5978,-0.539,-0.5424,-0.2265,0.107,0.4278,0.4341,0.4317,0.4501,0.4484,0.4628,0.4776,0.5171,0.0,0.0,0.0,0.0,0.0,0.0,0.0,0.0,0.0,0.0,0.0,0.0,0.0,0.0,0.0,0.0,0.0,0.0,0.0,0.0,0.0,0.0,0.0,0.0,0.0,0.0,0.0,0.0,-0.3926,-0.146,0.0,0.0,-0.4154,-0.6933,-0.719,-0.7838,-0.8667,-0.9751,-1.1441,-1.2806,-1.369,-1.3932,-1.4084,-1.4069,-1.2423,-1.1641,-1.1623,-1.1561,-1.0004,-0.7075,-0.7126,-0.7092,-0.7122,-0.7107,-0.6993,-0.6829,-0.6596,-0.6322,-0.6086,-0.6004,-0.5964,-0.5959,-0.6061,-0.619,-0.6318,-0.6366,-0.6315,-0.6227,-0.619,-0.6183,-0.6176,-0.6115,-0.6098,-0.6088,-0.5819,-0.4265,-0.254,-0.1759,-0.0774,0.0,0.0,0.0,0.0,0.0,0.0,0.0,0.0,0.0,0.0,0.0,-0.1721,-0.3801,-0.5847,-0.5936,-0.5922,-0.6149,-0.5853,-0.5724,-0.6065,-0.5659,-0.4898,-0.3751,-0.1609,0.1081,0.4301,0.4425,0.4409,0.4515,0.4562,0.4174,0.3168,0.3496,0.3103,0.0,0.0,0.0,0.0,0.0,0.0,0.0,0.0,0.0,0.0,0.0,0.0,0.0,0.0,0.0,0.0,0.0,0.0,0.0,0.0,0.0,0.0,0.0,0.0,0.0,0.0,-0.8754,-0.611,-0.2918,-0.1373,-0.2585,-0.4702,-0.6561,-0.7821,-0.8024,-0.8707,-1.0135,-1.0454,-1.2037,-1.5211,-1.4845,-1.4689,-1.4669,-1.4669,-1.4631,-1.4715,-1.465,-1.2118,-0.7399,-0.736,-0.735,-0.7244,-0.7183,-0.7078,-0.7061,-0.7034,-0.677,-0.6478,-0.6322,-0.6246,-0.6274,-0.643,-0.6546,-0.6641,-0.6742,-0.6681,-0.6546,-0.6451,-0.6427,-0.643,-0.6503,-0.6458,-0.6335,-0.6267,-0.5072,-0.3317,-0.0706,0.0,0.0,0.0,0.0,0.0,0.0,0.0,0.0,0.0,0.0,0.0,0.0,-0.1747,-0.3862,-0.6073,-0.6197,-0.5976,-0.6023,-0.5813,-0.5661,-0.5661,-0.5494,-0.465,-0.2829,-0.0628,0.1773,0.4318,0.4549,0.4573,0.4519,0.467,0.4226,0.3107,0.2201,0.1205,0.0,0.0,0.0,0.0,0.0,0.0,0.0,0.0,0.0,0.0,0.0,0.0,0.0,0.0,0.0,0.0,0.0,0.0,0.0,0.0,0.0,0.0,0.0,0.0,-1.4609,-1.2181,-0.9789,-0.7778,-0.4678,-0.4103,-0.7454,-0.5584,-0.5142,-0.7528,-0.7309,-0.8033,-1.0198,-0.8721,-1.0233,-1.5431,-1.5735,-1.5803,-1.5819,-1.5819,-1.568,-1.5588,-1.5599,-1.294,-0.8009,-0.7966,-0.7893,-0.7597,-0.725,-0.709,-0.7067,-0.6877,-0.685,-0.684,-0.6766,-0.6788,-0.6725,-0.6875,-0.6932,-0.6936,-0.6936,-0.6766,-0.6579,-0.6579,-0.6662,-0.6749,-0.6753,-0.6713,-0.6498,-0.6599,-0.6448,-0.5353,-0.1184,-0.008,0.0,0.0,0.0,0.0,0.0,0.0,0.0,0.0,0.0,0.0,0.0,-0.1729,-0.392,-0.6296,-0.6468,0.0,-0.6447,-0.6081,-0.581,-0.581,-0.5569,-0.4668,-0.2836,0.0642,0.3207,0.4457,0.4646,0.4626,0.4536,0.4683,0.4769,0.4776,0.1622,0.0,0.0,0.0,0.0,0.0,0.0,0.0,0.0,0.0,0.0,0.0,0.0,0.0,0.0,0.0,0.0,0.0,0.0,0.0,0.0,0.0,0.0,0.0,0.0,-1.6426,-1.501,-1.1952,-0.9349,-0.8049,-0.5672,-0.3712,-0.2348,-0.4886,-0.7063,-0.7855,-0.7689,-0.8435,-1.0391,-1.1269,-1.1732,-1.199,-1.4506,-1.5757,-1.5777,-1.5777,-1.388,-1.0105,-1.0134,-0.939,-0.8025,-0.7967,-0.7949,-0.7839,-0.7482,-0.7279,-0.7265,-0.7071,-0.7146,-0.7214,-0.6844,-0.677,-0.6871,-0.6912,-0.6993,-0.7082,-0.7082,-0.6987,-0.6977,-0.6967,-0.5807,-0.4833,-0.6518,-0.7007,-0.6936,-0.6841,-0.6746,-0.5954,-0.2981,-0.1159,0.0,0.0,0.0,0.0,0.0,0.0,0.0,0.0,0.0,0.0,0.0,-0.1729,-0.3816,-0.6078,-0.6321,0.0,-0.6315,-0.6115,-0.5966,-0.5966,-0.56,-0.4658,-0.2872,0.0602,0.3403,0.507,0.4886,0.4721,0.4792,0.4731,0.4755,0.4884,0.1641,0.0,0.0,0.0,0.0,0.0,0.0,0.0,0.0,0.0,0.0,0.0,0.0,0.0,0.0,0.0,0.0,0.0,0.0,0.0,0.0,0.0,0.0,0.0,-1.7308,-1.6156,-1.5081,-1.2184,-0.9735,-0.8652,-0.6797,-0.5039,-0.3518,-0.5202,-0.6795,-0.7925,-0.7915,-0.8821,-1.1005,-1.2066,-1.2181,-1.1163,-1.3075,-1.3619,-1.2575,-1.2533,-1.0993,-0.8004,-0.8042,-0.7979,-0.7984,-0.8046,-0.8028,-0.7993,-0.7658,-0.7522,-0.7455,-0.7299,-0.7251,0.0,0.0,0.0,0.0,0.0,-0.7126,-0.7139,-0.7139,-0.7115,-0.6908,-0.5927,-0.4674,-0.4064,-0.6379,-0.7031,-0.7034,-0.6953,-0.6813,-0.6157,-0.3699,-0.1593,0.0,0.0,0.0,0.0,0.0,0.0,0.0,0.0,0.0,0.0,0.0,-0.1753,-0.3794,-0.5939,-0.6291,-0.6281,-0.6342,-0.6162,-0.6006,-0.5939,-0.5682,-0.4466,-0.1783,0.108,0.0,0.0,0.0,0.4914,0.5003,0.4921,0.0,0.0,0.0,0.0786,0.0,0.0,0.0,0.0,-0.1073,-0.2948,0.0,0.0,0.0,0.0,0.0,0.0,0.0,0.0,0.0,0.0,0.0,0.0,0.0,0.0,0.0,0.0,-1.6303,-1.561,-1.5167,-1.2845,-1.0783,-0.9611,-0.7869,-0.7108,-0.7647,-0.5999,-0.58,-0.7971,-0.8286,-0.9486,-1.1959,0.0,0.0,0.0,0.0,-1.0835,-0.8286,-0.8115,-0.8039,-0.7963,-0.7963,-0.7991,-0.8038,-0.8038,-0.8038,-0.8031,-0.7879,-0.774,-0.7611,-0.7458,-0.7326,-0.7224,-0.7312,-0.7441,-0.7556,-0.74,-0.7258,-0.7139,-0.7139,0.0,0.0,-0.4405,-0.3616,-0.4027,-0.6406,-0.6991,-0.6953,-0.6953,-0.6865,-0.6344,-0.4137,-0.1771,0.0,0.0,0.0,0.0,0.0,0.0,0.0,0.0,0.0,-0.0179,-0.0611,-0.2044,-0.3794,-0.5949,-0.6296,-0.6305,-0.643,-0.622,-0.5996,-0.5844,0.0,0.0,-0.0335,0.1811,0.3593,0.5054,0.5162,0.5148,0.5131,0.5145,0.523,0.5393,0.3623,0.1811,0.0,0.0,0.0,0.0,0.0,-0.1742,0.0,0.0,0.0,0.0,0.0,0.0,0.0,0.0,0.0,0.0,0.0,0.0,0.0,0.0,0.0,-1.8225,-1.7164,-1.6285,-1.6093,-1.4257,-1.2439,-1.1024,-0.8989,-0.7242,-0.5991,-0.7001,-0.7994,-0.8682,-1.0016,-1.1485,-1.3147,-1.3325,-1.2985,-1.1925,-1.2549,-1.2001,-1.0169,-0.8659,-0.7953,-0.8021,0.0,0.0,-0.8038,-0.8038,-0.8038,-0.8031,-0.7879,-0.7794,-0.7756,-0.7614,-0.7604,-0.7648,-0.7316,-0.7278,-0.7397,-0.7241,-0.7166,-0.7139,-0.7139,-0.7091,-0.6681,-0.4383,-0.358,-0.4039,-0.6379,-0.7061,0.0,-0.7099,-0.7092,-0.691,-0.6461,-0.3177,0.0,0.0,0.0,0.0,0.0,0.0,0.0,0.0,0.0,-0.1071,-0.4459,-0.4006,-0.3839,-0.5952,-0.6327,-0.6271,-0.6298,-0.6251,-0.6156,-0.6003,-0.5841,-0.4315,-0.0553,0.2904,0.5018,0.5345,0.5325,0.526,0.5135,0.525,0.5342,0.5393,0.3623,0.1811,0.0,0.0,0.0,0.0,0.0,-0.0402,0.0,0.0,0.0,0.0,0.0,0.0,0.0,0.0,0.0,0.0,0.0,-1.966,0.0,0.0,-1.9051,-1.9079,-1.863,-1.7921,-1.6913,-1.5528,-1.3796,-1.1811,-0.9478,-0.7617,-0.6825,-0.7798,-0.8608,-0.8716,-1.016,-1.1667,-1.3436,-1.3093,-1.2536,-1.1788,-1.2302,-1.1458,-0.9245,-0.9064,-0.8696,-0.8038,-0.8038,-0.8038,-0.8038,-0.8038,-0.8038,-0.8035,-0.796,-0.7882,-0.7801,-0.7658,-0.7682,-0.778,-0.7485,-0.7461,-0.7573,-0.7424,-0.7322,-0.7255,-0.7255,-0.7182,-0.6744,-0.4809,-0.4749,-0.5694,-0.677,-0.7128,-0.7241,-0.7163,-0.7061,-0.7071,-0.7081,-0.5371,-0.2952,-0.0536,0.0,0.0,0.0,0.0,0.0,0.0,0.0,-0.1427,-0.5959,-0.5695,-0.5239,-0.6134,-0.6287,-0.6338,-0.6338,-0.6338,-0.6203,-0.6047,-0.5915,-0.453,-0.1463,0.2888,0.5393,0.5376,0.5432,0.5325,0.525,0.5321,0.5372,0.5396,0.3623,0.1811,0.0,0.0,0.0,0.0,0.0,-0.047,0.0,0.0,0.0,0.0,0.0,0.0,0.0,0.0,-2.1985,-2.0433,-2.0596,-2.0796,-2.0159,-2.0278,-2.0406,-2.0008,-1.9973,-1.9402,-1.7802,-1.6529,-1.4924,-1.2827,-1.0062,-0.8443,-0.8471,-0.8546,-0.8611,-0.8591,-0.9928,-1.1573,-1.3115,-1.2427,-1.1889,-1.1711,-1.1636,-1.029,-0.7811,-0.9225,-0.9316,-0.8038,-0.8038,-0.8024,-0.7994,-0.8024,-0.8024,-0.7997,-0.8028,-0.797,-0.7845,-0.7733,-0.7753,-0.7845,-0.7729,-0.7753,-0.7831,-0.7631,-0.7478,-0.7366,-0.7336,-0.7249,-0.6985,-0.5681,-0.621,-0.7297,-0.7155,-0.7244,-0.7299,-0.7177,-0.7139,-0.7143,-0.7074,-0.7088,-0.6008,-0.1697,-0.0358,0.0,0.0,0.0,0.0,0.0,-0.0719,-0.2409,-0.5866,-0.6628,-0.6616,-0.6423,-0.6324,-0.6302,-0.6302,-0.6278,-0.6203,-0.6047,-0.5952,-0.4787,-0.1953,0.2659,0.5406,0.5432,0.5428,0.5428,0.5428,0.5428,0.5372,0.5396,0.3623,0.1811,0.0,0.0,0.0,0.0,0.0,-0.1143,-2.5965,-2.6736,0.0,-2.6397,-2.5764,-2.5467,0.0,0.0,-2.3332,-2.3425,-2.2548,-2.1691,-2.1511,-2.1248,-2.1082,-2.108,-2.0412,-1.9692,-1.8999,-1.7059,-1.5524,-1.489,-1.195,-0.9928,-0.9932,-0.9098,-0.8486,-0.8482,-1.085,-1.2307,-1.2324,-1.2368,-1.2149,-1.1716,-1.0766,-0.9421,-0.7811,-0.9225,-0.9316,-0.8038,-0.8038,-0.7967,-0.7841,-0.7977,-0.7967,-0.7845,-0.798,-0.8028,-0.8014,-0.7997,-0.7997,-0.8014,-0.7997,-0.8001,-0.7963,-0.755,-0.7387,-0.7353,-0.7214,-0.7272,-0.7296,-0.693,-0.6939,-0.7128,-0.7094,-0.7081,-0.7163,-0.7146,-0.7139,-0.7139,-0.7143,-0.7071,-0.645,-0.3838,-0.1519,0.0,0.0,0.0,0.0,0.0,-0.3416,-0.5813,-0.4268,-0.5553,-0.6803,-0.6722,-0.6556,-0.6451,-0.6451,-0.6339,-0.6203,-0.6047,-0.6125,-0.4588,-0.056,0.3201,0.5381,0.5386,0.5432,0.5428,0.5428,0.5428,0.5372,0.5396,0.3623,0.1811,0.0,0.0,0.0,0.0,0.0,-0.1818,-2.6367,0.0,0.0,0.0,-2.7061,-2.6138,-2.6459,-2.5653,-2.4484,-2.337,-2.3212,-2.3056,-2.2332,-2.2011,-2.2136,0.0,-2.2199,-2.1557,-2.0919,-2.0076,-1.8694,-1.6439,-1.4142,-1.1993,-1.0032,-0.8829,-0.8561,-0.9461,-1.1291,-1.2365,-1.2174,-1.2838,-1.242,-1.0673,-1.096,-1.0391,-0.8956,-0.9612,-0.9706,-0.9118,-0.8336,-0.7919,-0.7943,-0.7919,-0.7919,-0.7946,-0.8011,-0.8038,-0.8038,-0.8038,-0.7987,-0.7906,-0.7906,-0.7855,-0.777,-0.7665,-0.7577,-0.7495,-0.7431,-0.7299,-0.7262,-0.7261,-0.7288,-0.7272,-0.7094,-0.721,-0.7255,-0.7166,-0.7139,-0.7139,-0.7139,-0.7068,-0.6815,-0.5911,-0.2771,0.0,0.0,0.0,0.0,0.0,-0.1616,-0.3492,-0.5318,-0.6377,-0.697,-0.6976,-0.6759,-0.6573,-0.6485,-0.642,-0.6376,-0.6221,-0.5142,-0.3274,-0.0501,0.1266,0.3126,0.5235,0.542,0.5369,0.5428,0.5428,0.5372,0.5396,0.3623,0.1811,0.0,0.0,0.0,0.0,0.0,-0.1345,-2.6996,0.0,0.0,-2.893,-2.8262,-2.7224,-2.6707,-2.6308,-2.5524,-2.3745,-2.3869,-2.4126,-2.3289,-2.3031,-2.3157,-2.4038,-2.3869,-2.332,-2.2648,-2.1741,-2.0053,-1.7185,-1.5143,-1.2866,-1.0104,-0.9256,-0.9257,-1.0071,-1.1326,-1.2013,-1.2078,-1.2612,-1.193,-0.991,-1.0863,-1.0872,-0.9814,-0.99,-0.9998,-0.9998,-0.8506,-0.7909,-0.7974,-0.7906,-0.7933,-0.8041,-0.8085,-0.8079,-0.8038,-0.8038,-0.795,-0.7811,-0.7811,-0.7746,-0.7672,-0.7773,-0.7723,-0.7688,-0.7919,-0.7661,-0.7303,-0.8084,-0.8114,-0.7822,-0.8047,-0.8186,-0.8259,-0.8132,-0.8128,-0.8067,-0.7676,-0.7624,-0.7571,-0.7193,-0.3952,-0.081,-0.018,0.0,0.0,0.0,0.0,-0.1524,-0.6293,-0.7104,-0.7088,-0.7064,-0.6963,-0.6766,-0.6617,-0.6563,-0.6524,-0.628,-0.4934,-0.3192,-0.1322,-0.0504,0.0994,0.367,0.4828,0.5373,0.5433,0.5393,0.5379,0.5399,0.41,0.2283,0.0,0.0,0.0,0.0,0.0,-0.0941,0.0,0.0,-3.0,-2.8742,-2.9014,-2.9275,-2.8004,-2.7209,-2.6464,-2.5637,-2.5121,-2.4734,-2.4748,-2.4305,-2.4233,-2.5131,-2.5003,-2.4656,-2.4006,-2.0567,-1.7898,-1.718,-1.4289,-1.1933,0.0,-1.0889,-1.0726,-1.0075,-1.0981,-1.1617,-1.1945,-1.0783,-1.0006,-0.9819,-0.9998,-1.0002,-0.9814,-0.99,-0.9998,-0.9998,-0.8623,-0.7957,-0.7824,-0.7967,-0.8035,-0.8048,-0.8197,-0.8177,-0.8038,-0.8038,-0.795,-0.7811,-0.7811,-0.7811,-0.7804,-0.7811,-0.7723,-0.7761,-0.8687,-0.8355,-0.7699,-0.9818,-0.9763,-0.9069,-1.0183,-1.0529,-1.0534,-1.0524,-1.0767,-1.0622,-0.9196,-0.9021,-0.8849,-0.7467,-0.5267,-0.2837,-0.0539,0.0,0.0,0.0,0.0,-0.1522,-0.6311,-0.7108,-0.7084,-0.7084,-0.7058,-0.7075,-0.6932,-0.6783,-0.6558,-0.6341,-0.6244,-0.5325,-0.3179,-0.1429,-0.0372,-0.0217,0.3327,0.5401,0.5401,0.5403,0.5399,0.5413,0.5343,0.3572,0.0,0.0,0.0,0.0,0.0,-0.0941,-3.0079,0.0,-3.0912,-3.1137,-3.0397,-2.9392,-2.8461,-2.7917,-2.7132,-2.5489,-2.4967,-2.4495,-2.3427,-2.305,-2.3295,-2.4653,-2.4887,-2.4946,-2.49,-2.2187,-1.9605,-1.8009,-1.6215,0.0,0.0,0.0,0.0,-1.102,-1.07,-1.0847,-1.1838,-1.0681,-0.9579,-0.8645,-1.0351,-1.084,-0.9905,-1.084,-1.0877,-0.9998,-0.8627,-0.8014,-0.7963,-0.8018,-0.8147,-0.8323,-0.818,-0.8147,-0.8184,-0.8082,-0.795,-0.7811,-0.7811,-0.8157,-0.8717,-0.8742,-0.9308,-0.9987,-0.9456,-0.9531,-0.9929,-1.042,-1.0351,-1.0096,-1.0524,-1.0611,-1.0641,-1.088,-1.0972,-1.1049,-1.0675,-0.9926,-0.8993,-0.758,-0.6658,-0.4991,-0.093,0.0,0.0,0.0,-0.1294,-0.2929,-0.448,-0.4784,-0.527,-0.6884,-0.7065,-0.6983,-0.6936,-0.6797,-0.6651,-0.6522,-0.6341,-0.6019,-0.5289,-0.466,-0.3158,-0.0595,0.0798,0.2202,0.3565,0.3602,0.4145,0.5352,0.5421,0.3633,0.0,0.0,0.0,0.0,0.0,-0.1036,-3.1608,-3.185,-3.1951,-3.2586,-3.1309,-2.9642,-2.8678,-2.8019,-2.7087,-2.5394,-2.4833,-2.4337,-2.3368,-2.3071,-2.3364,-2.4453,-2.4774,-2.4875,-2.4985,-2.2989,-2.0801,-1.9053,-1.7658,-1.58,0.0,0.0,0.0,-1.2245,-1.0728,-1.0475,-1.1953,-1.0327,-0.8977,-0.8194,-1.0224,-1.0915,-1.0192,-1.0915,-1.065,-0.9312,-0.8432,-0.8038,-0.8041,-0.8096,-0.8194,-0.8316,-0.818,-0.8147,-0.818,-0.8079,-0.8241,-0.8472,-0.8413,-0.9003,-0.9904,-0.9942,-1.0867,-1.1929,-1.0847,-1.0754,-1.1284,-1.1673,-1.1558,-1.1295,-1.1735,-1.1882,-1.2076,-1.2235,-1.25,-1.2564,-1.2177,-1.1506,-1.037,-0.8552,-0.7812,-0.6596,-0.3411,-0.1337,0.0,0.0,-0.2616,-0.4813,-0.4854,-0.4874,-0.5359,-0.6874,-0.7061,-0.7004,-0.7004,-0.6919,-0.6787,-0.6678,-0.6491,-0.6411,-0.6298,-0.6283,-0.5214,-0.267,-0.1118,0.0365,0.1652,0.1708,0.227,0.3416,0.3486,0.2294,0.0,0.0,0.0,0.0,0.0,-0.1136,-3.2925,-3.3335,-3.3246,-3.3111,-3.1797,-3.0079,-2.8769,-2.7446,-2.6343,-2.5494,-2.4693,-2.4214,0.0,0.0,-2.4326,-2.4772,-2.4792,-2.4778,-2.4744,-2.3056,-2.1457,0.0,0.0,0.0,0.0,0.0,0.0,-1.3532,0.0,-1.0452,-1.2154,-0.951,-0.8184,-0.8472,-0.9662,-1.0259,-1.0339,-1.0153,-0.9377,-0.8038,-0.8038,-0.8041,-0.8055,-0.8197,-0.8187,-0.8069,-0.8201,-0.818,-0.8052,-0.8041,-0.8724,-0.9793,-0.9528,-1.0195,-1.1375,-1.1385,-1.2254,-1.3397,-1.2897,-1.2187,-1.1775,-1.3595,-1.3326,-1.2631,-1.3776,-1.4322,-1.4543,-1.4563,-1.4963,-1.5055,-1.3683,-1.3522,-1.3071,-1.0329,-0.8714,-0.7832,-0.7753,-0.3861,-0.0387,-0.0187,-0.3901,-0.7148,-0.7082,-0.7111,-0.7078,-0.7143,-0.7139,-0.7139,-0.7139,-0.7139,-0.7031,-0.6746,-0.6712,-0.6593,-0.6298,-0.6285,-0.6285,-0.6278,-0.2525,-0.0302,-0.0151,-0.0148,-0.0146,-0.0146,-0.0073,-0.0073,-0.0146,-0.0073,-0.0073,-0.0146,-0.0292,-0.1385,-3.5579,-3.5919,-3.5845,-3.4611,-3.2626,-3.0419,-2.8166,-2.6752,-2.559,-2.4773,-2.3682,-2.2917,0.0,0.0,0.0,-2.627,-2.633,0.0,-2.8638,-2.6044,0.0,-2.1706,0.0,-1.7515,-1.5468,-1.4728,0.0,0.0,-1.194,-1.0506,-1.2149,-0.9629,-0.8296,-0.8476,-0.9676,-0.988,-0.8999,-0.8848,-0.8487,-0.8038,-0.8038,-0.8099,-0.8208,-0.8133,-0.8197,-0.836,-0.8177,-0.814,-0.8302,-0.9172,-0.9502,-0.9727,-1.0775,-1.1759,-1.258,-1.2761,-1.3597,-1.4553,-1.4108,-1.4123,-1.4349,-1.4421,-1.4375,-1.4369,-1.4648,-1.479,-1.4897,-1.511,-1.5277,-1.5332,-1.5184,-1.4459,-1.3538,-1.2886,-1.1006,-0.9056,-0.8073,-0.6854,-0.5376,-0.3349,-0.5295,-0.7343,-0.7292,-0.7241,-0.7058,-0.7143,-0.7139,-0.7139,-0.7139,-0.7139,-0.7082,-0.7015,-0.6888,-0.6672,-0.6314,-0.6354,-0.6383,-0.6285,-0.5297,-0.4,-0.234,-0.2326,-0.2318,-0.2318,-0.0823,-0.0754,-0.2302,-0.0755,-0.0824,-0.2318,-0.3979,-0.4958,-3.7908,-3.7553,-3.6712,-3.5137,-3.2413,-2.9641,-2.749,-2.614,-2.503,-2.3983,-2.3104,0.0,0.0,0.0,0.0,0.0,0.0,0.0,-2.9471,-2.8011,-2.6168,0.0,-2.2214,0.0,-1.7505,-1.628,-1.5897,0.0,-1.3111,-1.1592,-1.2444,-1.054,-0.9183,-0.8676,-0.9981,-1.0249,-0.9519,-0.8744,-0.8289,-0.814,-0.8072,-0.8085,-0.8167,-0.8079,-0.813,-0.8279,0.0,-0.8385,-0.9052,-0.9567,-1.0435,-1.1456,-1.2152,-1.306,-1.4043,-1.4192,-1.4628,-1.513,-1.4963,-1.5204,-1.5464,-1.475,-1.4723,-1.4963,-1.4963,-1.5057,-1.519,-1.5351,-1.5484,-1.5625,-1.5785,-1.5227,-1.4477,-1.404,-1.2704,-1.1298,-0.9943,-0.8806,-0.7521,-0.6077,-0.6661,-0.7403,-0.7421,-0.7258,-0.7139,-0.7139,-0.7139,-0.7139,-0.7139,-0.7139,-0.7095,-0.7059,-0.6943,-0.6753,-0.6535,-0.6519,-0.6441,-0.6369,-0.6308,-0.5767,-0.453,-0.453,-0.4533,-0.4533,-0.3375,-0.2855,-0.3124,-0.2857,-0.2916,-0.3142,-0.5319,-0.6329,-4.0067,-3.8824,-3.6945,-3.519,-3.191,-2.8568,-2.6835,-2.5516,-2.4339,-2.3293,0.0,-2.2688,-2.3132,-2.2993,-2.3256,-2.456,0.0,-2.7257,-2.9226,-2.9442,-2.8867,-2.7558,-2.5261,-2.2637,-1.9576,-1.8181,-1.7076,-1.6366,-1.4622,-1.3299,-1.2785,-1.1485,-1.0204,-0.9226,-1.0058,-1.0695,-1.0856,-0.9245,-0.8381,-0.8238,-0.8102,-0.8038,-0.8038,-0.8038,-0.8038,-0.8038,-0.8237,-0.892,-0.9985,-1.0013,-1.1537,-1.3737,-1.3454,-1.4147,-1.5351,-1.5424,-1.5431,-1.5398,-1.5398,-1.5565,-1.5645,-1.4883,-1.4836,-1.5077,-1.5077,-1.5257,-1.5451,-1.5451,-1.5631,-1.5832,-1.5832,-1.5832,-1.5534,-1.4459,-1.3974,-1.3596,-1.2467,-1.0199,-0.8389,-0.8503,-0.7928,-0.7523,-0.7611,-0.7358,-0.7139,-0.7139,-0.7139,-0.7139,-0.7139,-0.7139,-0.7095,-0.6973,-0.6959,-0.6895,-0.6746,-0.661,-0.6525,-0.6505,-0.6396,-0.6335,-0.6335,-0.6322,-0.6318,-0.6318,-0.6302,-0.541,-0.3513,-0.5413,-0.5335,-0.3591,-0.5413,-0.6288,-4.2455,-4.1187,-3.9123,-3.6356,-3.2566,-2.8891,-2.6505,-2.4349,0.0,0.0,-2.2304,-2.2046,-2.2673,-2.3178,0.0,-2.5951,0.0,0.0,0.0,0.0,-2.9315,0.0,0.0,0.0,0.0,0.0,0.0,0.0,0.0,-1.5023,-1.256,-1.144,-1.0703,-1.0349,-0.9574,-0.9531,-1.0259,-0.9024,-0.8231,-0.8079,-0.8052,-0.8038,-0.8038,-0.8038,-0.8038,-0.8038,-0.9217,0.0,-1.019,-1.2281,-1.3108,-1.3273,-1.4759,-1.5226,-1.5097,-1.5578,-1.5605,-1.5398,-1.5398,-1.5431,-1.5444,-1.5291,-1.5444,-1.5678,-1.5678,-1.5712,-1.5752,-1.5752,-1.5792,-1.5832,-1.5832,-1.5832,-1.573,-1.5534,-1.4657,-1.3931,-1.3849,-1.1805,-1.0262,-1.1068,-0.9283,-0.793,-0.893,-0.8035,-0.7139,-0.7139,-0.7139,-0.7139,-0.7139,-0.7139,-0.7051,-0.7044,-0.7027,-0.696,-0.6826,-0.6786,-0.6797,-0.6668,-0.6637,-0.6627,-0.6627,-0.6508,-0.6441,-0.6441,-0.6335,-0.6116,-0.5709,-0.6126,-0.6122,-0.5786,-0.6116,-0.6274,-4.3158,-4.1816,-3.9724,-3.685,-3.2894,-2.9118,-2.6566,0.0,0.0,0.0,-2.2464,-2.2334,-2.2637,0.0,0.0,0.0,0.0,0.0,0.0,0.0,0.0,0.0,0.0,0.0,0.0,0.0,0.0,0.0,0.0,-1.5469,-1.2602,-1.0732,-0.9949,-1.0682,-0.9323,-0.9245,-1.0408,-0.9013,-0.8235,-0.816,-0.8079,-0.8038,-0.8038,-0.8038,-0.8333,-0.9118,-0.9706,-1.0774,-1.2124,-1.3155,-1.399,-1.4564,-1.5265,-1.5524,-1.5444,-1.5732,-1.5745,-1.5618,-1.5618,-1.5618,-1.5618,-1.5618,-1.5718,-1.5832,-1.5832,-1.5832,-1.5832,-1.5832,-1.5832,-1.5865,-1.6019,-1.6059,-1.5899,-1.525,-1.4576,-1.398,-1.406,-1.3073,-1.2165,-1.1965,-1.0074,-0.8792,-0.9427,-0.814,-0.7139,-0.7139,-0.7139,-0.7139,-0.7139,-0.7139,-0.7143,-0.7068,-0.7058,-0.7027,-0.6964,-0.6887,-0.6898,-0.6824,-0.6746,-0.6702,-0.6702,-0.6552,-0.6508,-0.659,-0.638,-0.6342,-0.6488,-0.642,-0.6424,-0.6488,-0.6495,-0.6495,-4.3449,-4.2398,-4.0294,-3.7338,-3.3401,-2.956,-2.6954,-2.4765,0.0,0.0,-2.2785,-2.2649,-2.2498,0.0,0.0,0.0,0.0,0.0,0.0,0.0,0.0,0.0,0.0,0.0,0.0,0.0,0.0,0.0,0.0,-1.5038,-1.2695,-1.0231,-0.9391,-1.0583,-0.9153,-0.9139,-1.0527,-0.898,-0.8221,-0.8218,-0.8099,-0.8038,-0.8038,-0.8038,-0.8726,-0.9998,-1.0288,-1.1745,-1.3861,-1.3944,-1.4622,-1.5718,-1.5558,-1.5591,-1.5745,-1.5805,-1.5832,-1.5832,-1.5832,-1.5832,-1.5832,-1.5832,-1.5832,-1.5832,-1.5832,-1.5832,-1.5832,-1.5832,-1.5832,-1.5899,-1.6192,-1.6273,-1.6039,-1.4791,-1.4435,-1.426,-1.4101,-1.4043,-1.3734,-1.2607,-1.0886,-0.9579,-0.9579,-0.8197,-0.719,-0.719,-0.7163,-0.7153,-0.7183,-0.719,-0.7204,-0.7234,-0.718,-0.7139,-0.7139,-0.7037,-0.6973,-0.6973,-0.6861,-0.6797,-0.6797,-0.6651,-0.6627,-0.6749,-0.6488,-0.6468,-0.6702,-0.658,-0.6583,-0.6702,-0.6702,-0.6702,-4.4295,-4.4048,-4.2122,-3.8387,-3.4557,-3.0866,-2.7679,0.0,0.0,-2.3347,-2.3054,-2.2498,-2.1899,-2.1744,-2.1725,-2.1854,-2.2993,-2.4794,0.0,0.0,0.0,0.0,0.0,0.0,0.0,0.0,0.0,0.0,0.0,-1.3652,-1.2674,-1.1057,-1.0261,-1.0294,-0.8991,-0.8925,-1.0048,-0.8755,-0.8062,-0.8062,-0.8045,-0.8038,-0.8038,-0.8038,-0.8726,-1.0096,-1.1268,-1.2522,0.0,-1.5114,-1.5551,-1.5464,-1.5698,-1.5645,-1.5471,-1.5732,-1.5832,-1.5832,-1.5832,-1.5832,-1.5832,-1.5832,-1.5832,-1.5832,-1.5832,-1.5832,-1.5832,-1.5832,-1.5832,-1.5899,-1.6192,-1.6273,-1.6039,-1.4791,-1.471,-1.4894,-1.4642,-1.4678,-1.4601,-1.4167,-1.1778,-0.9784,-0.9784,-0.8467,-0.735,-0.735,-0.7231,-0.719,-0.7333,-0.735,-0.7404,-0.7543,-0.7305,-0.7139,-0.7139,-0.7129,-0.7122,-0.7122,-0.7105,-0.7099,-0.7099,-0.6963,-0.6895,-0.6909,-0.6746,-0.6675,-0.6702,-0.6685,-0.6685,-0.6702,-0.6702,-0.6702,-4.2181,-4.2719,-4.197,-3.9178,-3.5377,-3.1503,-2.8606,0.0,-2.3679,-2.3593,-2.3391,-2.3054,-2.2438,-2.23,-2.2184,-2.18,-2.2179,-2.3263,0.0,0.0,0.0,0.0,0.0,0.0,0.0,0.0,0.0,0.0,0.0,-1.4074,-1.2942,-1.1171,-1.0129,-0.9938,-0.8674,-0.8645,-0.9829,-0.8578,-0.8336,-0.9217,-0.8432,-0.8089,-0.8177,-0.887,-0.9958,-1.1439,-1.2581,-1.3878,0.0,-1.5635,-1.5758,-1.5665,-1.5785,-1.5758,-1.5671,-1.5785,-1.5832,-1.5832,-1.5832,-1.5832,-1.5832,-1.5832,-1.5832,-1.5832,-1.5832,-1.5952,-1.6059,-1.5879,-1.6086,-1.6183,-1.5488,-1.4214,-1.3174,-1.3434,-1.3602,-1.3811,-1.4401,-1.4524,-1.4477,-1.4376,-1.1905,-0.981,-0.981,-0.8577,-0.7509,-0.7509,-0.7458,-0.7438,-0.7502,-0.7509,-0.7533,-0.7594,-0.7489,-0.7417,-0.7417,-0.7417,-0.7377,-0.7285,-0.7278,-0.7238,-0.7143,-0.7004,-0.697,-0.7054,-0.682,-0.679,-0.6963,-0.6878,-0.6881,-0.6963,-0.6963,-0.6963,-3.9338,-4.0383,-4.0437,-3.8325,-3.4854,-3.1342,0.0,0.0,-2.4158,-2.4074,-2.3837,-2.3406,-2.2772,-2.2515,-2.2114,-2.128,-2.128,-2.1987,-2.3646,0.0,0.0,0.0,0.0,0.0,0.0,0.0,0.0,0.0,0.0,-1.4937,-1.3664,-1.1853,-1.0532,-0.9638,-0.8688,-0.8501,-0.9163,-0.8501,-0.8775,-0.9913,-0.8943,-0.8741,-0.9396,-0.9764,-1.095,-1.2756,-1.3562,-1.4657,0.0,-1.5832,-1.5832,-1.5832,-1.5832,-1.5832,-1.5832,-1.5832,-1.5885,-1.5959,-1.5959,-1.6019,-1.6072,-1.5985,-1.5959,-1.5945,-1.5852,-1.5979,-1.6119,-1.5999,-1.638,-1.6632,-1.5599,-1.3614,-1.2041,-1.328,-1.3244,-1.3198,-1.3975,-1.4303,-1.4167,-1.3363,-1.1418,-0.9702,-0.932,-0.842,-0.7662,-0.7662,-0.7628,-0.7614,-0.7655,-0.7662,-0.7678,-0.7726,-0.7729,-0.7695,-0.7607,-0.76,-0.7553,-0.7444,-0.7438,-0.739,-0.7278,-0.718,-0.7153,-0.7207,-0.7007,-0.7,-0.7207,-0.7061,-0.7065,-0.7207,-0.7163,-0.7139,-3.6078,-3.7369,-3.7424,-3.5214,-3.2733,-3.0177,0.0,-2.5354,-2.3921,-2.4989,-2.4348,-2.3376,-2.2656,-2.2062,-2.128,-2.0042,-2.0396,-2.1057,-2.1728,0.0,0.0,0.0,0.0,0.0,0.0,0.0,0.0,0.0,0.0,0.0,-1.5053,-1.367,-1.1828,-0.9347,-0.9254,-0.8707,-0.76,-0.8703,-0.9439,-0.9814,-0.9627,-1.0298,-1.1853,-1.0583,-1.1453,-1.3878,-1.3878,-1.4657,0.0,-1.5832,-1.5832,-1.5832,-1.5832,-1.5832,-1.5832,-1.5832,-1.6012,-1.6266,-1.6266,-1.646,-1.6647,-1.6359,-1.6266,-1.6213,-1.5919,-1.5832,-1.5892,-1.6186,-1.6693,-1.7148,-1.7141,-1.5223,-1.3588,-1.5091,-1.4336,-1.3259,-1.3259,-1.4063,-1.4021,-1.1254,-1.0344,-0.9604,-0.8233,-0.7909,-0.7811,-0.7811,-0.7689,-0.7651,-0.779,-0.7811,-0.7868,-0.8018,-0.8035,-0.7916,-0.7624,-0.76,-0.76,-0.7597,-0.7597,-0.7597,-0.7594,-0.7594,-0.7522,-0.737,-0.7366,-0.7366,-0.7366,-0.7214,-0.7217,-0.7366,-0.721,-0.7139,-3.2307,-3.3604,-3.4281,-3.3076,-3.0989,-2.879,-2.715,-2.5701,-2.4712,-2.4657,-2.4389,-2.3963,-2.3223,-2.2717,-2.2112,-2.1232,-2.0906,-2.0997,0.0,0.0,0.0,0.0,0.0,0.0,0.0,0.0,0.0,0.0,-1.6591,-1.5517,-1.4448,-1.4004,-1.2756,-1.0595,-0.9604,-0.9067,-0.8802,-0.8257,-0.8978,-1.0832,-1.0031,-1.0386,-1.1741,-1.2425,-1.3197,-1.4033,-1.484,-1.4949,-1.4555,-1.5439,-1.5248,-1.4561,-1.5439,-1.5832,-1.5852,-1.6059,-1.6059,-1.6025,-1.6433,-1.65,-1.6426,-1.6533,-1.6567,-1.6547,-1.646,-1.6293,-1.6233,-1.6734,-1.6375,-1.5713,-1.5891,-1.3858,-1.1864,-1.2403,-1.2077,-1.1755,-1.1755,-1.1972,-1.1882,-1.1045,-0.9725,-0.8697,-0.8299,-0.8069,-0.7967,-0.7967,-0.8018,-0.8035,-0.7974,-0.8058,-0.8102,-0.8045,-0.8038,-0.8001,-0.7909,-0.7899,-0.7855,-0.775,-0.7743,-0.7699,-0.7604,-0.76,-0.7577,-0.7529,-0.7529,-0.7529,-0.7529,-0.7373,-0.7268,-0.721,-0.7163,-0.7139,0.0,-2.918,-2.9798,-2.953,-2.8252,0.0,0.0,-2.502,-2.4552,-2.443,-2.404,-2.3611,-2.3151,-2.2289,-2.1518,-2.1063,-2.0515,-2.0299,0.0,0.0,0.0,0.0,0.0,0.0,0.0,0.0,0.0,0.0,-1.6927,-1.5869,-1.4734,-1.4328,-1.3291,-1.1603,-1.0372,-0.9318,-0.8438,-0.8173,-0.9062,-1.1247,-1.0636,-1.1313,-1.3065,-1.364,-1.4165,-1.4807,-1.5517,-1.5343,0.0,-1.5439,-1.5337,-1.4657,-1.5534,-1.5832,-1.5865,-1.6166,-1.6226,-1.6226,-1.6707,-1.6754,-1.6633,-1.6814,-1.68,-1.6707,-1.6707,-1.666,-1.6653,-1.6907,-1.6504,-1.607,-1.6237,-1.4126,-1.2077,-1.2615,-1.186,-1.1105,-1.1105,-1.0957,-1.0699,-1.0103,-0.9097,-0.8333,-0.8279,-0.8235,-0.8204,-0.8204,-0.8289,-0.8316,-0.8218,-0.8245,-0.8255,-0.8211,-0.8106,-0.8085,-0.8197,-0.8102,-0.8024,-0.7987,-0.7929,-0.7858,-0.777,-0.7767,-0.774,-0.7682,-0.7678,-0.7678,-0.7678,-0.7584,-0.7431,-0.7227,-0.7227,-0.7197,0.0,-2.4338,0.0,0.0,0.0,0.0,-2.3581,-2.355,0.0,-2.4307,-2.3529,-2.272,-2.2532,-2.1069,-1.9888,-1.9798,-1.9351,0.0,0.0,0.0,0.0,0.0,0.0,0.0,0.0,0.0,0.0,0.0,-1.7989,-1.6919,-1.5749,-1.4803,-1.3711,-1.2304,-1.137,-0.974,-0.7401,-0.8452,-0.9758,-1.1191,-1.1333,-1.2751,-1.5344,-1.4376,-1.4613,0.0,-1.5798,-1.571,-1.5635,-1.573,-1.573,-1.5635,-1.573,-1.5832,-1.5865,-1.6166,-1.644,-1.672,-1.7041,-1.7134,-1.7121,-1.7141,-1.6961,-1.674,-1.674,-1.6934,-1.7094,-1.6814,-1.7141,-1.7582,-1.7582,-1.5423,-1.3588,-1.4984,-1.3048,-1.0891,-1.0891,-1.0862,-1.0371,-0.8853,-0.8506,-0.8459,-0.8326,-0.8404,-0.8482,-0.8482,-0.8489,-0.8496,-0.8482,-0.8377,-0.8347,-0.8469,-0.8235,-0.8187,-0.8472,-0.8228,-0.8116,-0.8262,-0.8136,-0.8052,-0.8038,-0.8038,-0.7974,-0.7831,-0.7828,-0.7821,-0.7811,-0.7811,-0.7665,-0.7387,-0.7377,-0.7299,-2.0103,0.0,-2.192,-2.247,-2.2879,-2.3125,0.0,-2.3578,-2.4225,-2.4389,0.0,0.0,-2.26,-2.1069,-1.9888,-1.9798,-1.9351,0.0,0.0,0.0,0.0,0.0,0.0,0.0,0.0,0.0,0.0,-1.9116,-1.8718,-1.7692,-1.5506,-1.6141,-1.5158,-1.2123,-1.2788,-1.2122,-0.9831,-1.0091,-1.0809,-1.1986,-1.2329,-1.3206,-1.4736,-1.4753,-1.5002,-1.5498,-1.5498,-1.5049,-1.4459,-1.5439,-1.5242,-1.4459,-1.5439,-1.5832,-1.5865,-1.6166,-1.6319,-1.6453,-1.6967,-1.7001,-1.6847,-1.7074,-1.7101,-1.7048,-1.7048,-1.7094,-1.7134,-1.7061,-1.7301,-1.7582,-1.7582,-1.5423,-1.3372,-1.3696,-1.1538,-0.9372,-0.9372,-0.9343,-0.9308,-0.8838,-0.8737,-0.8645,-0.8615,-0.8537,-0.8482,-0.8482,-0.8581,-0.8615,-0.8499,-0.8557,-0.8574,-0.8489,-0.8421,-0.8452,-0.8638,-0.8387,-0.8231,-0.8269,-0.8238,-0.8163,-0.8045,-0.8038,-0.8021,-0.7987,-0.7984,-0.7929,-0.7811,-0.7811,-0.7719,-0.7543,-0.7424,-0.7414,-1.8892,-1.9273,-1.9767,-2.0337,-2.1376,-2.2239,-2.2239,0.0,0.0,0.0,0.0,0.0,0.0,0.0,0.0,0.0,-1.9351,0.0,0.0,0.0,0.0,0.0,0.0,0.0,0.0,0.0,0.0,-1.9766,-1.9109,-1.7865,-1.6166,-1.6181,-1.5146,-1.2795,-1.3548,-1.2917,-1.0611,-1.0611,-1.1209,-1.2328,-1.2679,-1.3161,-1.3717,-1.4002,-1.4377,-1.4644,-1.4644,-1.4315,-1.3974,-1.5242,-1.4663,-1.3102,-1.4459,-1.4561,-1.4112,-1.5064,-1.5442,-1.5719,-1.6784,-1.7041,-1.6894,-1.6787,-1.684,-1.6974,-1.7108,-1.7148,-1.7148,-1.7148,-1.7361,-1.747,-1.6823,-1.499,-1.3161,-1.2403,-1.0566,-0.894,-0.894,-0.894,-0.8916,-0.8849,-0.8825,-0.8794,-0.8723,-0.8699,-0.8693,-0.8693,-0.876,-0.8784,-0.8703,-0.8703,-0.8706,-0.8693,-0.8567,-0.857,-0.8798,-0.8604,-0.8472,-0.8472,-0.8347,-0.8235,-0.815,-0.8075,-0.8038,-0.8038,-0.8038,-0.7997,-0.7916,-0.7916,-0.7841,-0.7695,-0.7611,-0.7584,-1.8862,-1.8671,-1.8528,-1.8915,-2.0425,-2.1824,-2.1727,0.0,0.0,0.0,0.0,0.0,0.0,0.0,0.0,0.0,0.0,0.0,0.0,0.0,0.0,0.0,0.0,0.0,0.0,-2.0304,-2.0304,-2.0469,-1.896,-1.7613,-1.6763,-1.5811,-1.475,-1.3574,-1.4027,-1.325,-1.1128,-1.1128,-1.1643,-1.2595,-1.2638,-1.2744,-1.275,-1.2802,-1.3053,-1.3582,0.0,0.0,-1.3915,-1.5222,-1.437,-1.2334,-1.3488,-1.3199,-1.2355,-1.3728,-1.4465,-1.4927,-1.6508,-1.7041,-1.6994,-1.6242,-1.6269,-1.676,-1.685,-1.7071,-1.7215,-1.7001,-1.7284,-1.7252,-1.5743,-1.4341,-1.294,-1.1428,-1.0025,-0.894,-0.894,-0.894,-0.8899,-0.8771,-0.8849,-0.8899,-0.8767,-0.8852,-0.894,-0.894,-0.894,-0.894,-0.894,-0.8825,-0.8794,-0.8923,-0.8706,-0.8655,-0.8916,-0.8818,-0.8747,-0.8747,-0.8489,-0.8326,-0.8303,-0.8177,-0.8106,-0.8106,-0.8106,-0.8096,-0.8075,-0.8075,-0.7997,-0.7845,-0.7821,-0.776,-1.8879,-1.9265,-1.9547,-1.9094,-2.0786,-2.2415,-2.1826,0.0,0.0,0.0,0.0,0.0,0.0,0.0,0.0,0.0,0.0,0.0,0.0,0.0,0.0,0.0,0.0,0.0,0.0,-1.8826,-1.9154,-1.9934,-1.7988,-1.648,-1.6021,-1.6145,-1.5327,-1.3353,-1.4503,-1.4625,-1.3561,-1.3561,-1.3646,-1.3822,-1.2808,-1.2386,-1.2386,-1.1392,-1.1712,-1.2939,0.0,-1.332,-1.3567,-1.5145,-1.4949,-1.359,-1.3776,-1.3776,-1.359,-1.3823,-1.4096,-1.4523,-1.598,-1.6567,-1.6513,-1.506,-1.555,-1.6553,-1.5706,-1.6475,-1.7298,-1.6007,-1.6573,-1.7252,-1.5743,-1.4341,-1.294,-1.1428,-1.0025,-0.894,-0.894,-0.894,-0.893,-0.891,-0.8923,-0.893,-0.8906,-0.8923,-0.894,-0.894,-0.894,-0.894,-0.894,-0.8916,-0.8913,-0.8937,-0.8896,-0.8889,-0.8933,-0.8916,-0.8903,-0.8903,-0.874,-0.8584,-0.8455,-0.8428,-0.8414,-0.8414,-0.8414,-0.8353,-0.8235,-0.8235,-0.8157,-0.8001,-0.7872,-0.7868,-1.838,-1.8944,-1.9377,-1.9031,-2.0854,-2.2536,-2.1858,0.0,0.0,0.0,0.0,0.0,0.0,0.0,0.0,0.0,0.0,0.0,0.0,0.0,0.0,0.0,0.0,0.0,-1.9066,-1.8508,-1.8357,-1.8807,-1.7129,-1.579,-1.5043,-1.5111,-1.4531,-1.3037,-1.3787,-1.4024,-1.3614,-1.3768,-1.358,-1.3118,-1.2589,-1.1638,-1.0438,-0.9923,-1.0474,-1.1844,0.0,-1.1672,-1.2465,-1.3295,-1.2909,-1.1741,-1.1741,-1.1741,-1.197,-1.2902,-1.436,-1.5916,-1.6539,-1.6312,-1.5526,-1.464,-1.4248,-1.4109,-1.3885,-1.4286,-1.4844,-1.4377,-1.531,-1.5849,-1.3696,-1.262,-1.1755,-1.0241,-0.9372,-0.894,-0.894,-0.894,-0.894,-0.894,-0.894,-0.894,-0.894,-0.894,-0.894,-0.894,-0.894,-0.894,-0.894,-0.894,-0.894,-0.894,-0.894,-0.894,-0.894,-0.894,-0.8903,-0.8821,-0.875,-0.8642,-0.8489,-0.8482,-0.8445,-0.837,-0.8367,-0.8296,-0.8147,-0.8147,-0.8109,-0.8038,-0.7967,-0.7974,-1.8143,-1.8597,-1.8889,-1.8893,0.0,-2.2497,-2.1859,0.0,0.0,0.0,0.0,0.0,0.0,0.0,0.0,0.0,0.0,0.0,0.0,0.0,0.0,0.0,0.0,-1.9111,-1.9154,-1.8082,-1.7483,-1.7714,-1.5995,-1.4762,-1.4267,-1.3903,-1.3497,-1.2815,-1.2979,-1.3133,-1.3213,-1.3179,-1.2839,-1.2234,-1.2043,-1.0869,-0.889,-0.8627,-0.9226,-1.0529,-0.9784,-1.0063,-1.107,-1.1636,-1.117,-0.9998,-0.9998,-1.0023,-1.0293,-1.2001,-1.4151,-1.6285,-1.6777,-1.6005,-1.4601,-1.4038,-1.3183,-1.247,-1.225,-1.2501,-1.272,-1.2739,-1.3588,-1.3906,-1.1647,-1.1105,-1.0781,-0.9265,-0.894,-0.894,-0.894,-0.894,-0.894,-0.894,-0.894,-0.894,-0.894,-0.894,-0.894,-0.894,-0.894,-0.894,-0.894,-0.894,-0.894,-0.894,-0.894,-0.894,-0.894,-0.894,-0.8889,-0.8771,-0.8764,-0.8713,-0.8594,-0.8587,-0.8537,-0.8428,-0.8391,-0.8299,-0.8143,-0.8109,-0.8075,-0.8038,-0.8075,-0.8075,-1.8697,-1.8592,-1.8425,-1.8793,-2.0808,0.0,-2.1864,-2.2644,0.0,-2.201,0.0,0.0,0.0,0.0,0.0,0.0,0.0,0.0,0.0,0.0,0.0,0.0,-1.9036,-1.9125,-1.8711,-1.6982,-1.6328,-1.7153,-1.4313,-1.2914,-1.371,-1.2914,-1.2533,-1.2815,-1.2842,-1.2919,-1.3206,-1.2252,-1.1897,-1.1892,-1.1107,-1.0096,-0.889,-0.7753,-0.7933,-0.9104,-0.9366,-0.944,-0.9575,-1.1192,-1.117,-0.9998,-0.9998,-1.0099,-1.0348,-1.1888,-1.2674,-1.3399,-1.5607,-1.5581,-1.4297,-1.2841,-1.3306,-1.3931,-1.1686,-1.2093,-1.3009,-1.1638,-1.1324,-1.1324,-1.1105,-1.1105,-1.0781,-0.9265,-0.894,-0.894,-0.894,-0.894,-0.894,-0.894,-0.894,-0.894,-0.894,-0.894,-0.894,-0.894,-0.894,-0.894,-0.894,-0.894,-0.894,-0.894,-0.894,-0.894,-0.894,-0.894,-0.8933,-0.8923,-0.8923,-0.8916,-0.8906,-0.8906,-0.8903,-0.8893,-0.875,-0.8604,-0.8448,-0.8319,-0.818,-0.8041,-0.8187,-0.8177,-1.724,-1.7555,-1.7801,-1.8263,-2.0251,0.0,0.0,-2.2187,-2.281,-2.1882,-2.1915,0.0,0.0,0.0,0.0,0.0,0.0,0.0,0.0,0.0,0.0,-1.84,-1.7643,-1.7055,-1.6711,-1.5177,-1.4308,-1.4519,-1.2977,-1.2175,-1.2527,-1.2424,-1.2351,-1.2465,-1.2472,-1.2525,-1.2645,-1.2434,-1.1691,-1.0429,-0.9731,-0.8854,-0.7753,-0.7316,-0.7753,-0.8903,-0.8438,-0.8602,-0.927,-0.9332,-0.96,-0.9998,-0.9998,-1.0108,-1.0382,-1.111,-1.2048,-1.3005,-1.3973,-1.3355,-1.212,-1.1378,-1.0923,-1.0514,-0.9665,-0.9863,-1.0277,-0.9859,-0.9699,-0.9699,-0.9699,-0.9699,-0.9588,-0.9047,-0.894,-0.894,-0.894,-0.894,-0.894,-0.894,-0.894,-0.894,-0.894,-0.894,-0.894,-0.894,-0.894,-0.894,-0.894,-0.894,-0.894,-0.894,-0.894,-0.894,-0.894,-0.894,-0.894,-0.894,-0.894,-0.894,-0.894,-0.894,-0.8896,-0.8798,-0.874,-0.8635,-0.8482,-0.834,-0.8241,-0.8184,-0.8245,-0.8238,-1.6086,-1.6389,-1.669,-1.7422,0.0,0.0,-2.0386,-2.1857,-2.3121,-2.2479,-2.2051,0.0,0.0,0.0,0.0,0.0,0.0,0.0,0.0,0.0,-1.8532,-1.7684,-1.6505,-1.5674,-1.5542,-1.4112,-1.3089,-1.2931,-1.2165,-1.177,-1.1864,-1.2058,-1.2164,-1.2164,-1.2258,-1.2258,-1.2164,-1.2146,-1.1289,-0.9562,-0.8886,-0.8029,-0.7075,-0.7119,-0.7577,-0.8288,-0.7663,-0.7908,-0.8715,-0.8034,-0.8384,-0.941,-0.941,-0.9518,-0.9794,-1.0475,-1.1032,-1.1672,-1.2611,-1.194,-1.0602,-1.045,-0.9669,-0.89,-0.8539,-0.8516,-0.8598,-0.8808,-0.8903,-0.894,-0.894,-0.894,-0.894,-0.894,-0.894,-0.894,-0.894,-0.894,-0.894,-0.894,-0.894,-0.894,-0.894,-0.894,-0.894,-0.894,-0.894,-0.894,-0.894,-0.894,-0.894,-0.894,-0.894,-0.894,-0.894,-0.894,-0.894,-0.894,-0.894,-0.894,-0.894,-0.894,-0.8889,-0.8784,-0.8733,-0.8659,-0.8554,-0.8364,-0.8292,-0.8336,-0.8336,-0.8336,-1.5535,-1.5297,-1.5158,0.0,0.0,0.0,-1.8963,-2.1934,-2.4385,-2.38,0.0,0.0,0.0,0.0,0.0,0.0,0.0,0.0,0.0,0.0,-1.7207,-1.6714,-1.5982,-1.5505,-1.5505,-1.3884,-1.2908,-1.29,-1.1962,-1.155,-1.1844,-1.1864,-1.1864,-1.187,-1.2144,-1.2164,-1.1877,-1.1181,-1.0429,-0.97,-0.8733,-0.7772,-0.6936,-0.7078,-0.7139,-0.7149,-0.7302,-0.7458,-0.7611,-0.7753,-0.7902,-0.8038,-0.8038,-0.8133,-0.8487,-1.0063,-0.9715,-0.8891,-1.1564,-1.1536,-1.0163,-1.0159,-1.0159,-0.9994,-0.8845,-0.8587,-0.871,-0.871,-0.8821,-0.894,-0.894,-0.894,-0.894,-0.894,-0.894,-0.894,-0.894,-0.894,-0.894,-0.894,-0.894,-0.894,-0.894,-0.894,-0.894,-0.894,-0.894,-0.894,-0.894,-0.894,-0.894,-0.894,-0.894,-0.894,-0.894,-0.894,-0.894,-0.894,-0.894,-0.894,-0.894,-0.894,-0.894,-0.894,-0.8791,-0.8713,-0.8713,-0.8418,-0.8347,-0.8482,-0.8482,-0.8482,-1.452,-1.4997,0.0,0.0,0.0,0.0,0.0,-2.1226,0.0,0.0,0.0,0.0,0.0,0.0,0.0,-1.9642,-1.8422,-1.7347,-1.7314,-1.6852,-1.621,-1.5517,-1.4602,-1.3984,-1.3783,-1.2409,-1.149,-1.1281,-1.12,-1.1162,-1.1249,-1.145,-1.1657,-1.1864,-1.1951,-1.2051,-1.2171,-1.1957,-1.1396,-1.0483,-0.9637,-0.8493,-0.7078,-0.7122,-0.7139,-0.7143,-0.7187,-0.7356,-0.7617,-0.7868,-0.7936,-0.7889,-0.7997,-0.8001,-0.8076,-0.874,-0.8738,-0.8433,-0.9244,-0.9286,-0.8991,-0.8769,-0.8772,-0.878,-0.8422,-0.8435,-0.857,-0.8679,-0.8821,-0.894,-0.894,-0.894,-0.894,-0.894,-0.894,-0.894,-0.894,-0.894,-0.894,-0.894,-0.894,-0.894,-0.894,-0.894,-0.894,-0.894,-0.894,-0.894,-0.894,-0.894,-0.894,-0.894,-0.894,-0.894,-0.894,-0.894,-0.894,-0.894,-0.894,-0.894,-0.894,-0.894,-0.894,-0.894,-0.8896,-0.8869,-0.8869,-0.8567,-0.8496,-0.8638,-0.8533,-0.854,-1.3982,-1.4881,0.0,0.0,0.0,0.0,0.0,0.0,0.0,0.0,0.0,0.0,0.0,0.0,0.0,-1.8983,-1.7806,-1.6608,-1.6081,-1.5813,-1.5247,-1.4276,-1.3322,-1.268,-1.2536,-1.1524,-1.0748,-1.0638,-1.0722,-1.0868,-1.0982,-1.1156,-1.139,-1.1683,-1.1804,-1.1951,-1.2131,-1.1864,-1.1216,-1.0253,-0.9449,-0.8288,-0.697,-0.7088,-0.7139,-0.7143,-0.7207,-0.7373,-0.7617,-0.7851,-0.7929,-0.7913,-0.8004,-0.7984,-0.7933,-0.8177,-0.8231,-0.8187,-0.8248,-0.8286,-0.8275,-0.8099,-0.8102,-0.8177,-0.8177,-0.8319,-0.8489,-0.8526,-0.873,-0.8923,-0.8862,-0.8893,-0.894,-0.894,-0.894,-0.894,-0.894,-0.894,-0.894,-0.894,-0.894,-0.894,-0.894,-0.894,-0.894,-0.894,-0.894,-0.8944,-0.895,-0.8954,-0.8846,-0.8853,-0.8856,-0.8856,-0.8856,-0.8846,-0.8954,-0.8954,-0.8944,-0.894,-0.894,-0.894,-0.894,-0.894,-0.894,-0.894,-0.894,-0.8693,-0.8621,-0.871,-0.8615,-0.8621,-1.3692,0.0,0.0,0.0,0.0,0.0,0.0,0.0,0.0,0.0,0.0,0.0,0.0,0.0,-1.7723,-1.8181,-1.6981,-1.5754,-1.4939,-1.4816,-1.4373,-1.3172,-1.2266,-1.1834,-1.1834,-1.1045,-1.0624,-1.0624,-1.0624,-1.0739,-1.0942,-1.0955,-1.1089,-1.1376,-1.167,-1.1844,-1.187,-1.1181,-1.0371,-0.9579,-0.8505,-0.758,-0.6854,-0.697,-0.7109,-0.7129,-0.7299,-0.7451,-0.759,-0.7746,-0.7879,-0.798,-0.8007,-0.8011,-0.8018,-0.817,-0.8147,-0.8058,-0.8201,-0.8157,-0.8038,-0.8038,-0.8038,-0.8038,-0.8038,-0.8238,-0.8435,-0.8306,-0.8584,-0.8886,-0.8747,-0.8825,-0.894,-0.894,-0.894,-0.894,-0.894,-0.894,-0.894,-0.894,-0.894,-0.894,-0.894,-0.894,-0.894,-0.894,-0.894,-0.8947,-0.886,-0.8863,-0.8755,-0.8549,-0.8549,-0.8549,-0.8549,-0.8533,-0.8634,-0.8863,-0.8846,-0.8947,-0.8947,-0.894,-0.894,-0.894,-0.894,-0.894,-0.894,-0.8784,-0.8716,-0.873,-0.8716,-0.8716,-1.2816,-1.428,0.0,0.0,0.0,0.0,0.0,0.0,0.0,0.0,0.0,0.0,0.0,0.0,-1.7611,-1.7712,-1.6503,-1.5252,-1.4459,-1.4339,-1.4003,-1.3139,-1.2266,-1.1834,-1.1834,-1.1045,-1.0624,-1.0624,-1.0624,-1.0651,-1.0648,-1.0719,-1.0788,-1.1076,-1.1369,-1.163,-1.1864,-1.1181,-1.0738,-1.0489,-0.8829,-0.7911,-0.7717,-0.7037,-0.6861,-0.699,-0.7255,-0.739,-0.7441,-0.7702,-0.7695,-0.7539,-0.777,-0.779,-0.7712,-0.7858,-0.7963,-0.8045,-0.8075,-0.8069,-0.8038,-0.8038,-0.8038,-0.8038,-0.8038,-0.817,-0.8309,-0.8279,-0.8506,-0.8754,-0.872,-0.8825,-0.894,-0.894,-0.894,-0.894,-0.894,-0.894,-0.894,-0.894,-0.894,-0.894,-0.894,-0.894,-0.894,-0.894,-0.894,-0.8947,-0.886,-0.8863,-0.8069,-0.5708,-0.5483,-0.5483,-0.5483,-0.5481,-0.6383,-0.8772,-0.8883,-0.888,-0.888,-0.8846,-0.894,-0.894,-0.894,-0.894,-0.894,-0.8784,-0.8771,-0.8886,-0.8767,-0.8774,-1.2785,0.0,0.0,0.0,0.0,0.0,0.0,0.0,0.0,0.0,0.0,0.0,0.0,0.0,-1.7578,-1.7578,-1.6358,-1.5108,-1.4323,-1.3756,-1.3101,-1.2318,-1.1479,-1.0998,-1.0998,-1.0398,-0.9977,-0.9977,-0.9977,-0.9977,-0.9977,-1.0364,-1.0695,-1.0982,-1.1142,-1.1356,-1.1657,-1.0472,-0.9854,-0.986,-0.8056,-0.7227,-0.7152,-0.6841,-0.6783,-0.6939,-0.7092,-0.7241,-0.7383,-0.7536,-0.7553,-0.7495,-0.7648,-0.7706,-0.7709,-0.7784,-0.7909,-0.8038,-0.8038,-0.8038,-0.8038,-0.8038,-0.8038,-0.8038,-0.8038,-0.8147,-0.8272,-0.8272,-0.8431,-0.8618,-0.8693,-0.8716,-0.8757,-0.8903,-0.894,-0.894,-0.894,-0.894,-0.894,-0.894,-0.8947,-0.8954,-0.894,-0.894,-0.894,-0.894,-0.894,-0.895,-0.8873,-0.7624,-0.5704,-0.2685,-0.2349,-0.2349,-0.2349,-0.2346,-0.3016,-0.4587,-0.6049,-0.6839,-0.6839,-0.6824,-0.7487,-0.8843,-0.8846,-0.895,-0.894,-0.8859,-0.8821,-0.8828,-0.8821,-0.8821,-1.275,0.0,0.0,0.0,0.0,0.0,0.0,0.0,0.0,0.0,0.0,0.0,0.0,-1.8501,-1.7578,-1.7413,-1.6301,-1.5177,-1.451,-1.3405,-1.2362,-1.1642,-1.0696,-1.0114,-1.0114,-0.9575,-0.9221,-0.9268,-0.9274,-0.9274,-0.9274,-1.011,-1.0675,-1.0909,-1.0969,-1.1109,-1.1349,-0.963,-0.8757,-0.8797,-0.7087,-0.6338,-0.6271,-0.6515,-0.6722,-0.6892,-0.6915,-0.7082,-0.7333,-0.736,-0.7431,-0.7526,-0.758,-0.7672,-0.7777,-0.7801,-0.7909,-0.8038,-0.8038,-0.8038,-0.8038,-0.8038,-0.8038,-0.8038,-0.8038,-0.813,-0.8231,-0.8231,-0.8333,-0.8482,-0.8635,-0.8581,-0.856,-0.8759,-0.8813,-0.891,-0.8933,-0.8944,-0.8944,-0.894,-0.8937,-0.894,-0.895,-0.8927,-0.8913,-0.894,-0.894,-0.8846,-0.889,-0.6274,-0.3354,-0.0336,0.0,0.0,0.0,0.0,0.0,0.0,-0.2346,-0.3914,-0.4475,-0.4475,-0.5708,-0.8298,-0.8749,-0.885,-0.894,-0.894,-0.8872,-0.8754,-0.8879,-0.8869,0.0,0.0,0.0,0.0,0.0,0.0,0.0,0.0,0.0,0.0,0.0,0.0,0.0,-1.8167,-1.7413,-1.6765,-1.5921,-1.5352,-1.5225,-1.3921,-1.2819,-1.2447,-1.1063,-1.0114,-1.0114,-0.9334,-0.9009,-0.9256,-0.9274,-0.9274,-0.9274,-1.011,-1.0645,-1.0678,-1.0862,-1.1009,-1.1049,-0.946,-0.8689,-0.8797,-0.7087,-0.6338,-0.6264,-0.6302,-0.6471,-0.6739,-0.6871,-0.7021,-0.718,-0.7316,-0.7302,-0.7227,-0.7495,-0.7611,-0.7641,-0.7767,-0.7909,-0.8038,-0.8038,-0.8038,-0.8038,-0.8038,-0.8038,-0.8038,-0.8038,-0.8055,-0.8069,-0.8069,-0.818,-0.8336,-0.8391,-0.8404,-0.8564,-0.8663,-0.8643,-0.8689,-0.8913,-0.8954,-0.8853,-0.8944,-0.8852,-0.8934,-0.8863,-0.8872,-0.8927,-0.895,-0.895,-0.8846,-0.889,-0.6274,-0.3354,-0.0336,0.0,0.0,0.0,0.0,0.0,0.0,-0.0336,-0.1793,-0.438,-0.4494,-0.5052,-0.6396,-0.8075,-0.885,-0.894,-0.894,-0.8927,-0.891,-0.893,-0.8927,-1.1933,0.0,0.0,0.0,0.0,0.0,0.0,0.0,0.0,0.0,0.0,0.0,0.0,-1.7468,-1.674,-1.6511,-1.5662,-1.4965,-1.4777,-1.3418,-1.2282,-1.1725,-1.0401,-0.9568,-0.9568,-0.8622,-0.8023,-0.8137,-0.8329,-0.8406,-0.8406,-0.9819,-1.0624,-1.0624,-1.0681,-1.0755,-1.0755,-0.9209,-0.7981,-0.72,-0.6561,-0.6338,-0.6338,-0.6338,-0.642,-0.6705,-0.6773,-0.6932,-0.7146,-0.7214,-0.7204,-0.7153,-0.7288,-0.7448,-0.7607,-0.7672,-0.7838,-0.8038,-0.8038,-0.8038,-0.8038,-0.8038,-0.8038,-0.8038,-0.8038,-0.8038,-0.8058,-0.8143,-0.8153,-0.8194,-0.833,-0.8334,-0.833,-0.8555,-0.8464,-0.792,-0.6699,-0.7781,-0.8863,-0.8866,-0.7515,-0.592,-0.4237,-0.5731,-0.768,-0.8725,-0.8853,-0.886,-0.8893,-0.7756,-0.5158,-0.0448,0.0,0.0,0.0,0.0,0.0,0.0,0.0,-0.0561,-0.1908,-0.202,-0.2241,-0.2683,-0.6725,-0.887,-0.8846,-0.8947,-0.894,-0.894,-0.894,-0.894,0.0,0.0,0.0,0.0,0.0,0.0,0.0,0.0,0.0,0.0,0.0,0.0,-1.6761,-1.6424,-1.5888,-1.5777,-1.5027,-1.4345,-1.3972,-1.2746,-1.1567,-1.0729,-0.9792,-0.9128,-0.8955,-0.7868,-0.7229,-0.7284,-0.7374,-0.737,-0.737,-0.9241,-1.0301,-1.0301,-1.0498,-1.0491,-1.0301,-0.865,-0.722,-0.5922,-0.6112,-0.6203,-0.6203,-0.6244,-0.64,-0.6644,-0.6644,-0.681,-0.7088,-0.7088,-0.7109,-0.7143,-0.7183,-0.7363,-0.76,-0.76,-0.7787,-0.8035,-0.7994,-0.8007,-0.8038,-0.8038,-0.8038,-0.8038,-0.8038,-0.8038,-0.8065,-0.818,-0.8133,-0.8109,-0.8267,-0.8137,-0.8087,-0.8381,-0.8233,-0.7529,-0.599,-0.7312,-0.8876,-0.8897,-0.7089,-0.4388,-0.0669,-0.308,-0.6354,-0.8618,-0.8866,-0.8641,-0.7862,-0.8447,-0.6634,-0.0673,0.0,0.0,0.0,0.0,0.0,0.0,0.0,0.0,0.0,0.0,0.0,0.0,-0.515,-0.8196,-0.8863,-0.895,-0.894,-0.894,-0.894,-0.894,0.0,0.0,0.0,0.0,0.0,0.0,0.0,0.0,0.0,0.0,0.0,0.0,-1.4479,-1.4951,-1.4911,-1.3922,-1.3702,-1.3531,-1.3141,-1.2067,-1.0946,-0.9985,-0.9442,-0.8955,-0.8341,-0.7429,-0.7009,-0.7274,-0.6766,-0.6446,-0.6446,-0.8292,-0.9338,-0.9338,-1.0174,-1.0174,-0.9402,-0.7784,-0.6543,-0.5616,-0.5905,-0.604,-0.6047,-0.6193,-0.6342,-0.6485,-0.6485,-0.6658,-0.6939,-0.6939,-0.7017,-0.7153,-0.7302,-0.7458,-0.76,-0.76,-0.7787,-0.8018,-0.7872,-0.7919,-0.8038,-0.8038,-0.8038,-0.8038,-0.8038,-0.8038,-0.8041,-0.8048,-0.7962,-0.8009,-0.7971,-0.8008,-0.7978,-0.8072,-0.8037,-0.8081,-0.8557,-0.8803,-0.8897,-0.891,-0.8796,-0.6843,-0.1006,-0.2536,-0.5595,-0.8415,-0.8876,-0.7844,-0.5142,-0.719,-0.6634,-0.0673,0.0,0.0,0.0,0.0,0.0,0.0,0.0,0.0,0.0,0.0,0.0,0.0,-0.3131,-0.6151,-0.8863,-0.895,-0.894,-0.894,-0.894,-0.894,0.0,0.0,0.0,0.0,0.0,0.0,0.0,0.0,0.0,0.0,0.0,0.0,-1.2791,-1.3234,-1.3578,-1.3296,-1.2694,-1.2184,-1.1913,-1.0857,-0.9811,-0.9105,-0.8161,-0.764,-0.7864,-0.7143,-0.6955,-0.7539,-0.714,-0.6913,-0.6983,-0.8309,-0.9155,-0.9268,-0.9594,-0.9069,-0.7632,-0.7176,-0.6466,-0.5593,-0.5789,-0.5935,-0.603,-0.6088,-0.6193,-0.6335,-0.6335,-0.6563,-0.6936,-0.7027,-0.7095,-0.7146,-0.72,-0.7319,-0.7465,-0.7563,-0.7726,-0.7899,-0.7943,-0.7994,-0.8038,-0.8038,-0.8038,-0.8041,-0.7955,-0.7962,-0.7962,-0.7969,-0.7979,-0.7585,-0.5888,-0.6757,-0.8004,-0.8008,-0.6813,-0.523,-0.3611,-0.6172,-0.8913,-0.8897,-0.5768,-0.2531,-0.0335,-0.2536,-0.5488,-0.8425,-0.8893,-0.8542,-0.7418,-0.4935,-0.2354,-0.0224,0.0,0.0,0.0,0.0,0.0,0.0,0.0,0.0,0.0,0.0,0.0,0.0,-0.291,-0.594,-0.8893,-0.885,-0.8947,-0.885,-0.8947,-0.894,0.0,0.0,0.0,0.0,0.0,0.0,0.0,0.0,0.0,0.0,0.0,0.0,-1.1868,-1.1893,-1.1968,-1.2154,-1.1577,-1.1036,-1.0806,-0.9733,-0.8764,-0.8161,-0.72,-0.6696,-0.6961,-0.6594,-0.6528,-0.7023,-0.6683,0.0,-0.6549,-0.7928,-0.8828,-0.9268,-0.9011,-0.8156,-0.6719,-0.6518,-0.6113,-0.5515,-0.5661,-0.5783,-0.5884,-0.5983,-0.6088,-0.6186,-0.6288,-0.6529,-0.6861,-0.6953,-0.7051,-0.7139,-0.7139,-0.7234,-0.7377,-0.7428,-0.757,-0.7753,-0.7855,-0.7923,-0.797,-0.8021,-0.8038,-0.8041,-0.7959,-0.7965,-0.7975,-0.7982,-0.7995,-0.7591,-0.5847,-0.5322,-0.5331,-0.5331,-0.41,-0.2398,-0.0441,-0.3091,-0.5881,-0.5942,-0.2668,0.0,0.0,-0.2549,-0.5526,-0.8437,-0.81,-0.7753,-0.8795,-0.3701,0.0,0.0,0.0,0.0,0.0,0.0,0.0,0.0,0.0,0.0,0.0,0.0,0.0,0.0,-0.2014,-0.4933,-0.8923,-0.7958,-0.7943,-0.8863,-0.8846,-0.8947,0.0,0.0,0.0,0.0,0.0,0.0,0.0,0.0,0.0,0.0,0.0,0.0,-1.174,-1.0891,-1.0154,-1.0219,-1.023,-1.0089,-0.9684,-0.8783,-0.7875,-0.7146,-0.6779,-0.6258,-0.5542,-0.5711,-0.5821,-0.5821,-0.5437,-0.5181,-0.5185,-0.6939,-0.842,-0.921,-0.842,-0.7567,-0.6654,-0.5815,-0.5428,-0.5428,-0.5511,-0.5589,-0.5606,-0.5891,-0.6027,-0.6054,-0.6342,-0.6552,-0.6695,-0.6698,-0.6871,-0.7132,-0.7132,-0.7227,-0.7346,-0.72,-0.7336,-0.7594,-0.7597,-0.7689,-0.7831,-0.7984,-0.8035,-0.8035,-0.8041,-0.7955,-0.7972,-0.7769,-0.7792,-0.7717,-0.7717,-0.3893,0.0,0.0,0.0,0.0,0.0,0.0,0.0,0.0,0.0,0.0,0.0,-0.246,-0.5373,-0.8453,-0.6507,-0.5601,-0.8339,-0.3589,0.0,0.0,0.0,0.0,0.0,0.0,0.0,0.0,0.0,0.0,0.0,0.0,0.0,0.0,0.0,-0.2911,-0.8719,-0.5947,-0.5929,-0.8749,-0.886,-0.885,-0.9054,0.0,0.0,0.0,0.0,0.0,0.0,0.0,0.0,0.0,0.0,0.0,-1.0415,-0.9744,-0.8984,-0.8131,-0.8203,-0.8463,-0.8577,-0.7255,-0.6281,-0.6317,-0.5605,-0.5167,-0.5487,-0.6032,-0.6399,0.0,-0.642,-0.6506,-0.6708,-0.7497,-0.8091,-0.8355,-0.7502,-0.6658,-0.5752,-0.5491,-0.5428,-0.5428,-0.547,-0.5535,-0.5745,-0.5827,-0.5986,-0.6203,-0.6285,-0.6403,-0.6546,-0.6654,-0.6814,-0.6987,-0.6987,-0.7075,-0.7214,-0.7282,-0.7363,-0.7451,-0.756,-0.7631,-0.7699,-0.7751,-0.7899,-0.8028,-0.7962,-0.7995,-0.7169,-0.3325,-0.2219,-0.2221,-0.2221,-0.1126,0.0,0.0,0.0,0.0,0.0,0.0,0.0,0.0,0.0,0.0,0.0,-0.0666,-0.3019,-0.813,-0.823,-0.64,-0.2914,-0.1009,0.0,0.0,0.0,0.0,0.0,0.0,0.0,0.0,0.0,0.0,0.0,0.0,0.0,0.0,0.0,-0.1905,-0.5743,-0.4929,-0.4918,-0.5815,-0.794,-0.8947,0.0,0.0,0.0,0.0,0.0,0.0,-0.9822,-0.9948,0.0,0.0,0.0,0.0,-0.8476,-0.8286,-0.7808,-0.671,-0.6826,-0.7184,-0.7436,-0.6327,-0.558,-0.5746,-0.5008,-0.468,-0.5058,-0.5512,-0.5785,-0.5785,-0.6026,-0.6556,-0.7557,-0.8202,-0.8355,-0.8027,-0.7502,-0.6658,-0.5428,-0.5428,-0.5428,-0.5428,-0.5428,-0.545,-0.562,-0.5684,-0.5844,-0.6074,-0.6135,-0.6247,-0.639,-0.6481,-0.6678,-0.6936,-0.6993,-0.7068,-0.7153,-0.7251,-0.7285,-0.7299,-0.7366,-0.7429,-0.7556,-0.7702,-0.7106,-0.658,-0.7687,-0.7962,-0.739,-0.4243,-0.1716,0.0,0.0,0.0,0.0,0.0,0.0,0.0,0.0,0.0,0.0,0.0,0.0,0.0,0.0,0.0,-0.123,-0.4608,-0.7323,-0.6748,-0.0785,0.0,0.0,0.0,0.0,0.0,0.0,0.0,0.0,0.0,0.0,0.0,0.0,0.0,0.0,0.0,0.0,-0.0897,-0.2581,-0.2575,-0.3916,-0.6386,-0.806,-0.8947,0.0,0.0,0.0,0.0,0.0,0.0,-0.8417,-0.8619,-0.8744,0.0,0.0,0.0,-0.6819,-0.7041,-0.6876,-0.5913,-0.5867,-0.6013,-0.6247,-0.5748,-0.5378,-0.5378,-0.4842,-0.4519,-0.4519,-0.4699,-0.4779,-0.4663,-0.4999,-0.6054,-0.7847,-0.8603,-0.8683,-0.8027,-0.7832,-0.699,-0.5428,-0.5428,-0.5428,-0.5428,-0.5428,-0.5435,-0.5459,-0.5528,-0.5677,-0.5833,-0.5969,-0.6118,-0.6264,-0.6278,-0.6529,-0.6915,-0.7041,-0.7112,-0.7143,-0.7078,-0.7071,-0.7078,-0.7138,-0.7197,-0.7407,-0.7553,-0.5764,-0.4098,-0.7079,-0.8001,-0.7922,-0.7305,-0.3636,0.0,0.0,0.0,0.0,0.0,0.0,0.0,0.0,0.0,0.0,0.0,0.0,0.0,0.0,0.0,0.0,0.0,-0.4489,-0.5956,-0.0673,0.0,0.0,0.0,0.0,0.0,0.0,0.0,0.0,0.0,0.0,0.0,0.0,0.0,0.0,0.0,0.0,0.0,0.0,0.0,-0.2688,-0.7979,-0.8641,-0.8853,0.0,0.0,0.0,0.0,0.0,0.0,-0.7943,-0.8663,-0.9328,0.0,0.0,0.0,0.0,-0.7972,-0.6976,-0.6311,-0.5173,-0.4704,-0.541,-0.5061,-0.4677,-0.4677,-0.457,-0.4519,-0.4519,-0.5033,-0.5108,-0.4563,-0.5424,-0.6481,-0.7669,-0.7407,-0.7437,-0.7962,-0.6666,-0.5752,-0.5428,-0.5428,-0.5428,-0.5428,-0.5428,-0.5426,-0.5545,-0.5576,-0.5735,-0.5986,-0.6017,-0.6118,-0.6271,-0.6383,-0.6556,-0.6749,-0.6776,-0.6932,-0.7143,-0.7078,-0.7081,-0.7084,-0.7128,-0.7155,-0.7195,-0.725,-0.4338,-0.1727,-0.6482,-0.8018,-0.7098,-0.2726,-0.0808,0.0,0.0,0.0,0.0,0.0,0.0,0.0,0.0,0.0,0.0,0.0,0.0,0.0,0.0,0.0,0.0,0.0,-0.1009,-0.1345,-0.0112,0.0,0.0,0.0,0.0,0.0,0.0,0.0,0.0,0.0,0.0,0.0,0.0,0.0,0.0,0.0,0.0,0.0,0.0,0.0,-0.0559,-0.1899,-0.6712,-0.886,0.0,0.0,0.0,-0.5679,0.0,0.0,0.0,-0.742,-0.8183,-0.7482,-0.7697,-0.7904,-0.7586,0.0,-0.6674,-0.562,-0.5209,-0.4936,-0.4673,-0.447,-0.4382,-0.4508,-0.4399,-0.4385,-0.4512,-0.4718,-0.479,-0.4622,-0.5517,-0.6378,-0.7049,-0.7157,-0.726,-0.7367,-0.6531,-0.5815,-0.5428,-0.5428,-0.5432,-0.5369,-0.5369,-0.541,-0.5484,-0.5484,-0.5644,-0.5915,-0.5915,-0.6047,-0.6274,-0.6344,-0.6495,-0.6639,-0.6787,-0.6959,-0.7078,-0.7091,-0.6364,-0.5186,-0.3935,-0.5116,-0.7058,-0.7131,-0.3883,-0.0471,-0.3179,-0.4055,-0.3435,-0.0707,0.0,0.0,0.0,0.0,0.0,0.0,0.0,0.0,0.0,0.0,0.0,0.0,0.0,0.0,0.0,0.0,0.0,0.0,0.0,0.0,0.0,0.0,0.0,0.0,0.0,0.0,0.0,0.0,0.0,0.0,0.0,0.0,0.0,0.0,0.0,0.0,0.0,0.0,0.0,0.0,0.0,-0.0112,-0.458,-0.7502,0.0,0.0,0.0,0.0,0.0,-0.6234,0.0,0.0,0.0,0.0,0.0,0.0,0.0,0.0,0.0,0.0,0.0,0.0,0.0,-0.4076,0.0,-0.4402,-0.4294,-0.4273,-0.4501,-0.4358,-0.4389,-0.4629,-0.535,-0.591,-0.6311,-0.6915,-0.7026,-0.6711,-0.6527,-0.6141,-0.5428,-0.5428,-0.5369,-0.5379,-0.5036,-0.49,-0.4903,-0.5243,-0.5535,-0.5738,-0.5734,-0.5983,-0.6278,-0.6327,-0.6394,-0.6546,-0.6263,-0.6508,-0.7101,-0.7108,-0.5922,-0.3844,-0.0984,-0.251,-0.5768,-0.5768,-0.3105,0.0,0.0,0.0,0.0,0.0,0.0,0.0,0.0,0.0,0.0,0.0,0.0,0.0,0.0,0.0,0.0,0.0,0.0,0.0,0.0,0.0,0.0,0.0,0.0,0.0,0.0,0.0,0.0,0.0,0.0,0.0,0.0,0.0,0.0,0.0,0.0,0.0,0.0,0.0,0.0,0.0,0.0,0.0,0.0,0.0,0.0,-0.0112,-0.3128,-0.6042,0.0,0.0,0.0,0.0,-0.4244,0.0,0.0,0.0,-0.6229,-0.6171,0.0,0.0,0.0,0.0,0.0,0.0,0.0,0.0,-0.4118,-0.4036,-0.4053,-0.42,-0.4086,-0.4155,-0.4491,-0.4501,-0.4508,-0.4539,-0.4727,-0.5225,-0.6186,-0.5674,-0.5766,-0.665,-0.5943,-0.5491,-0.5428,-0.5372,-0.5376,-0.5379,-0.3754,-0.3013,-0.308,-0.4697,-0.5408,-0.5475,-0.5614,-0.5932,-0.6295,-0.6312,-0.6341,-0.6185,-0.427,-0.5007,-0.7104,-0.7125,-0.6949,-0.6037,-0.1526,-0.0359,-0.0809,-0.0809,-0.0461,0.0,0.0,0.0,0.0,0.0,0.0,0.0,0.0,0.0,0.0,0.0,0.0,0.0,0.0,0.0,0.0,0.0,0.0,0.0,0.0,0.0,0.0,0.0,0.0,0.0,0.0,0.0,0.0,0.0,0.0,0.0,0.0,0.0,0.0,0.0,0.0,0.0,0.0,0.0,0.0,0.0,0.0,0.0,0.0,0.0,0.0,-0.0112,-0.3131,-0.6051,0.0,0.0,0.0,0.0,0.0,0.0,-0.4476,0.0,-0.6064,0.0,0.0,0.0,0.0,0.0,0.0,0.0,-0.575,0.0,0.0,0.0,-0.3853,0.0,0.0,0.0,-0.4202,-0.4287,-0.4338,-0.4338,-0.4555,-0.4931,-0.5446,-0.5237,-0.5392,-0.5939,-0.5624,-0.5432,-0.5372,-0.5376,-0.5386,-0.5399,-0.4648,-0.3155,-0.1138,-0.194,-0.3386,-0.5334,-0.4367,-0.4115,-0.4548,-0.5756,-0.629,-0.6105,-0.3955,-0.3059,-0.3351,-0.61,-0.5315,-0.2695,-0.0719,0.0,0.0,0.0,0.0,0.0,0.0,0.0,0.0,0.0,0.0,0.0,0.0,0.0,0.0,0.0,0.0,0.0,0.0,0.0,0.0,0.0,0.0,0.0,0.0,0.0,0.0,0.0,0.0,0.0,0.0,0.0,0.0,0.0,0.0,0.0,0.0,0.0,0.0,0.0,0.0,0.0,0.0,0.0,0.0,0.0,0.0,0.0,0.0,0.0,0.0,-0.0,-0.1342,-0.4365,-0.3581,0.0,0.0,0.0,0.0,0.0,0.0,0.0,0.0,0.0,0.0,0.0,0.0,0.0,0.0,0.0,0.0,-0.4876,0.0,0.0,0.0,0.0,0.0,0.0,0.0,-0.4083,-0.4197,-0.4197,-0.4484,-0.4714,-0.4908,-0.5016,-0.5162,-0.5422,-0.5428,-0.5432,-0.5379,-0.4903,-0.4913,-0.5413,-0.4389,-0.2555,0.0,0.0,-0.145,-0.3935,-0.3568,-0.2993,-0.2349,-0.3924,-0.5252,-0.605,-0.3341,-0.1299,-0.0436,-0.3837,-0.2966,0.0,0.0,0.0,0.0,0.0,0.0,0.0,0.0,0.0,0.0,0.0,0.0,0.0,0.0,0.0,0.0,0.0,0.0,0.0,0.0,0.0,0.0,0.0,0.0,0.0,0.0,0.0,0.0,0.0,0.0,0.0,0.0,0.0,0.0,0.0,0.0,0.0,0.0,0.0,0.0,0.0,0.0,0.0,0.0,0.0,0.0,0.0,0.0,0.0,0.0,0.0,0.0,0.0,0.0,-0.2348,0.0,0.0,0.0,-0.1836,0.0,0.0,0.0,0.0,-0.3797,0.0,0.0,0.0,0.0,0.0,0.0,0.0,0.0,0.0,0.0,0.0,0.0,0.0,0.0,0.0,0.0,-0.402,-0.4197,-0.4197,-0.4385,-0.4602,-0.4904,-0.4921,-0.506,-0.5418,-0.5428,-0.5432,-0.5379,-0.3685,-0.3692,-0.5346,-0.1818,-0.0135,0.0,0.0,-0.0069,-0.0364,-0.3796,-0.3304,-0.0079,-0.0157,-0.2636,-0.5924,-0.1756,-0.0085,-0.0,-0.0178,-0.009,0.0,0.0,0.0,0.0,0.0,0.0,0.0,0.0,0.0,0.0,0.0,0.0,0.0,0.0,0.0,0.0,0.0,0.0,0.0,0.0,0.0,0.0,0.0,0.0,0.0,0.0,0.0,0.0,0.0,0.0,0.0,0.0,0.0,0.0,0.0,0.0,0.0,0.0,0.0,0.0,0.0,0.0,0.0,0.0,0.0,0.0,0.0,0.0,0.0,0.0,0.0,0.0,0.0,0.0,-0.0112,0.0,0.0,-0.262,-0.0984,0.0,0.0,0.0,0.0,0.0,0.0,0.0,0.0,0.0,0.0,0.0,0.0,0.0,0.0,0.0,0.0,0.0,0.0,0.0,0.0,0.0,0.0,-0.4046,-0.4046,-0.4416,-0.466,-0.4762,-0.4952,-0.5104,-0.5206,-0.5308,-0.5369,-0.5389,-0.362,-0.2415,-0.1818,-0.0606,0.0,0.0,0.0,0.0,-0.0073,-0.1262,-0.1143,0.0,0.0,-0.0804,-0.2001,-0.0588,0.0,0.0,0.0,0.0,0.0,0.0,0.0,0.0,0.0,0.0,0.0,0.0,0.0,0.0,0.0,0.0,0.0,0.0,0.0,0.0,0.0,0.0,0.0,0.0,0.0,0.0,0.0,0.3162,0.5913,0.5909,0.2659,0.0,0.0,0.0,0.0,0.0,0.0,0.0,0.0,0.0,0.0,0.0,0.0,0.0,0.0,0.0,0.0,0.0,0.0,0.0,0.0,0.0,0.0,0.0,0.0,0.0,0.0,0.0,0.0,-0.1909,-0.1514,0.0,-0.0108,0.0053,0.0,-0.195,0.0,-0.3559,0.0,0.0,0.0,0.0,0.0,0.0,0.0,0.0,0.0,0.0,-0.2847,0.0,0.0,0.0,0.0,0.0,0.0,-0.4019,-0.4019,-0.4385,-0.4633,-0.4687,-0.4921,-0.5077,-0.5128,-0.5284,-0.5376,-0.5396,-0.4236,-0.2418,0.0,0.0,0.0,0.0,0.0,0.0,0.0,0.0,0.0,0.0,0.0,0.0,0.0,0.0,0.0,0.0,0.0,0.0,0.0,0.0,0.0,0.0,0.0,0.0,0.0,0.0,0.0,0.0,0.0,0.0,0.0,0.0,0.0,0.0,0.0,0.0,0.0,0.0,0.1515,0.2945,0.3104,0.5376,0.7639,0.8669,0.5656,0.2459,0.0336,0.0,0.0,0.0,0.0,0.0,0.0,0.0,0.0,0.0,0.0,0.0,0.0,0.0,0.0,0.0,0.0,0.0,0.0,0.0,0.0,0.0,0.0,0.0,0.0,0.0,0.0]}]]